GFSNGP_sfc_wetblb_000.txt.gz
Wetbulb
42.37 42.91 42.46 40.92 40.72 41.93 40.74 40.97 35.91 38.74 40.82 44.31 46.52 47.11 47.42 47.79 48.08 47.89 47.61 48.17 47.89 47.36 47.78 47.82 48.00 48.16 46.29 45.53 45.07 44.02 42.35 41.32 41.73 41.91 41.81 40.92 40.37 39.56 39.20 38.72 38.02 37.17 35.87 35.19
36.47 41.31 41.61 38.35 40.52 41.58 41.37 41.65 41.63 42.21 41.65 47.58 47.89 48.06 46.96 47.05 47.20 46.83 46.54 46.33 46.76 46.97 46.21 46.72 47.34 47.17 43.99 43.92 43.88 43.17 41.61 42.22 42.78 41.67 41.33 39.61 39.00 38.32 37.80 37.01 35.58 34.93 33.87 33.74
32.82 38.37 36.44 32.21 37.04 40.45 42.02 43.49 42.70 37.25 42.38 46.49 45.47 45.51 45.51 46.20 46.85 45.55 45.55 45.84 46.37 45.39 45.76 46.90 46.38 44.22 42.52 43.39 44.18 43.23 42.69 41.23 40.70 40.86 39.57 38.31 38.13 37.20 35.56 33.56 33.65 32.28 32.35 32.49
32.55 32.94 27.63 40.11 45.65 44.20 42.17 43.87 44.81 43.94 44.43 45.69 45.57 46.97 46.86 47.93 45.39 44.88 45.14 45.44 45.54 45.87 46.40 46.37 44.25 42.26 43.25 44.03 43.33 41.33 40.52 40.68 41.10 39.53 37.77 37.25 36.48 34.97 33.01 32.32 31.49 31.12 31.11 31.42
31.88 32.76 35.87 38.92 42.30 41.67 39.77 39.44 45.05 43.87 45.11 45.89 46.72 46.07 44.35 47.49 46.83 45.93 45.48 45.77 45.49 46.50 45.50 43.29 42.55 42.55 42.10 42.26 41.30 40.75 40.27 39.24 38.43 37.37 36.32 35.78 33.92 31.91 31.50 30.75 30.55 30.50 30.48 29.73
36.41 30.54 27.28 38.31 43.63 47.01 46.13 34.68 45.07 44.82 44.00 44.22 43.37 37.07 40.03 46.34 46.31 46.63 45.89 45.93 45.28 44.66 43.51 42.30 41.74 42.78 41.65 41.31 40.83 38.72 38.59 37.50 37.08 36.79 35.52 33.71 31.90 30.50 30.54 30.78 29.58 29.65 28.95 29.75
34.06 31.86 34.93 43.23 46.03 47.50 33.70 35.94 44.04 45.08 44.70 43.81 41.61 42.76 45.20 46.47 46.92 46.88 46.19 44.66 45.01 43.18 41.02 41.59 42.91 42.44 39.98 38.91 38.34 37.33 36.92 36.73 36.27 35.95 34.03 32.82 31.44 30.84 30.03 29.27 28.67 27.87 26.23 27.47
32.97 31.46 30.20 47.27 46.22 36.80 42.50 46.72 45.98 45.40 44.91 43.97 45.01 45.36 45.57 45.80 45.07 45.37 44.12 43.78 42.27 41.10 41.27 41.74 41.79 40.68 38.13 35.74 35.89 36.45 36.10 35.45 34.73 33.86 33.40 33.03 30.50 29.28 29.12 28.09 26.96 25.46 25.00 25.31
37.95 37.65 45.53 47.77 46.28 48.35 47.74 46.05 46.04 45.94 46.19 45.35 44.12 44.18 44.98 44.83 44.52 43.32 41.28 40.49 40.87 40.81 40.50 40.99 40.43 37.88 36.11 34.72 35.76 35.14 34.27 33.44 32.56 32.79 32.04 31.18 28.49 28.20 27.68 27.09 26.19 25.35 25.99 24.08
38.41 41.95 44.07 45.93 47.87 48.19 48.61 46.43 46.65 46.87 45.75 45.77 43.78 43.15 43.20 43.90 43.66 41.46 39.89 38.88 40.37 39.66 38.51 37.99 38.66 36.49 35.09 35.32 35.25 34.11 32.18 31.59 31.13 29.94 29.43 28.95 28.85 28.83 27.14 25.79 25.04 25.15 23.71 23.61
38.26 42.45 44.42 45.86 47.33 47.53 47.29 47.53 45.94 46.33 45.26 43.11 42.30 41.36 42.39 42.30 41.43 39.29 37.61 39.17 39.58 38.44 38.01 37.15 36.09 35.02 35.23 33.82 33.66 31.62 30.44 30.13 30.06 29.43 28.07 27.82 28.18 27.48 26.49 26.51 26.33 24.48 24.50 25.20
36.30 43.65 43.65 44.44 47.67 48.43 45.73 45.12 45.84 44.26 42.23 42.96 42.40 41.83 41.99 40.29 38.97 37.62 37.57 39.12 38.50 38.34 37.20 36.06 35.26 34.41 34.34 33.91 31.62 29.55 28.71 29.14 28.48 27.61 27.20 27.98 27.14 26.85 29.46 28.64 29.15 29.26 28.55 27.29
43.50 47.13 46.80 47.75 47.12 46.85 45.25 44.70 44.48 42.75 42.82 41.91 41.78 40.38 39.43 38.42 37.92 37.59 38.72 38.70 37.70 36.34 36.31 34.23 33.55 32.99 33.64 30.89 29.68 27.66 27.09 27.64 27.09 26.33 27.13 26.24 25.67 24.35 23.13 26.28 28.99 28.93 28.40 27.70
47.49 46.78 42.70 44.61 43.70 45.66 44.83 43.99 43.75 43.25 42.67 42.06 40.66 39.73 38.56 38.22 38.76 38.20 37.37 36.73 36.02 35.84 35.50 33.18 32.65 31.76 31.96 31.90 30.39 27.48 29.16 26.29 27.03 25.95 25.79 25.82 24.72 24.82 24.69 23.07 22.41 23.39 27.23 25.70
45.26 46.24 45.11 44.08 43.62 42.62 43.15 42.67 41.30 40.21 39.75 38.88 39.30 38.45 38.34 37.09 36.83 36.61 36.64 34.40 34.48 34.64 34.07 32.58 30.04 30.42 32.62 31.50 29.59 28.83 28.92 27.64 25.94 25.37 25.37 24.77 25.19 24.22 24.94 22.33 23.48 23.51 24.06 23.46
44.03 42.95 42.16 40.65 40.43 41.04 41.08 40.78 39.46 38.94 37.96 38.03 37.04 35.99 37.07 37.13 36.07 35.38 34.48 31.60 30.07 30.32 31.08 27.16 26.19 30.86 31.12 31.42 30.43 30.04 30.23 25.12 23.08 25.25 25.23 25.14 24.14 23.26 23.12 22.31 23.33 23.10 22.02 20.84
39.38 37.67 38.15 38.40 39.40 39.75 39.60 40.41 39.91 36.98 36.36 36.29 34.47 31.50 31.81 30.73 30.57 31.34 32.06 29.37 28.87 28.66 28.40 27.24 28.72 32.77 30.72 30.76 30.70 29.51 29.80 28.52 25.08 27.47 25.13 24.17 24.44 22.09 22.82 22.31 23.01 22.46 22.09 22.30
41.46 41.12 40.65 40.36 39.53 38.84 37.80 38.32 36.73 35.60 34.70 33.31 29.34 27.38 27.73 27.56 28.94 28.84 29.47 28.98 27.60 27.53 28.47 29.26 28.76 30.67 28.90 30.43 27.62 27.51 28.42 27.60 27.02 25.62 25.74 25.24 23.19 23.62 22.40 21.57 22.00 22.03 21.51 21.45
40.83 39.85 40.00 40.01 39.98 37.61 37.65 37.15 35.10 34.53 31.37 28.81 27.64 26.43 27.51 28.36 28.72 28.35 28.15 26.41 26.18 27.45 30.42 28.61 30.08 27.11 29.08 28.53 25.29 27.25 29.00 27.46 26.36 25.50 24.94 21.38 23.54 22.48 21.53 22.01 21.02 21.85 21.13 19.90
38.09 38.88 39.63 39.42 37.88 34.17 33.64 34.45 33.30 32.18 32.28 29.42 27.93 29.10 30.42 30.84 27.60 26.46 26.83 27.42 28.99 30.38 29.95 29.58 29.34 29.08 29.06 28.65 24.30 26.51 28.39 25.66 25.36 24.23 24.37 23.40 23.92 20.43 20.51 19.88 20.63 20.15 20.28 19.80
35.86 36.84 35.73 34.90 33.46 33.31 33.33 31.25 30.67 30.36 31.18 28.88 27.69 28.00 26.88 28.64 28.64 30.49 29.23 28.16 30.89 30.93 29.33 29.53 30.17 30.16 30.78 29.24 26.83 29.94 26.48 25.73 25.82 24.74 23.64 22.16 22.98 21.15 22.02 21.07 20.97 19.78 19.19 18.85
35.92 35.28 33.98 33.30 32.88 32.80 33.36 32.28 31.84 31.35 30.36 29.93 28.28 27.66 29.28 30.79 30.66 29.85 27.97 29.74 30.05 30.89 30.70 29.49 29.54 31.42 30.23 27.81 28.58 29.06 27.87 26.67 24.98 25.06 24.22 22.30 20.23 19.23 20.01 19.96 19.28 19.72 18.90 18.46
36.37 36.14 35.43 34.24 33.33 34.22 33.69 32.39 32.06 31.68 30.95 30.41 30.78 30.97 30.26 30.14 30.67 28.98 27.52 30.53 30.13 30.65 29.69 30.08 31.43 30.49 26.70 28.37 29.41 29.20 27.76 26.39 25.14 24.71 23.41 23.23 20.39 17.67 19.10 18.88 18.73 18.05 17.11 17.71
36.51 35.66 35.71 35.33 34.03 32.62 31.51 32.03 31.96 31.86 31.39 31.68 31.43 30.12 29.67 31.65 31.33 33.64 32.88 30.72 31.14 31.25 31.00 31.09 29.59 28.46 26.57 28.46 28.93 28.50 28.06 27.18 26.29 25.61 24.09 14.45 19.77 17.84 19.53 19.18 17.76 18.20 16.76 15.79
34.53 34.33 34.31 33.54 32.31 32.07 32.17 32.10 31.78 31.84 30.95 31.64 31.98 31.66 31.31 32.06 30.23 31.22 31.04 31.22 31.20 31.06 31.30 30.84 27.90 26.74 26.73 28.06 28.49 28.36 27.78 27.34 26.25 25.13 24.50 22.81 19.25 17.37 20.39 19.41 17.40 16.39 15.84 15.43
35.76 34.59 33.34 33.14 32.92 34.40 32.77 33.18 32.20 33.40 33.45 33.57 32.97 32.58 32.72 31.99 31.32 31.72 31.98 31.93 31.60 30.88 30.90 31.35 30.46 28.83 28.06 28.44 28.71 28.26 27.30 26.50 23.74 23.08 22.20 20.97 19.06 16.85 17.63 18.14 17.41 17.53 16.53 14.75
34.72 33.26 32.68 32.34 33.89 33.91 33.87 34.46 34.34 33.99 32.61 31.87 30.77 31.35 31.73 31.39 31.58 30.40 30.93 31.17 30.40 30.83 31.47 31.53 31.12 30.19 28.68 28.97 28.93 28.03 27.25 26.59 23.73 24.18 23.28 22.40 19.75 18.66 17.70 17.04 17.67 16.71 15.70 14.40

GFSNGP_sfc_wetblb_003.txt.gz
Wetbulb
38.99 40.56 41.05 40.19 38.88 39.00 37.08 36.41 31.81 35.16 36.36 40.22 41.49 42.15 42.46 44.11 45.15 45.06 44.39 44.34 44.72 44.92 44.53 43.28 45.25 45.27 41.99 40.67 41.47 41.98 39.68 37.04 37.20 37.49 37.76 37.54 36.93 36.20 36.47 35.98 36.54 36.05 35.28 33.88
35.10 39.52 40.00 35.97 36.86 38.14 37.71 37.50 37.46 37.75 36.99 42.56 42.71 44.13 43.58 43.48 44.36 43.48 43.81 44.30 44.68 45.08 44.79 44.81 45.19 42.22 41.80 41.31 42.27 42.71 41.20 40.56 40.85 40.14 39.28 38.46 37.72 37.55 36.01 34.87 34.12 32.85 31.60 31.24
33.14 36.35 34.36 27.53 33.82 36.25 37.79 39.09 37.98 31.87 36.39 42.17 41.34 42.41 42.68 43.00 42.95 42.98 43.80 44.17 43.94 44.03 44.11 44.58 42.87 41.28 39.66 41.17 42.20 42.48 41.68 40.88 40.68 40.60 40.08 39.19 38.16 35.59 33.81 31.71 30.41 29.08 28.90 29.05
30.92 29.24 26.49 35.86 42.24 41.33 38.62 39.83 40.36 40.50 41.25 42.53 42.77 44.66 44.88 45.33 42.81 42.85 43.30 43.86 42.71 43.50 43.53 41.27 39.69 39.92 40.63 41.57 43.02 41.44 40.45 40.39 40.56 40.14 38.52 35.30 34.54 33.25 30.46 29.02 27.93 27.30 27.50 27.78
31.18 29.12 32.11 35.77 39.23 36.33 35.04 35.73 41.93 40.80 42.39 43.81 44.53 43.28 42.63 45.05 43.97 43.47 43.62 42.98 43.13 42.56 40.77 39.41 39.32 39.82 40.43 39.95 41.19 41.25 39.46 38.93 36.09 35.19 33.91 33.22 31.51 28.73 28.08 26.88 26.22 26.06 27.33 27.11
27.92 24.66 24.60 31.78 40.08 44.13 42.88 31.94 42.02 43.39 42.69 42.33 41.32 35.00 37.93 43.13 44.75 44.05 43.78 43.37 41.46 41.45 39.32 38.46 38.82 40.32 39.77 39.81 39.36 33.69 34.01 34.29 34.68 34.21 32.86 30.65 28.38 27.09 26.42 26.00 26.10 26.96 26.74 27.61
19.43 27.27 30.05 38.25 42.49 44.91 29.48 33.83 41.03 43.34 43.95 42.74 39.79 40.35 44.08 44.90 43.32 43.08 42.72 41.03 39.96 38.69 39.98 40.00 40.40 39.04 36.15 31.22 31.54 33.91 34.62 34.80 34.21 33.16 30.94 29.51 27.20 26.41 25.40 24.87 25.25 19.94 19.45 22.03
28.22 30.19 25.42 42.97 41.26 32.33 37.89 41.04 43.67 41.84 41.88 42.47 43.56 43.26 42.70 42.02 42.14 41.42 38.51 38.09 38.33 38.29 37.96 38.49 38.73 36.38 31.13 31.23 33.82 34.60 33.99 32.95 31.67 30.96 30.61 29.91 25.52 24.74 25.05 24.00 20.12 18.32 15.43 18.51
32.18 30.80 39.56 43.02 41.85 43.56 44.69 43.36 42.73 42.33 43.44 43.46 42.68 41.65 40.37 38.45 40.17 37.74 37.25 36.59 37.94 37.41 38.90 38.89 35.43 33.65 32.60 32.68 33.94 32.80 31.36 30.24 29.58 29.77 29.23 26.94 24.79 24.09 23.86 22.18 18.76 17.56 21.45 20.38
33.87 38.74 41.08 42.58 44.45 45.17 45.10 43.44 45.25 45.45 44.64 42.94 41.46 40.18 37.57 38.26 36.43 36.00 35.61 35.74 37.29 37.02 36.62 35.20 34.04 33.40 32.62 33.16 32.73 31.32 29.18 28.43 28.76 26.79 26.21 24.77 25.15 25.10 23.10 18.09 16.73 21.71 19.75 21.40
36.07 39.86 41.44 42.33 42.71 44.17 44.88 46.04 45.90 44.55 43.07 43.13 40.22 38.20 37.62 37.45 36.29 34.93 35.20 35.96 37.15 35.59 35.45 33.18 32.88 31.68 32.52 31.78 31.05 28.87 28.09 27.71 26.93 25.76 24.54 24.90 25.39 24.06 22.89 21.46 20.50 23.47 23.66 24.43
34.46 41.05 40.56 41.81 43.53 45.37 44.71 44.03 44.59 42.82 40.40 40.01 39.13 37.00 37.55 36.73 35.61 34.73 34.42 36.40 37.10 37.24 33.20 32.40 31.63 30.77 31.22 30.58 28.74 27.41 27.24 26.48 23.98 22.19 22.08 23.88 23.66 23.95 27.51 27.60 28.85 27.96 28.17 26.71
41.41 44.02 43.83 43.75 44.37 44.46 43.53 43.63 42.00 40.77 40.17 39.73 38.78 37.64 35.74 34.81 36.39 36.14 38.55 36.92 35.03 34.00 33.26 31.30 31.12 30.48 30.74 28.28 27.50 25.25 23.65 25.50 23.81 23.27 21.54 19.81 20.65 20.20 18.11 20.93 26.50 26.83 27.60 26.29
45.10 44.84 42.89 43.41 40.55 42.59 41.87 41.86 41.99 41.14 40.96 39.62 38.32 37.16 36.30 35.86 36.64 35.43 34.25 33.01 33.46 33.63 32.67 30.83 30.05 28.61 29.26 28.77 26.05 22.15 21.96 22.50 18.97 18.28 17.52 18.02 17.13 20.69 13.71 16.55 13.80 15.88 25.00 24.67
44.48 45.03 42.75 41.32 39.94 40.05 41.01 40.45 39.19 38.47 38.35 37.39 37.00 35.92 35.42 34.25 33.47 33.42 33.25 32.09 30.71 31.60 31.12 30.09 27.93 27.94 30.33 29.70 27.86 26.40 26.11 23.72 18.31 16.40 14.17 15.09 19.31 14.28 13.06 13.24 12.71 17.06 21.71 21.73
41.39 40.80 39.87 38.54 38.51 38.31 38.10 38.26 37.71 37.80 36.66 36.05 35.40 33.25 32.83 31.20 30.33 30.29 30.36 28.58 26.32 26.51 28.34 24.36 21.04 26.88 29.36 28.79 27.71 25.43 24.80 22.24 20.23 19.39 16.53 18.42 15.41 14.94 13.25 13.28 12.65 19.71 19.85 19.16
35.57 34.68 35.37 34.93 36.29 36.65 36.35 36.94 36.87 34.74 34.57 32.63 29.31 26.50 28.38 25.11 23.91 25.23 27.46 24.97 22.32 22.14 22.12 20.66 24.18 28.91 29.61 28.38 26.66 22.15 21.46 24.98 25.36 25.36 23.47 20.56 15.47 13.56 17.17 11.53 10.89 18.51 19.61 20.43
38.44 38.34 38.16 36.97 36.39 35.54 32.78 32.45 30.54 30.27 31.34 30.76 23.31 21.36 19.23 18.37 21.44 22.93 22.87 22.32 22.05 20.79 20.44 23.31 27.96 26.90 24.37 28.57 26.92 23.57 20.84 25.25 24.51 20.75 20.24 14.32 13.60 17.24 12.93 12.44 9.96 17.24 19.12 19.33
36.11 35.20 35.36 36.32 35.34 32.82 31.52 30.78 28.94 30.19 28.90 27.01 23.66 24.13 21.17 22.91 22.68 22.34 20.11 15.49 14.01 18.87 27.82 28.06 29.03 28.14 27.77 26.86 25.38 18.61 17.61 22.61 20.91 18.74 18.05 17.28 14.84 12.92 13.12 9.62 9.48 14.90 18.41 17.43
34.07 34.91 35.16 34.59 34.24 29.26 29.19 26.64 32.32 31.08 28.04 25.41 24.04 21.12 27.05 25.02 20.23 18.97 26.69 23.45 27.35 28.57 27.61 26.76 27.17 26.38 25.85 26.49 22.20 20.23 16.99 15.49 17.39 19.55 17.99 14.06 13.29 13.62 13.52 11.48 14.16 12.87 14.70 16.78
31.23 31.66 29.99 28.35 28.75 26.85 23.48 31.22 30.91 27.49 28.66 26.96 23.08 24.35 23.22 21.16 23.42 28.23 17.93 23.94 27.91 27.99 27.46 27.82 27.47 27.33 28.90 27.23 23.67 19.52 17.92 20.19 20.45 15.54 16.40 15.44 8.99 9.90 10.50 8.16 13.78 12.03 12.18 15.03
31.29 28.86 28.21 27.28 32.29 32.98 33.19 32.09 30.09 29.26 28.86 25.31 25.49 21.57 25.36 23.42 19.49 19.23 15.02 26.70 28.48 28.35 27.91 27.12 27.11 28.18 26.36 21.55 20.63 26.29 25.46 23.76 16.63 18.06 17.32 12.76 9.70 9.37 7.85 10.76 13.29 11.24 10.75 11.87
31.88 31.02 30.89 26.63 31.47 33.20 33.44 32.63 32.10 30.25 27.67 27.25 24.61 28.47 29.33 22.56 21.58 18.27 22.24 27.35 28.23 28.46 28.03 28.28 28.66 28.00 26.56 26.14 26.59 26.82 25.82 23.73 16.45 16.03 17.82 14.19 10.79 6.20 8.38 10.46 13.10 10.60 9.50 11.12
31.29 30.63 30.67 28.43 28.64 30.99 31.22 31.22 30.17 27.90 28.21 27.00 30.57 30.85 22.80 20.44 21.61 27.19 28.11 28.65 28.75 28.95 28.72 28.87 27.20 26.35 25.55 25.67 26.82 26.28 25.69 23.72 19.45 18.64 18.28 14.65 12.67 7.52 9.62 11.43 11.72 10.54 9.12 12.44
29.97 30.25 29.45 24.38 27.65 29.41 30.69 30.82 27.82 27.76 27.57 29.24 29.78 29.79 29.27 28.88 28.26 28.50 25.12 27.66 29.11 28.62 28.49 28.96 27.12 25.95 25.57 25.74 26.76 26.47 23.62 21.98 18.65 18.27 18.81 16.02 12.77 6.90 10.18 12.20 11.20 10.90 11.44 11.27
29.93 31.14 29.48 29.90 32.18 32.55 32.33 28.90 28.77 29.15 28.47 28.38 30.87 30.88 30.60 27.43 28.75 25.38 17.35 26.66 27.94 27.64 28.15 29.04 28.35 27.36 26.21 26.54 26.97 26.30 19.81 17.29 16.99 16.03 17.62 16.77 13.61 8.97 7.36 9.40 11.03 13.16 11.53 9.95
30.41 27.25 28.06 30.58 31.31 31.70 32.24 31.29 31.44 30.91 31.23 28.79 27.19 29.53 28.66 27.76 28.31 27.91 27.82 27.63 27.37 27.20 28.28 29.43 29.26 28.61 27.37 26.60 21.46 22.87 24.09 18.45 20.97 16.49 16.83 17.39 16.74 13.34 9.01 7.60 9.56 11.27 9.37 9.01

GFSNGP_sfc_wetblb_006.txt.gz
Wetbulb
36.82 38.28 38.67 38.69 38.04 38.40 36.00 35.06 29.30 32.77 33.77 37.76 38.82 39.35 41.15 42.44 43.37 43.40 43.27 43.27 43.09 42.66 42.73 42.93 42.84 43.08 40.68 40.35 40.82 40.05 37.29 35.84 35.46 36.58 36.40 35.97 35.36 35.21 37.50 36.86 35.92 35.28 34.49 33.02
34.38 38.14 38.07 35.71 37.98 37.26 36.61 36.77 35.19 35.24 34.46 40.40 42.16 42.49 42.11 42.08 43.06 42.68 42.45 43.17 43.47 43.98 43.71 43.35 43.15 41.83 40.58 40.24 40.40 40.99 40.35 40.68 40.42 39.88 39.32 38.73 38.98 38.92 37.75 35.33 34.21 32.23 30.40 29.87
30.03 33.81 32.77 30.68 33.43 34.73 35.96 37.18 35.31 30.28 34.92 40.55 40.48 41.70 42.19 42.43 42.85 42.51 42.44 42.31 42.44 43.27 43.06 42.11 40.91 40.29 39.13 39.49 40.50 41.70 41.60 40.98 41.05 40.95 40.15 38.93 38.59 37.14 33.60 30.86 29.33 28.19 27.73 27.48
26.52 30.27 25.25 35.61 39.66 39.50 36.43 37.69 38.33 39.29 39.76 41.18 41.84 43.10 43.78 44.20 43.31 41.98 42.47 42.87 43.17 42.77 41.42 40.47 39.60 39.14 39.10 39.52 40.05 39.90 39.87 39.92 38.79 38.61 36.80 34.60 32.45 30.81 28.48 28.06 27.09 26.13 26.18 26.75
26.94 28.60 31.38 35.12 37.89 34.65 32.46 34.56 39.82 39.43 41.17 41.80 42.26 41.87 40.01 43.14 43.93 44.23 43.77 43.40 42.96 40.77 39.82 38.84 37.78 37.95 38.00 37.80 38.18 36.58 32.70 32.36 32.66 32.51 32.28 31.75 28.92 26.96 26.47 25.37 24.90 24.93 26.05 25.86
28.66 26.13 24.19 31.04 37.53 41.96 40.80 30.26 41.12 41.13 40.70 40.58 41.25 36.07 39.02 43.37 43.71 43.15 43.49 41.46 39.27 38.91 38.18 37.22 37.80 36.89 31.75 31.31 31.87 32.17 33.27 33.74 34.04 33.43 31.53 29.02 27.51 26.61 25.44 24.39 24.77 25.70 26.31 25.78
18.85 25.07 26.35 35.85 39.71 42.10 25.46 30.04 38.06 40.88 41.63 41.71 40.70 41.33 43.51 44.09 42.59 41.84 38.69 38.16 38.63 38.05 37.18 37.64 38.88 36.18 31.43 31.12 31.09 33.72 33.92 33.51 32.26 31.60 30.17 28.64 26.37 25.31 24.10 23.88 23.43 18.16 17.25 20.22
27.01 25.84 25.52 40.38 40.70 33.47 36.83 38.25 41.41 41.60 41.26 41.81 42.59 41.64 41.84 41.29 40.66 38.98 37.19 37.34 37.63 36.98 36.71 38.69 34.45 32.50 30.70 29.63 33.03 33.31 32.39 31.34 30.58 30.09 29.47 28.29 25.37 24.45 24.13 22.80 19.46 17.90 14.30 16.38
30.01 29.69 37.49 40.32 41.27 41.42 43.25 41.88 41.18 42.31 43.86 42.32 41.26 40.40 40.59 37.13 36.46 36.49 36.32 35.51 36.44 36.13 36.97 36.31 32.87 32.51 31.14 30.93 32.08 31.15 30.06 29.07 28.55 28.67 27.33 26.12 24.26 23.30 22.79 21.30 17.75 16.83 20.49 17.84
33.62 37.47 39.20 40.73 43.61 44.22 42.83 41.07 44.70 44.79 42.96 43.43 40.24 40.49 37.90 37.77 36.65 36.03 34.84 34.39 35.78 36.87 35.31 33.74 31.91 31.24 30.68 31.13 30.66 29.02 27.74 27.65 27.90 26.36 25.90 24.56 24.71 24.37 22.63 17.16 16.08 21.69 19.76 20.61
36.87 39.81 40.80 41.61 41.88 42.85 44.57 45.18 42.98 43.05 42.25 41.33 40.05 39.14 37.25 35.75 35.65 34.86 34.36 34.74 36.20 36.87 35.84 33.22 31.13 30.37 31.08 30.25 29.13 28.14 27.54 27.34 26.65 25.58 23.65 24.23 24.89 23.59 22.65 21.49 19.80 19.68 18.68 23.92
34.93 40.92 40.05 40.95 43.78 43.66 41.98 40.80 40.19 39.22 38.65 39.15 39.39 37.98 37.26 35.11 34.50 34.33 34.08 36.82 36.14 36.20 32.83 32.11 30.94 30.12 30.37 30.05 28.42 27.41 27.27 26.40 23.21 21.94 20.85 23.02 22.94 23.52 27.19 26.41 27.39 27.10 27.34 24.51
41.49 44.18 43.24 43.84 43.22 43.02 40.95 41.18 41.43 40.96 40.10 38.08 38.53 37.58 35.96 34.19 34.44 35.89 36.72 35.28 35.33 33.37 32.39 30.87 30.36 29.34 29.83 28.42 26.32 24.95 23.28 24.86 22.93 22.89 21.40 20.28 18.57 19.15 14.36 19.19 24.86 25.43 26.13 25.22
44.97 43.46 40.47 41.14 39.16 41.08 40.41 40.41 40.43 39.40 40.43 39.41 37.24 36.14 35.43 34.81 34.52 33.88 33.37 34.01 32.30 31.79 31.14 30.06 29.59 28.72 29.37 28.08 24.92 20.66 18.95 19.91 20.09 20.47 19.04 19.45 12.78 13.02 13.54 10.87 8.96 13.47 20.95 23.23
43.14 41.77 40.79 40.89 40.00 38.32 39.04 39.24 37.86 36.64 37.51 37.23 36.52 35.11 34.43 33.03 31.34 30.53 30.77 30.21 29.48 29.93 30.52 29.79 27.15 26.57 28.85 28.97 27.24 25.58 25.12 19.97 15.96 17.68 17.91 15.38 13.19 13.25 10.41 9.22 10.13 11.20 12.32 20.14
39.43 38.82 38.84 37.56 36.86 38.11 38.05 36.50 36.11 35.62 35.77 34.96 33.48 32.20 32.02 30.12 29.44 29.37 30.49 29.66 26.53 26.23 26.97 22.71 19.44 25.50 27.84 28.14 27.66 25.62 24.66 22.73 20.42 19.82 20.30 17.86 16.41 12.36 12.91 10.65 10.89 9.60 10.85 17.63
34.71 33.49 34.77 33.11 33.40 33.65 34.38 35.09 33.24 32.34 33.45 32.78 30.38 26.37 27.54 25.13 26.34 26.31 27.23 26.03 22.81 20.82 19.75 23.34 25.10 29.40 28.36 29.32 27.18 23.87 24.85 22.59 24.82 23.48 15.98 18.28 13.19 10.52 10.91 8.54 8.48 7.97 14.00 16.42
36.61 35.72 34.20 34.05 32.85 32.66 31.53 31.56 29.32 28.93 29.54 29.59 25.28 21.92 23.23 20.38 23.52 25.22 24.39 22.90 21.39 20.81 26.68 26.62 26.90 28.01 24.86 27.75 25.85 22.79 17.98 23.65 23.28 17.15 16.73 11.92 11.25 13.70 8.03 8.55 6.69 8.15 14.52 15.53
34.93 34.72 34.27 33.91 33.23 31.66 30.90 30.17 28.17 27.19 27.58 31.06 27.41 25.46 22.45 20.66 25.85 23.74 22.48 20.40 22.80 21.92 26.07 21.68 28.15 27.19 26.29 27.73 26.13 17.29 14.75 16.44 16.67 17.91 13.96 10.40 8.38 8.01 7.71 5.43 5.07 8.99 11.67 13.78
35.24 35.45 34.56 33.04 31.53 28.45 29.50 28.04 24.46 27.08 30.42 29.08 25.86 25.79 23.42 25.55 25.28 23.81 25.95 23.31 26.44 26.87 26.32 26.53 26.84 25.93 26.50 25.56 24.75 19.73 17.18 15.55 19.23 13.57 8.25 8.84 7.82 6.16 7.51 9.22 10.75 9.28 8.46 11.10
31.59 32.08 29.66 27.83 27.67 28.23 32.88 32.18 30.91 31.35 31.37 29.44 28.93 25.07 25.41 21.63 23.80 24.53 17.86 23.70 24.88 27.25 27.32 26.96 26.16 26.10 28.02 23.51 22.54 19.38 23.47 23.55 19.58 10.66 7.79 8.51 6.56 3.41 1.63 7.89 11.79 8.57 8.03 10.07
31.32 28.54 27.37 26.63 25.67 27.33 30.00 32.18 28.60 29.78 31.22 29.20 22.61 24.88 22.75 24.61 20.13 18.22 19.34 25.64 27.62 27.67 26.58 26.14 25.93 27.23 25.92 24.40 24.01 25.48 25.17 24.40 19.11 8.30 10.07 10.31 9.55 4.64 2.29 7.10 9.68 7.88 7.72 8.43
31.47 30.70 30.04 27.51 28.58 28.84 30.91 32.55 29.17 32.13 31.47 29.12 24.18 25.81 26.71 25.19 22.19 18.90 21.52 25.55 27.30 27.43 26.53 26.63 27.29 26.94 25.94 25.63 25.92 25.66 25.34 24.59 16.25 13.73 13.25 12.32 9.37 3.79 1.81 8.62 9.09 7.72 7.51 9.13
30.66 29.94 29.45 29.51 26.56 29.40 29.21 29.44 26.77 29.95 30.83 25.25 27.97 29.15 28.59 24.97 19.73 25.88 26.68 27.46 27.91 27.92 27.62 27.90 26.90 26.09 25.05 25.05 25.21 26.22 25.87 24.45 16.62 14.16 15.56 13.64 12.56 7.23 2.80 7.61 9.62 7.91 8.04 8.15
29.64 28.99 28.49 26.34 26.71 28.66 28.40 27.97 28.20 29.21 28.23 28.25 29.18 29.40 29.24 28.97 27.95 21.32 26.95 26.05 27.40 27.54 26.91 26.76 27.82 26.75 25.43 25.32 25.53 25.79 25.84 16.69 13.48 13.77 13.79 12.48 11.94 8.05 4.44 6.21 7.19 8.38 7.40 6.81
30.29 30.74 30.88 29.57 30.16 31.08 31.10 27.45 29.57 29.59 29.01 28.61 28.09 30.25 30.26 27.50 27.16 26.91 27.22 27.04 25.67 26.66 26.21 27.09 27.33 27.02 26.61 25.83 24.37 25.29 25.51 21.66 14.96 10.94 9.43 8.66 9.50 9.00 6.90 4.09 3.75 7.02 7.30 5.85
29.47 25.22 26.52 28.49 28.75 30.36 30.40 30.47 30.82 29.26 29.87 30.43 29.80 31.14 29.04 28.61 26.97 26.60 26.67 26.87 26.24 26.09 26.39 26.65 26.86 26.73 27.27 26.80 25.48 24.72 19.25 23.33 18.13 11.86 11.43 12.82 8.42 10.79 9.41 6.73 7.28 7.25 6.89 5.83

GFSNGP_sfc_wetblb_009.txt.gz
Wetbulb
35.04 36.39 36.57 36.91 36.27 37.48 35.18 34.41 31.15 33.01 33.08 36.95 37.81 39.09 40.11 41.68 41.89 42.21 43.18 43.53 43.16 43.62 42.93 42.99 42.56 41.93 41.50 39.97 39.83 39.77 39.70 35.79 34.03 35.99 36.66 35.29 36.93 38.25 38.29 37.97 37.55 35.26 33.18 31.46
31.47 36.01 36.53 34.64 36.75 36.40 36.52 36.06 34.64 34.15 32.93 38.30 40.42 41.76 41.48 41.95 42.55 41.87 41.61 42.90 42.97 42.81 42.95 42.67 42.34 41.13 40.06 39.56 39.21 39.87 38.99 39.64 40.27 40.63 40.93 40.56 40.24 39.20 37.83 36.88 33.73 31.40 29.58 29.01
25.03 32.63 30.99 26.20 31.24 33.96 34.90 35.71 34.50 29.57 33.86 38.46 39.23 40.03 40.80 41.39 41.87 41.42 41.59 42.75 41.72 41.68 42.24 42.20 40.95 40.43 38.68 38.56 39.32 39.11 39.19 39.64 39.67 39.90 39.96 39.27 38.94 37.30 32.80 30.15 29.23 28.05 27.77 27.50
22.29 30.96 21.82 34.02 37.71 37.91 35.42 36.58 36.65 36.42 38.50 39.75 40.30 41.73 42.11 42.94 41.90 41.21 41.79 42.32 42.24 42.72 41.46 40.69 39.99 38.64 37.38 37.89 37.91 37.77 35.10 32.90 34.72 34.45 33.65 31.70 30.41 29.19 27.74 26.99 26.38 25.61 25.82 26.64
27.18 26.74 28.87 34.16 36.36 33.65 31.83 32.96 38.17 38.33 39.21 40.77 41.49 40.04 38.87 42.25 41.62 40.64 41.14 41.76 42.08 40.77 39.53 38.42 37.06 36.27 33.11 31.57 31.52 32.20 32.79 32.61 33.05 33.74 32.21 29.74 27.99 26.55 25.80 24.66 24.95 25.04 26.25 26.27
28.19 25.78 23.48 30.85 35.67 39.18 38.94 29.58 38.77 39.91 39.32 39.56 38.93 34.81 38.04 43.08 41.81 41.16 41.21 41.50 39.31 38.78 37.80 36.38 37.02 32.00 32.54 31.69 32.48 30.82 33.68 33.06 31.66 30.73 29.45 27.75 26.59 25.43 25.69 24.92 25.07 26.00 25.21 24.84
25.42 24.95 26.94 34.48 37.83 39.25 28.18 30.37 37.09 40.24 41.11 38.72 37.87 39.83 42.42 41.74 40.95 40.93 39.93 39.03 38.80 36.85 36.19 36.68 36.15 32.68 30.67 30.19 30.26 31.67 31.91 31.74 30.72 30.59 29.22 27.31 25.90 25.37 24.31 23.70 23.39 18.05 16.82 19.12
26.47 25.56 22.16 38.41 39.40 33.07 37.29 37.74 39.65 39.79 38.85 39.27 40.38 41.12 40.06 39.73 40.39 39.46 37.05 36.48 36.02 35.35 35.58 36.12 32.09 30.95 29.07 27.97 29.95 30.54 30.37 29.78 28.95 28.35 27.62 26.73 24.67 23.85 23.47 22.42 19.82 17.76 13.66 16.29
29.63 30.18 36.77 38.36 40.27 40.66 41.29 39.39 38.60 38.82 43.18 43.04 40.12 38.98 38.43 38.59 38.79 36.94 35.75 34.92 35.16 34.74 35.83 36.92 32.83 31.05 29.99 29.71 30.64 29.68 28.38 27.62 27.57 27.62 26.64 25.31 23.90 22.89 22.59 20.97 18.26 16.63 20.69 19.50
33.27 37.29 38.60 40.67 43.01 44.38 42.73 40.33 43.90 42.48 41.14 38.52 36.62 37.22 37.50 38.68 36.81 35.64 34.97 33.17 33.94 34.58 34.88 34.28 33.61 31.78 31.87 31.07 30.18 28.30 27.46 27.11 27.33 25.76 25.02 23.98 24.44 24.46 22.64 18.73 17.12 20.86 19.62 19.49
36.62 40.03 40.84 41.82 42.48 42.17 44.03 42.64 39.83 39.70 39.34 38.77 38.22 37.46 37.55 36.10 35.42 34.23 33.26 33.39 34.95 34.88 33.80 33.48 32.41 29.84 30.76 30.37 29.42 28.35 27.73 27.02 25.75 25.19 24.04 24.44 24.38 23.54 23.38 22.13 19.03 19.33 17.46 21.40
35.65 41.05 40.27 41.55 42.97 42.36 40.49 39.40 40.07 39.35 38.67 39.26 38.14 36.76 37.01 35.81 34.74 33.01 32.80 34.23 35.17 34.31 33.13 31.00 29.98 29.07 29.38 29.84 28.72 27.58 27.42 26.24 22.83 21.50 21.03 23.18 22.31 22.78 26.65 25.69 26.96 26.34 26.55 23.47
40.97 43.89 43.89 44.12 40.68 40.52 39.64 39.91 40.90 40.83 40.08 38.27 36.82 36.60 36.03 34.47 33.89 34.35 35.88 34.61 32.99 32.93 31.38 29.23 28.91 28.32 27.73 26.63 25.27 23.15 21.69 23.82 22.00 21.69 21.24 21.21 19.20 18.60 13.25 18.21 23.94 24.60 25.04 24.61
44.37 43.99 41.33 39.72 37.60 39.91 39.58 38.81 39.12 38.22 38.27 38.16 37.34 35.97 35.05 34.36 33.43 32.09 31.13 30.41 30.50 29.39 28.64 27.55 27.21 26.66 27.92 27.40 24.10 19.52 17.57 18.21 15.97 15.95 15.72 19.06 15.41 16.72 10.34 9.85 7.93 12.36 19.44 22.22
40.91 40.91 39.95 39.01 38.88 37.80 37.55 37.52 36.90 35.76 35.95 35.44 35.29 33.89 32.89 31.99 30.93 29.99 30.03 29.19 28.86 28.64 27.23 26.77 25.58 26.28 27.18 28.14 26.60 24.66 25.90 22.28 17.89 13.92 13.93 13.18 15.72 14.12 9.22 8.91 7.48 10.06 11.50 15.91
37.45 38.53 38.86 35.57 36.69 35.82 35.11 33.92 33.69 33.03 32.12 31.64 31.78 31.03 30.98 29.81 29.83 29.73 28.81 27.48 25.48 23.95 24.81 23.82 19.46 25.55 28.95 30.11 28.53 27.03 26.17 22.66 17.61 20.13 19.48 14.93 14.42 9.81 11.09 7.51 8.01 8.48 7.22 12.36
32.35 33.40 32.51 31.16 30.29 30.49 31.11 32.26 31.73 30.53 29.80 30.19 28.30 27.91 28.90 28.19 26.93 24.21 24.91 21.72 16.24 16.11 25.84 26.40 26.25 29.13 28.07 29.47 28.98 25.15 21.83 21.26 23.85 23.61 16.35 14.07 10.13 10.35 8.94 10.17 5.23 7.58 6.13 12.17
33.75 33.33 32.87 33.12 31.72 30.70 30.14 30.88 29.86 28.87 29.23 29.58 29.28 30.26 28.91 27.50 24.16 21.17 21.20 18.01 15.57 24.65 25.27 21.74 22.44 27.63 25.84 28.38 27.26 21.69 16.56 19.44 22.10 14.71 13.83 9.71 9.10 9.32 6.96 7.82 6.48 5.41 4.68 11.71
35.65 35.10 35.55 34.51 33.81 31.59 30.39 30.11 28.23 27.22 27.46 24.49 26.23 29.37 26.83 25.76 22.10 25.34 22.10 20.75 17.34 20.22 22.64 22.49 27.09 26.63 26.64 27.18 27.44 23.15 15.82 16.44 14.90 15.84 11.72 9.37 6.77 6.45 5.23 4.85 5.72 4.14 5.57 9.43
32.99 34.30 34.56 33.57 32.38 28.49 28.57 30.20 30.79 30.31 31.27 30.12 27.44 25.82 26.80 25.46 23.03 22.60 22.21 20.86 22.13 23.80 25.78 26.43 26.00 25.31 21.96 24.89 23.39 20.05 16.39 19.51 22.01 15.36 5.41 5.77 1.42 1.78 -0.39 4.86 9.21 5.38 3.23 6.09
29.49 29.84 28.66 28.05 28.20 26.99 23.31 28.69 28.84 28.87 29.81 26.89 29.96 29.36 28.38 23.03 19.50 19.29 21.10 24.75 23.67 25.19 27.32 26.48 25.54 25.23 27.27 25.87 25.30 24.23 22.91 23.84 22.60 10.30 6.68 5.59 1.96 2.33 0.15 -1.30 3.41 3.41 3.36 5.56
29.71 28.29 27.36 26.95 26.23 27.47 28.00 25.72 28.05 31.58 30.45 31.74 31.66 29.69 23.42 23.37 23.37 25.13 24.51 23.99 25.98 27.33 26.14 25.33 25.42 26.09 25.26 25.06 24.86 24.61 24.99 24.57 22.22 10.86 9.80 8.56 1.96 0.69 -0.04 -1.84 2.15 3.23 3.03 5.19
29.59 29.07 29.02 26.16 26.23 28.45 26.99 26.10 28.01 29.72 29.34 30.78 31.72 27.23 26.69 26.48 26.19 24.14 23.39 23.41 26.26 27.05 26.14 25.91 26.77 27.39 25.74 24.82 24.62 25.30 25.12 24.39 23.48 11.52 12.68 11.37 8.73 0.81 -0.57 0.31 0.88 3.01 2.69 6.25
29.37 29.16 29.16 28.86 25.79 22.79 24.76 28.90 26.40 26.34 24.16 26.47 26.14 29.18 28.01 27.16 24.97 25.50 25.05 26.05 25.54 26.64 26.82 27.60 27.30 25.86 25.91 23.42 24.68 24.72 25.09 24.91 19.98 11.18 12.35 12.02 7.39 5.12 -1.48 -1.12 1.42 -0.39 0.87 4.92
27.55 27.86 27.77 25.43 26.11 28.13 28.08 28.75 26.10 24.64 25.40 27.11 25.86 29.48 29.09 28.94 27.21 22.96 20.41 22.10 23.56 26.09 26.29 26.00 20.49 19.00 21.84 24.57 22.73 23.77 24.18 24.40 16.87 9.38 8.63 8.81 9.62 8.12 -0.21 -1.48 -1.66 -1.69 -0.40 3.22
29.05 29.56 30.01 29.33 29.28 29.56 29.92 30.19 29.26 30.13 28.25 28.00 26.80 27.91 29.33 28.90 28.83 27.33 26.88 26.02 23.98 25.36 25.59 25.92 25.47 22.60 23.04 20.51 20.64 22.15 18.09 19.08 17.76 12.38 10.06 8.09 6.85 9.95 7.30 0.15 -1.88 -1.32 0.28 1.27
26.90 22.98 29.00 29.75 29.13 29.28 30.57 31.10 30.95 31.07 30.57 28.57 25.12 28.51 30.24 28.66 27.93 26.76 26.07 25.92 25.37 25.15 25.15 25.61 25.46 25.44 20.73 14.21 14.80 15.50 20.08 18.57 15.65 16.78 12.87 11.79 12.48 13.47 11.48 9.34 3.67 1.41 -1.53 0.02

GFSNGP_sfc_wetblb_012.txt.gz
Wetbulb
33.75 35.18 34.97 35.08 34.80 35.22 33.16 33.03 31.21 33.33 32.08 36.41 38.54 37.16 39.56 41.05 41.39 42.91 42.80 42.46 42.01 41.74 43.45 43.05 43.55 43.56 41.88 40.88 39.50 39.22 38.99 37.31 35.83 36.71 36.56 37.25 37.34 37.54 38.31 37.56 37.76 35.47 32.52 31.29
29.93 33.04 33.61 31.50 34.31 35.09 34.83 34.72 34.38 34.86 33.92 38.78 37.53 39.89 40.18 41.15 41.58 41.21 41.29 41.14 41.74 41.75 41.03 41.45 42.78 40.70 40.15 39.69 38.92 39.65 38.86 38.13 40.80 40.96 40.07 38.49 38.97 38.66 38.14 38.12 37.78 32.75 28.72 27.94
23.95 30.10 29.69 23.42 29.55 32.25 33.81 35.14 34.05 30.01 34.40 35.67 37.13 39.00 39.55 40.58 40.55 40.85 40.36 41.09 39.07 39.81 41.03 42.61 41.01 39.99 39.03 38.08 38.07 38.23 36.55 36.30 37.40 37.64 36.14 35.40 36.31 34.54 30.46 28.45 27.64 26.70 26.68 26.92
22.76 29.79 18.13 33.12 36.15 37.04 34.40 35.17 36.06 34.98 35.28 37.93 39.09 39.46 39.96 41.43 40.76 38.96 38.69 39.76 40.12 40.21 41.34 39.33 38.75 37.65 36.11 33.26 33.41 32.94 32.57 33.30 34.51 34.19 34.02 32.18 29.52 27.75 27.03 27.03 26.32 25.66 25.77 26.64
28.37 27.48 27.90 34.18 34.58 32.70 31.10 31.74 36.05 35.24 37.95 39.22 39.84 38.65 38.35 40.22 40.21 40.26 40.16 40.09 40.08 39.61 38.77 37.62 36.20 32.78 30.29 30.69 30.89 32.01 33.09 33.47 32.19 29.96 29.17 28.78 27.38 26.39 26.03 25.36 25.07 25.23 26.77 25.77
27.80 24.91 22.14 30.52 34.22 36.82 37.95 28.58 37.31 39.61 39.33 39.07 37.49 33.18 37.23 40.34 40.99 39.97 40.54 40.86 39.26 37.87 36.99 36.21 36.46 31.57 33.99 32.35 31.19 30.10 30.83 29.84 29.62 28.96 27.72 25.99 24.97 24.35 24.96 24.57 25.26 26.31 24.57 24.06
26.33 26.41 28.61 34.14 36.46 38.38 27.79 30.42 36.55 40.02 39.00 37.83 34.90 38.74 38.02 38.68 38.51 38.85 39.62 38.83 38.22 36.08 35.03 35.98 36.48 33.24 30.90 29.15 28.75 30.10 30.31 29.94 28.58 28.10 26.65 25.01 24.33 24.18 23.57 23.05 23.62 18.55 16.53 18.75
25.13 25.54 22.73 36.22 36.77 32.78 37.38 37.63 38.68 37.73 36.68 40.16 39.54 38.28 37.74 37.36 37.70 37.65 37.35 36.82 36.38 34.54 34.47 36.34 36.74 31.53 29.09 26.95 30.26 30.91 29.71 27.57 27.00 27.04 26.55 25.70 23.92 23.72 23.46 22.05 19.80 17.86 13.88 16.47
32.26 29.08 35.79 38.77 40.10 40.23 39.53 38.67 38.10 37.69 41.18 39.54 36.80 36.66 37.11 36.22 36.97 37.58 36.70 34.66 34.74 33.73 34.43 35.41 34.27 31.28 32.62 33.59 32.41 29.59 27.63 26.43 26.49 26.92 26.26 25.20 23.72 22.69 22.67 20.98 17.67 17.37 20.60 19.73
33.88 36.37 38.21 41.51 42.83 42.41 41.19 40.56 40.75 40.22 39.13 38.87 37.27 37.40 36.65 36.63 36.28 35.87 35.07 33.28 33.19 33.17 33.86 33.30 34.19 32.65 30.01 29.56 29.38 27.12 26.91 26.47 26.30 25.12 25.20 24.20 24.82 24.25 22.89 18.76 17.26 20.35 19.52 19.08
35.08 39.82 40.25 40.62 40.35 41.37 40.86 40.78 40.27 40.33 39.28 37.81 37.03 36.48 36.31 35.24 34.86 34.71 33.30 32.86 33.37 33.82 32.70 32.71 32.85 31.39 29.15 29.22 28.76 27.45 27.20 26.69 26.01 25.20 24.11 24.82 24.90 23.01 22.89 22.05 19.20 20.47 17.53 17.75
35.18 40.53 40.64 42.05 42.11 42.44 39.93 39.03 40.20 39.43 37.74 38.14 37.21 35.75 35.11 34.88 34.51 33.39 33.12 32.83 32.98 33.37 32.26 32.53 30.39 28.84 28.62 28.52 27.93 26.71 27.07 26.31 21.85 21.20 20.34 22.31 22.07 22.33 26.06 25.22 26.28 25.72 25.55 22.10
40.88 44.06 43.77 42.06 40.69 40.70 39.64 40.15 39.68 37.51 37.70 37.34 36.20 35.43 34.01 33.01 32.85 34.28 33.05 32.45 31.08 29.75 30.00 28.11 28.08 27.69 27.47 25.42 23.36 22.34 20.72 22.16 19.50 20.63 20.56 18.23 17.94 17.96 15.94 18.55 23.15 23.80 24.12 23.70
43.75 43.27 40.16 40.30 37.79 39.71 39.04 37.32 36.64 36.76 37.25 35.88 34.92 33.71 32.55 31.78 32.30 30.92 30.32 29.51 30.12 29.13 27.50 27.02 26.84 26.50 27.13 26.92 24.15 18.50 16.53 17.00 16.96 19.03 14.33 14.91 9.37 14.00 13.65 9.69 7.94 10.82 17.49 21.15
40.20 39.19 38.02 39.22 38.20 36.73 35.35 34.38 32.63 32.02 33.10 32.58 32.37 31.17 30.83 30.45 30.48 31.00 30.47 28.86 29.68 28.53 27.09 26.54 25.18 26.15 27.42 28.22 27.24 24.07 24.28 20.40 17.96 11.68 10.60 10.75 9.38 11.27 8.53 6.31 5.71 7.66 11.11 14.84
36.80 37.09 36.10 33.10 32.80 32.02 31.81 31.03 30.44 30.24 30.67 30.45 30.29 30.16 29.92 29.60 29.62 31.15 30.30 28.15 24.28 24.33 25.57 25.60 25.15 25.14 28.63 29.61 29.10 28.37 24.46 21.08 16.65 14.99 16.64 12.58 10.75 8.92 10.85 8.42 7.33 8.20 10.17 8.44
32.49 30.63 30.51 30.13 30.50 30.29 29.80 30.16 30.20 30.15 30.25 30.13 28.56 29.28 29.55 28.62 25.55 27.36 24.86 20.45 15.87 18.77 23.42 25.82 22.00 28.03 27.96 29.20 28.26 25.36 20.86 19.09 18.96 20.81 15.57 12.81 8.45 7.57 7.38 11.39 9.39 8.44 6.12 2.32
32.61 32.38 32.75 32.44 31.31 30.39 29.77 29.87 29.31 28.40 28.25 29.40 27.64 26.76 29.25 28.00 25.50 27.22 19.03 17.66 14.22 22.14 24.55 21.95 21.87 26.70 25.48 28.20 27.57 25.32 21.89 16.70 16.23 13.33 12.79 8.31 8.08 8.05 4.86 5.39 7.81 6.46 3.41 7.56
33.17 32.56 32.61 32.43 32.63 31.50 30.45 30.10 28.54 27.01 30.33 31.26 29.55 27.77 28.57 28.78 26.25 23.02 22.97 24.99 22.42 19.47 22.61 20.35 26.73 26.29 25.62 23.72 25.97 23.75 22.33 16.39 15.29 20.93 10.84 6.86 3.41 3.92 1.24 -0.21 4.61 1.96 0.88 6.92
30.55 30.75 30.40 29.59 29.10 26.58 27.83 28.31 26.19 27.46 29.10 27.87 31.28 30.14 29.54 30.00 29.32 21.79 23.43 23.19 24.33 24.51 25.14 25.50 25.58 24.90 24.30 24.81 24.28 23.25 19.09 20.71 20.47 14.10 2.87 4.32 -0.03 -0.94 -2.39 0.33 5.02 2.15 -2.57 2.50
28.28 28.79 27.12 26.28 26.48 26.68 25.02 25.24 23.77 25.29 27.74 23.75 30.04 30.62 30.10 30.42 25.21 23.56 19.45 24.00 25.95 22.92 26.23 26.19 25.15 24.81 26.25 25.42 24.91 24.59 24.39 23.26 22.42 11.67 5.95 5.93 3.22 0.69 -3.47 -6.01 -4.20 -1.48 -1.84 1.06
28.77 26.63 24.71 24.57 24.61 26.21 27.52 25.36 24.42 23.87 24.90 29.87 32.14 30.85 30.91 27.96 24.31 23.40 25.73 26.57 26.91 26.38 26.04 24.99 25.00 25.20 25.32 25.53 24.36 24.58 24.89 24.54 23.47 13.86 5.41 6.05 5.31 4.27 -0.39 -4.93 -3.84 -0.94 -1.84 0.51
28.49 27.73 27.38 24.57 24.22 27.82 27.98 26.60 25.84 25.38 26.12 27.56 30.77 30.55 30.66 26.14 25.21 21.58 21.74 24.68 23.97 26.36 25.37 23.53 25.25 26.35 27.11 24.24 23.68 24.36 24.33 24.15 23.25 19.53 7.22 8.88 9.57 8.65 1.92 -0.57 -4.20 -1.84 -2.57 -1.48
27.87 27.21 27.53 27.16 24.11 22.68 23.91 28.50 27.47 26.59 24.10 25.31 24.23 29.48 28.05 22.71 21.70 22.94 22.55 24.97 23.69 22.24 18.46 24.06 26.53 25.20 25.60 23.86 23.28 23.82 24.14 24.32 24.35 12.39 12.42 5.23 1.96 4.96 2.48 -2.57 -2.39 -4.20 -5.83 -4.02
25.88 26.18 25.66 22.86 25.02 28.42 28.11 28.32 27.75 28.27 25.55 25.36 26.34 27.21 25.94 26.75 25.09 20.28 19.14 19.29 20.83 19.89 19.10 23.80 24.24 21.25 21.76 24.04 24.20 22.36 21.07 20.18 24.17 16.53 7.22 5.23 5.59 4.14 3.56 -2.21 -0.76 -0.21 -4.74 -5.29
27.49 28.06 28.70 27.93 28.11 29.60 28.62 28.40 29.14 30.94 30.64 30.34 23.96 24.40 25.02 24.09 23.38 24.53 26.57 26.77 20.81 21.24 22.82 24.51 24.77 23.19 19.99 16.48 21.66 23.62 23.42 18.57 17.84 17.07 13.49 13.17 9.44 12.61 11.00 7.47 3.20 5.08 4.63 2.07
25.12 23.19 25.60 27.96 28.03 26.35 27.92 30.90 30.64 31.45 32.08 31.83 31.07 22.77 25.37 28.11 27.33 26.65 26.17 25.51 24.30 24.05 17.98 22.95 22.77 23.80 24.12 18.45 11.70 12.44 14.19 19.28 16.44 16.72 15.43 15.04 10.82 11.70 13.09 11.82 10.21 8.85 3.37 2.87

GFSNGP_sfc_wetblb_018.txt.gz
Wetbulb
41.60 42.07 41.96 40.63 39.86 40.76 39.11 39.96 35.84 39.03 39.77 43.21 45.22 45.64 46.71 47.78 48.09 47.72 47.84 47.86 47.67 46.92 44.95 45.99 46.37 47.09 46.60 45.69 45.61 45.96 45.12 44.38 43.01 42.50 41.68 42.58 42.56 42.60 42.53 42.23 41.42 40.37 38.87 37.97
36.84 40.35 40.38 38.22 40.81 40.92 40.65 41.03 41.05 41.09 40.19 46.10 46.42 47.10 46.53 46.55 46.71 46.08 46.14 45.15 45.08 43.73 43.51 44.45 45.53 45.40 44.13 44.37 44.33 44.63 43.33 42.51 42.15 42.17 42.04 41.90 41.31 40.53 39.72 38.97 38.68 38.19 37.29 36.88
34.57 37.40 37.11 34.37 38.15 39.97 41.01 42.23 41.42 37.48 42.33 45.15 44.39 44.74 45.67 46.27 46.19 44.87 43.54 43.53 43.40 43.19 43.66 45.15 45.48 43.80 43.70 43.56 43.63 42.90 42.36 41.43 41.34 41.34 39.97 39.21 38.99 38.20 37.26 37.07 37.25 36.74 36.38 36.12
35.04 35.32 30.52 39.04 44.20 43.70 41.32 42.34 43.70 43.38 43.86 44.46 45.52 46.80 47.65 46.79 44.41 41.55 40.81 42.57 43.08 43.76 44.59 45.72 44.71 44.25 44.14 43.56 42.50 41.98 41.40 40.65 40.05 39.06 38.16 37.87 37.07 36.38 36.42 36.65 35.88 35.58 35.37 34.98
32.07 32.90 36.89 39.54 40.95 40.57 39.13 39.48 44.74 43.05 44.29 45.99 46.57 46.85 45.51 43.36 40.91 40.37 43.22 43.61 43.84 44.75 45.52 45.49 44.21 44.09 43.67 42.77 42.36 41.36 39.87 39.48 38.89 38.30 36.71 36.15 35.71 35.60 35.98 35.53 35.23 34.90 34.40 33.65
34.04 29.96 28.79 38.97 42.18 43.78 44.04 35.81 44.62 45.06 44.06 42.64 43.48 39.17 41.25 40.21 41.90 43.24 44.12 43.96 43.46 44.38 45.68 44.83 44.29 43.81 42.51 41.66 41.26 39.82 39.63 39.09 39.24 37.84 36.22 35.54 35.70 35.38 35.64 35.62 34.38 34.05 32.67 32.87
33.58 32.03 35.99 43.03 42.99 44.31 33.57 37.34 44.28 43.85 41.54 41.61 39.93 39.20 40.06 41.84 43.00 43.98 43.90 43.74 43.99 44.31 44.31 44.09 44.17 43.40 41.14 40.51 39.05 39.91 39.88 39.79 38.83 37.31 36.08 36.19 35.96 36.25 35.57 34.75 33.52 31.81 31.16 30.60
33.19 29.71 28.93 44.18 43.25 37.92 43.24 45.42 45.64 44.57 42.35 40.68 39.83 40.59 41.00 42.04 42.39 43.17 43.17 43.51 43.28 42.44 42.56 43.63 43.88 43.15 41.17 39.80 40.72 40.56 40.44 39.80 38.06 36.72 36.05 35.32 35.80 35.82 35.38 34.24 31.91 30.60 30.61 30.73
38.37 39.03 46.07 46.94 45.77 47.94 48.11 45.99 43.44 42.01 40.91 42.35 41.37 40.84 41.58 41.24 41.95 42.33 42.79 42.85 42.92 41.68 41.29 42.22 42.87 42.75 40.70 40.69 41.12 40.22 39.17 38.39 37.20 36.23 35.75 35.83 35.31 34.44 32.64 32.24 29.60 28.53 27.34 27.15
39.92 43.16 45.02 46.86 48.49 47.88 46.67 42.04 41.91 42.80 42.48 41.48 40.27 40.75 40.47 40.92 41.49 42.05 42.06 41.23 41.22 40.40 39.69 39.77 41.79 40.98 40.68 40.47 40.28 39.15 37.42 36.68 36.91 35.78 34.76 35.63 35.10 33.17 32.01 29.77 27.94 26.81 26.55 25.51
41.64 44.22 45.48 46.40 45.67 44.92 42.20 42.56 41.79 42.18 41.69 40.58 39.76 39.48 39.92 40.03 40.14 40.21 39.88 40.21 40.02 38.50 38.05 38.31 39.30 38.75 39.48 38.20 37.68 36.25 36.34 35.64 35.40 34.64 34.56 33.92 33.08 32.25 30.81 30.21 27.91 26.63 26.06 25.97
38.86 44.67 42.97 41.93 43.36 43.01 40.49 40.47 40.88 39.87 38.87 39.99 39.93 38.62 39.17 38.35 39.00 39.19 38.87 39.34 38.38 38.14 37.84 37.79 37.27 36.78 37.03 36.25 35.26 34.37 33.53 34.38 34.79 34.29 33.72 31.83 31.20 30.65 28.52 26.74 25.62 25.06 24.45 24.64
41.98 44.77 44.34 42.85 41.41 41.46 40.75 39.51 38.96 39.52 40.19 38.90 39.02 38.79 38.27 37.88 38.36 37.48 38.69 38.37 37.83 37.42 37.21 36.85 36.26 35.21 35.37 34.41 33.54 32.28 32.30 32.51 33.42 31.21 31.17 30.13 29.68 28.32 26.98 28.62 26.02 24.13 22.97 23.03
44.30 45.31 40.80 40.02 38.90 39.84 39.13 40.13 40.58 40.07 39.81 39.33 38.84 39.16 38.93 38.00 38.24 37.95 37.82 38.53 38.55 37.70 36.92 35.80 34.21 33.26 34.31 34.28 32.17 31.54 31.59 28.53 30.87 30.84 30.35 29.97 28.83 27.58 27.19 25.80 25.08 26.26 24.93 22.13
39.85 42.05 40.51 39.74 39.91 39.85 40.19 39.40 37.70 37.28 38.07 38.36 39.30 38.46 38.79 37.60 37.15 37.08 37.51 37.50 36.99 35.77 34.57 34.49 33.04 31.68 33.25 32.03 30.68 30.40 30.80 30.51 30.98 30.70 29.81 28.56 28.46 27.50 26.66 25.83 25.87 25.39 25.41 23.76
38.69 39.62 38.92 37.24 37.32 37.19 36.89 36.56 35.80 35.94 36.82 36.93 36.66 36.28 37.04 37.18 36.66 36.18 34.54 33.45 31.34 31.10 31.28 30.74 30.43 31.36 31.01 31.50 31.40 30.80 29.94 28.52 28.97 29.08 28.69 28.16 27.51 26.49 25.84 25.47 25.63 24.78 24.00 22.08
36.16 35.23 35.49 34.77 34.87 35.16 35.49 36.45 36.09 35.61 35.58 35.33 35.05 35.43 34.96 34.04 33.30 32.65 33.60 32.97 32.03 31.14 30.48 30.27 31.18 31.95 30.28 31.27 30.61 30.12 29.97 29.95 27.89 29.11 28.09 27.57 26.78 26.19 25.76 25.31 24.94 24.32 23.89 22.04
37.57 37.02 36.60 36.20 35.14 35.31 35.24 35.49 35.18 34.75 34.40 34.90 33.27 32.19 31.35 31.49 32.29 32.46 33.30 33.13 32.07 31.10 30.95 31.51 31.43 30.41 29.83 30.54 30.18 29.96 30.22 29.93 29.77 28.74 28.02 27.68 27.20 26.58 25.81 24.92 24.88 23.80 23.83 23.18
36.48 35.86 36.40 36.08 36.62 35.70 34.94 34.61 34.61 34.02 32.65 32.84 32.19 31.38 31.68 31.37 32.37 33.84 33.63 31.89 31.35 29.76 31.76 31.54 28.96 29.39 29.60 29.73 29.67 29.93 29.19 29.51 29.19 28.39 28.89 27.01 27.45 26.52 25.87 25.45 25.00 24.47 23.62 23.15
35.59 36.52 36.78 36.38 35.93 33.72 32.86 33.58 33.24 33.43 33.51 33.03 31.77 31.08 31.12 31.50 32.80 32.93 33.34 32.24 33.10 32.92 32.51 31.19 30.24 30.39 30.36 29.85 28.57 28.87 28.70 29.28 28.86 28.85 29.28 27.90 26.97 26.77 26.28 24.39 24.18 24.45 24.14 23.54
34.03 34.80 34.44 33.77 33.28 33.19 32.00 32.22 31.47 31.32 32.69 31.91 30.64 30.32 30.31 31.28 32.41 33.16 32.22 32.03 34.26 32.56 32.22 30.43 30.83 31.35 31.48 30.03 29.54 30.51 30.25 29.83 30.07 29.63 29.29 28.37 27.18 26.72 26.35 25.73 24.99 24.67 24.16 23.63
34.17 34.10 33.21 32.67 32.44 32.60 34.00 34.51 33.77 32.29 31.62 31.25 31.13 30.93 30.41 30.64 32.67 33.24 33.70 32.74 34.57 30.79 32.60 32.12 32.72 30.95 30.88 29.47 30.30 31.41 29.81 29.82 29.74 29.81 29.32 29.17 27.59 26.53 26.10 26.15 25.00 24.71 24.23 23.77
33.68 33.62 33.49 32.73 32.01 33.13 33.47 32.82 32.39 32.25 31.55 31.30 31.43 31.59 31.61 32.33 32.46 31.73 31.34 34.95 34.47 33.11 33.58 33.94 32.01 29.90 29.94 32.25 31.88 31.53 30.98 30.06 30.01 30.05 29.94 28.94 27.62 26.79 26.20 25.80 25.43 24.71 24.49 24.02
33.98 34.10 33.83 33.97 33.66 32.14 32.18 33.47 32.86 32.75 32.70 32.79 32.16 32.50 32.61 32.98 33.55 36.02 34.68 32.15 29.44 30.46 32.84 34.02 31.57 30.17 29.55 32.62 31.71 31.35 30.53 29.66 29.82 30.26 30.37 27.97 28.46 27.50 26.76 25.92 25.24 25.04 24.50 22.66
34.15 33.50 33.25 32.44 32.68 34.36 33.67 33.59 32.22 33.04 33.34 32.93 33.14 33.75 34.89 35.08 32.07 33.79 33.89 32.96 30.58 30.61 32.77 31.13 29.08 29.86 30.91 31.17 30.99 30.56 29.50 28.53 29.51 29.34 29.10 29.42 29.22 28.31 27.63 26.80 25.86 25.34 24.80 24.13
34.09 34.84 35.52 34.38 34.36 34.36 34.11 33.92 31.72 32.59 33.01 32.07 32.25 33.16 33.10 33.70 34.61 33.02 33.13 32.74 33.30 31.63 32.80 32.80 32.07 32.07 31.53 31.18 30.35 29.74 29.31 28.77 28.14 27.79 27.67 27.89 28.55 28.37 28.05 27.39 26.51 25.79 25.24 24.82
34.94 32.36 33.81 34.93 36.20 35.58 34.80 32.89 31.29 31.35 32.23 32.01 31.23 33.40 33.10 33.34 33.15 32.60 31.99 32.62 32.62 32.44 32.44 32.80 32.62 30.77 31.11 31.30 29.95 29.62 28.85 28.94 27.48 26.98 26.88 26.97 27.28 27.45 27.21 27.30 27.61 27.26 25.97 24.87

GFSNGP_sfc_wetblb_021.txt.gz
Wetbulb
43.68 43.81 43.24 42.30 41.86 42.52 40.99 41.69 37.58 40.35 41.37 44.89 46.62 46.90 47.94 49.59 49.62 49.03 48.58 48.64 49.26 48.28 48.33 47.67 46.86 47.61 47.86 46.90 46.71 46.18 45.20 44.84 44.57 43.96 43.25 42.62 42.73 42.18 41.72 41.52 40.51 40.02 39.46 39.23
39.05 42.86 42.52 40.18 42.26 42.70 42.59 42.53 42.72 42.51 41.86 47.68 48.53 49.01 48.17 47.95 47.76 46.72 47.64 47.85 46.27 45.31 46.14 45.55 45.95 46.92 46.18 45.86 45.37 45.31 44.31 43.84 44.15 43.22 41.85 41.50 41.05 40.63 40.27 39.23 39.04 38.97 38.32 38.09
35.72 40.88 39.59 35.99 40.50 41.58 42.41 43.95 43.02 38.84 43.78 47.36 46.52 46.32 45.59 45.57 46.15 47.11 46.31 44.34 42.94 44.17 45.29 45.61 46.48 46.55 45.20 45.38 45.55 44.33 43.54 43.64 42.67 41.30 40.41 40.05 39.84 38.93 38.16 38.07 38.28 37.56 37.50 37.38
36.06 35.88 31.30 42.16 46.36 45.55 43.16 43.72 45.25 45.09 45.61 46.76 46.14 47.02 48.18 47.23 45.08 44.88 43.79 43.86 45.20 45.47 45.40 45.82 46.62 46.79 46.07 45.23 44.65 43.90 43.41 42.78 41.86 40.84 39.42 39.50 38.63 37.91 37.63 37.68 37.07 36.76 36.60 36.41
34.45 34.92 38.43 41.29 42.82 42.39 40.79 40.65 46.16 45.24 46.34 46.91 47.36 46.96 46.22 45.66 45.82 45.75 45.68 45.85 45.79 45.80 45.29 45.37 45.91 46.41 45.39 44.36 44.04 42.92 42.08 41.43 41.23 39.97 39.64 38.85 37.35 37.23 37.42 37.03 36.61 36.32 36.10 35.09
35.87 31.84 30.14 40.73 45.04 46.09 45.87 36.97 46.98 46.53 45.66 45.18 45.23 38.80 41.63 43.02 45.29 45.53 45.68 46.21 45.28 45.53 45.06 45.01 44.95 45.05 44.35 43.37 43.13 41.82 41.49 41.25 40.74 40.08 39.05 38.10 37.49 37.16 37.35 36.98 36.12 35.69 34.43 33.63
34.92 33.44 37.34 44.62 45.59 47.06 35.16 38.55 46.91 46.28 43.98 42.81 40.30 41.85 43.67 44.17 44.86 45.47 45.40 45.26 45.55 45.24 44.34 44.27 44.48 44.11 42.60 42.30 41.53 42.26 42.37 41.72 41.08 40.45 39.11 38.36 37.45 37.70 36.83 36.36 36.03 34.69 33.48 33.43
36.00 31.82 30.03 46.76 45.23 38.93 44.78 47.33 46.02 45.42 43.47 40.54 42.39 43.28 43.51 43.87 43.74 43.84 43.67 44.13 44.64 43.78 43.34 43.65 43.55 42.50 41.34 41.03 42.30 43.14 42.74 41.49 40.66 39.50 38.24 37.68 37.02 36.90 36.33 35.44 34.03 32.84 32.26 31.75
40.46 40.45 47.68 47.90 46.56 48.83 48.55 47.26 46.09 43.82 42.93 43.72 42.92 42.41 42.64 42.30 42.45 42.84 43.06 43.14 43.39 42.30 41.73 41.90 41.80 41.43 39.73 40.63 41.67 40.85 40.67 39.60 39.22 38.83 37.57 37.66 36.43 35.59 34.49 34.11 32.51 30.02 28.52 28.80
42.48 45.07 45.57 47.04 48.48 47.89 47.76 45.49 44.51 43.66 44.55 43.65 41.88 41.55 41.35 41.60 41.30 40.92 41.12 40.74 41.34 40.82 39.90 39.41 40.48 40.34 39.88 40.16 39.34 38.10 36.84 37.24 38.00 37.02 36.28 36.95 36.16 35.51 33.80 32.35 29.69 28.13 27.34 26.61
43.49 45.94 46.08 47.11 45.38 44.86 44.84 44.55 44.70 43.87 43.39 42.40 41.22 41.04 40.67 39.70 39.70 39.85 39.81 40.24 40.21 39.51 39.12 39.15 39.75 39.40 39.91 38.54 37.93 35.84 35.92 35.96 35.98 36.24 35.77 34.76 34.39 34.36 32.41 32.17 29.47 27.61 26.77 25.87
39.68 45.76 43.26 43.34 44.01 44.51 44.31 43.23 43.03 41.70 41.07 42.21 41.79 39.90 40.03 39.50 39.94 39.75 39.27 39.61 39.52 39.40 39.19 39.17 39.20 38.61 37.46 37.67 36.63 35.05 33.44 33.98 34.71 35.13 34.34 32.63 32.21 31.48 29.25 28.05 26.51 25.72 24.28 24.58
46.18 47.02 46.45 44.38 44.38 45.20 43.46 41.88 41.69 41.79 41.63 39.96 40.81 40.49 40.16 39.41 39.82 38.51 39.93 39.45 38.86 38.64 39.01 38.89 37.61 36.00 36.23 36.39 35.14 32.63 31.64 31.81 32.20 32.04 31.88 30.47 30.16 29.44 27.76 29.81 28.08 27.09 24.19 23.44
47.03 45.69 41.20 42.79 42.90 43.48 41.73 42.38 42.48 41.49 40.99 40.39 40.03 40.26 39.65 38.57 38.69 38.33 38.06 38.85 39.21 38.58 38.02 36.58 35.60 34.81 36.11 35.21 34.11 32.48 31.87 30.13 31.08 31.20 30.51 30.45 29.36 28.41 28.43 27.25 26.16 27.95 26.36 23.98
43.23 44.04 43.98 43.72 42.49 42.08 41.93 40.71 38.77 38.52 39.01 38.52 38.93 38.04 37.89 37.05 36.90 37.69 38.95 39.16 37.99 35.17 35.05 35.60 34.29 34.10 34.88 33.88 32.03 31.70 30.83 31.16 31.50 30.94 30.63 29.86 29.88 29.29 28.83 27.72 27.01 27.49 27.76 27.15
42.89 42.66 41.82 39.93 39.28 39.02 38.84 38.61 37.52 37.19 37.30 37.00 36.98 36.89 37.55 37.30 37.30 37.44 37.92 37.67 33.98 32.52 32.09 32.17 30.60 32.51 33.49 33.37 32.77 32.90 32.25 29.76 29.71 29.99 30.07 29.90 28.61 27.63 27.48 26.79 26.87 26.74 26.29 25.32
39.65 38.14 38.29 36.66 37.23 37.50 37.35 38.10 37.45 36.54 36.53 36.27 35.96 35.92 34.94 34.25 33.98 35.09 35.34 35.39 35.00 33.03 33.03 32.19 31.05 33.71 32.71 32.54 32.29 31.10 30.68 30.66 29.99 29.73 29.91 28.99 28.32 28.25 27.51 26.80 26.52 26.04 26.49 25.08
40.62 39.13 38.67 37.92 37.11 37.13 37.10 37.14 36.46 36.03 35.62 36.06 34.38 33.08 32.44 32.04 32.20 32.65 32.80 33.69 33.94 33.03 34.06 32.74 31.96 32.33 31.74 32.22 31.44 30.65 29.60 30.00 29.63 30.09 29.91 29.42 28.84 27.83 27.44 27.10 26.34 26.30 26.25 25.93
38.50 37.70 38.24 38.01 38.38 37.55 36.63 36.00 35.98 35.55 34.32 34.46 33.62 32.46 32.72 32.55 33.26 33.37 33.87 33.15 32.67 32.49 34.71 34.53 30.68 29.37 31.08 30.90 29.56 30.55 30.14 29.55 29.43 29.64 30.33 29.16 29.21 28.88 28.01 27.99 27.08 26.94 26.30 25.31
36.95 37.94 38.23 37.83 37.57 35.75 35.11 35.61 35.16 35.02 35.51 34.80 33.41 32.33 32.03 31.89 32.18 31.33 32.46 31.92 32.98 35.53 35.04 33.74 31.17 31.14 31.33 30.75 28.94 30.11 29.98 29.91 28.98 29.98 30.70 30.23 29.62 29.36 28.20 27.37 27.42 26.88 26.86 25.83
35.21 36.21 35.82 36.26 35.86 36.21 34.12 34.04 33.20 33.26 34.90 33.70 32.31 31.36 30.63 31.01 31.79 32.34 31.98 32.45 34.71 34.29 33.79 32.32 31.79 33.03 32.91 31.41 30.25 31.84 31.35 30.37 30.17 30.40 30.31 30.58 30.10 29.05 28.58 28.36 28.48 27.81 26.95 26.18
36.21 35.82 35.16 35.21 34.95 34.67 36.01 36.08 35.91 34.30 33.37 32.84 32.51 31.93 32.16 32.47 32.66 33.01 34.09 33.67 36.43 32.31 33.59 33.59 33.51 32.18 32.56 29.45 31.33 32.81 31.01 30.32 30.34 30.77 30.51 30.84 30.30 29.18 27.99 27.89 27.71 27.29 27.10 26.32
35.31 35.15 35.50 35.15 33.91 35.18 36.00 34.78 33.58 32.85 32.49 32.88 32.30 32.46 32.72 33.26 33.76 32.22 31.86 35.78 35.59 34.75 33.89 34.47 33.05 30.83 30.06 31.57 31.93 32.31 31.63 31.72 31.09 30.92 31.32 31.46 30.52 29.01 27.91 27.25 27.52 27.10 26.60 26.53
35.54 35.75 35.86 36.30 35.90 34.81 33.29 35.92 36.27 35.87 33.91 33.47 33.40 33.76 33.69 32.23 33.73 34.82 36.65 34.42 32.03 31.21 32.58 34.47 32.49 30.47 30.37 31.40 31.04 31.76 31.76 31.58 31.51 31.58 30.86 30.23 31.58 30.51 28.98 27.86 26.95 27.11 27.26 26.31
35.84 35.70 35.34 35.00 34.46 35.37 36.18 36.74 36.05 36.13 35.38 34.95 35.66 35.91 34.94 34.71 33.03 33.05 33.94 33.76 32.34 32.18 33.94 32.37 30.80 30.29 31.72 31.95 31.22 31.76 31.95 31.95 30.77 30.32 29.14 29.03 30.42 30.88 31.03 29.92 28.68 27.61 27.00 27.07
35.44 35.82 36.51 36.52 36.86 37.10 37.04 36.93 36.01 35.37 33.69 34.01 35.37 35.31 35.21 35.03 34.72 33.89 34.30 33.32 34.01 33.35 33.67 33.21 31.58 31.58 31.58 31.95 31.95 31.95 31.61 30.50 29.76 28.95 28.72 27.93 28.22 28.52 29.54 29.97 29.65 28.94 27.63 27.06
36.70 34.14 36.74 37.00 37.48 37.52 37.62 36.53 34.02 33.13 33.25 32.84 32.36 34.09 34.44 34.30 34.09 33.17 33.05 33.03 32.85 33.21 33.03 32.67 32.49 31.93 32.03 31.95 32.13 32.04 31.49 30.88 29.49 28.88 27.96 27.12 27.10 27.50 27.59 27.91 28.24 29.24 29.25 28.15

GFSNGP_sfc_wetblb_024.txt.gz
Wetbulb
43.44 43.12 42.87 41.82 41.44 42.15 40.58 41.26 36.13 39.46 40.04 43.72 45.91 46.61 47.50 47.72 48.20 47.93 48.02 48.68 47.42 46.74 46.73 46.59 46.28 46.30 46.67 46.95 45.78 45.80 43.96 43.46 42.77 43.34 42.49 41.66 41.26 41.26 40.72 40.27 38.72 37.93 37.13 36.89
39.47 42.81 41.98 39.24 41.35 41.87 42.07 42.07 41.76 41.73 41.14 47.08 48.33 47.81 47.12 47.37 47.40 46.76 46.58 46.45 45.84 45.17 45.75 45.67 45.80 45.43 46.42 45.74 45.14 45.27 43.69 42.82 43.39 42.91 41.87 41.05 40.70 40.37 39.11 37.65 36.94 36.65 35.86 35.69
35.96 39.57 38.75 36.23 40.91 41.81 42.44 43.61 42.76 38.30 43.25 46.80 45.43 45.63 45.72 45.73 46.18 45.38 45.16 44.53 44.80 45.08 45.76 45.24 45.01 45.23 44.36 45.27 45.42 44.28 43.45 43.51 43.40 42.64 41.24 40.21 39.81 39.00 36.65 35.67 35.57 34.88 34.63 34.62
35.09 35.61 29.78 41.66 45.67 45.28 42.94 43.71 44.63 44.52 45.34 45.95 45.35 45.97 46.68 46.41 44.90 44.36 44.54 44.70 45.32 45.47 45.00 44.86 44.43 44.30 45.04 45.37 44.59 43.94 43.06 42.27 42.57 41.93 40.33 39.50 38.93 37.32 35.85 35.18 34.18 33.68 33.68 33.89
35.00 34.15 37.57 40.81 43.61 42.47 40.33 39.78 45.61 45.17 45.23 45.47 45.95 45.00 44.40 45.85 44.87 44.18 44.88 45.23 44.87 45.18 44.96 44.80 44.39 44.16 43.20 42.57 42.49 42.55 42.37 41.49 40.56 40.98 39.67 39.09 37.85 35.71 34.97 34.35 33.64 33.41 34.06 32.39
35.48 30.18 28.75 41.09 45.06 47.00 45.69 35.51 46.30 45.68 44.47 43.63 43.02 36.19 39.59 44.30 44.62 44.45 44.89 44.82 44.27 44.86 44.67 44.30 43.71 43.24 41.71 40.83 40.69 40.68 40.92 41.35 41.20 40.95 39.57 38.14 37.36 35.78 35.07 34.91 34.30 33.76 32.04 31.81
34.24 31.77 36.21 44.06 46.30 47.02 34.12 37.37 45.75 45.20 43.99 42.27 39.67 41.01 43.39 44.73 44.36 44.41 43.94 43.63 43.76 43.23 42.38 42.27 42.59 41.70 39.60 39.30 38.61 39.98 40.97 41.25 40.90 41.09 39.08 37.97 36.96 36.09 35.24 33.34 31.39 30.87 30.26 30.12
34.93 32.78 29.64 46.87 45.47 38.23 44.07 47.15 45.95 44.85 44.03 42.11 42.72 43.56 43.47 42.80 42.21 42.42 41.76 41.45 41.57 40.45 40.27 41.42 41.24 40.21 38.58 37.64 39.18 39.94 39.52 38.98 38.82 39.58 38.70 37.77 35.81 34.85 34.20 31.69 30.11 29.03 25.96 27.15
39.46 38.71 46.98 47.90 46.85 48.06 47.72 45.15 44.07 43.90 44.17 43.44 42.91 41.70 41.39 40.85 41.34 40.54 40.40 39.99 40.36 39.46 39.13 39.94 40.47 39.98 38.00 38.47 39.07 38.47 37.36 36.90 36.80 38.06 38.01 37.32 35.14 33.75 30.55 30.35 28.11 26.85 26.68 25.79
43.16 45.04 45.98 46.90 47.75 47.02 46.06 44.11 44.63 45.14 44.03 43.10 41.13 40.75 40.59 40.23 39.64 39.57 39.71 39.34 39.61 38.90 38.37 38.70 39.93 39.95 38.99 38.73 38.19 37.04 35.34 34.88 35.44 35.15 35.40 35.36 34.08 32.82 30.08 28.28 26.98 28.13 26.01 23.85
43.58 46.08 46.90 46.29 46.34 45.63 45.36 45.36 44.67 44.37 43.22 41.64 41.18 40.15 39.56 39.20 39.10 39.43 39.33 39.37 39.26 38.80 38.15 37.95 38.93 38.88 38.87 38.04 37.21 35.12 34.12 33.84 32.99 33.14 33.36 32.13 31.49 30.38 29.22 28.36 26.68 24.85 23.82 22.96
40.64 46.31 45.66 45.04 45.30 45.71 44.29 43.90 43.24 41.23 40.82 41.74 40.58 39.17 39.47 38.78 39.18 38.82 37.78 38.44 38.13 38.27 37.91 37.83 38.12 37.44 37.29 37.18 36.00 33.58 30.97 30.84 31.08 31.13 31.59 30.41 29.64 29.59 30.58 28.85 28.05 27.42 25.91 22.31
45.63 47.59 46.70 46.51 45.50 46.09 43.92 43.15 41.91 41.32 41.07 39.11 39.79 39.30 38.68 37.36 37.69 36.71 37.92 37.87 37.74 37.71 38.04 37.01 36.42 36.03 36.58 35.19 33.44 31.84 30.46 30.30 29.75 29.61 30.15 29.95 30.01 29.03 27.01 29.79 29.88 29.43 27.42 25.65
48.09 46.28 42.48 43.65 42.44 44.58 42.55 42.33 42.26 40.50 40.17 39.74 39.07 38.43 37.69 36.97 37.17 36.92 36.64 37.53 38.17 37.89 37.06 35.48 35.10 34.29 35.67 35.38 32.81 30.70 30.22 29.64 30.64 30.70 30.43 29.71 28.77 27.95 28.22 27.27 25.53 25.94 28.21 26.16
45.69 46.67 45.27 45.00 43.74 42.54 42.03 40.12 38.47 37.91 38.23 37.52 37.68 37.02 36.59 35.69 35.14 35.67 36.71 37.19 37.17 36.40 35.86 35.18 33.26 32.94 33.64 33.09 31.44 30.60 30.01 29.07 30.64 30.49 30.37 29.28 28.88 28.93 27.98 27.43 26.43 26.13 25.87 24.79
44.24 43.54 42.89 41.44 40.31 39.32 38.64 38.08 37.12 36.66 36.45 36.16 36.18 35.60 35.90 35.25 35.02 34.84 35.42 34.42 32.06 31.17 33.29 33.33 31.98 32.16 32.70 32.51 31.44 30.79 30.53 28.52 28.65 29.19 29.34 29.39 28.52 27.52 26.92 26.98 26.36 25.75 24.62 22.59
40.57 39.15 39.39 37.49 37.30 37.38 37.19 37.99 37.15 35.95 35.65 35.00 34.80 33.88 33.54 32.84 32.33 32.35 32.78 32.52 32.42 32.45 33.06 33.33 32.49 32.39 32.61 32.48 30.90 30.39 29.71 29.80 29.44 29.26 28.64 29.22 28.04 27.89 27.38 27.00 26.20 25.55 24.98 20.66
42.20 40.82 39.49 38.24 37.03 37.07 37.67 37.08 35.67 35.29 34.63 35.12 32.03 29.39 28.47 28.01 30.25 30.65 31.46 31.87 31.91 32.30 33.12 33.71 32.89 31.76 31.25 31.44 30.17 29.52 29.16 28.77 29.47 29.40 29.66 28.81 28.86 27.83 27.23 27.23 26.71 25.83 25.63 22.81
39.54 38.38 38.37 38.12 38.17 37.42 36.33 35.37 34.74 34.12 31.44 31.44 30.77 31.12 30.40 29.65 31.22 30.88 31.03 30.75 30.52 30.50 32.77 33.29 31.40 30.18 30.26 30.18 29.96 28.63 29.81 29.42 28.69 27.88 29.03 29.51 28.53 28.37 28.15 27.89 27.47 25.23 24.93 24.43
37.20 37.81 37.85 37.13 36.28 34.92 33.65 34.44 32.65 33.84 34.42 32.60 28.99 30.32 30.59 30.63 30.89 31.25 31.23 29.93 31.23 32.71 34.29 32.90 31.33 29.48 29.31 29.33 27.25 28.73 29.02 29.13 28.47 28.34 29.25 29.04 29.29 28.95 28.86 27.45 26.87 26.88 26.47 25.90
35.08 35.86 34.13 34.83 34.55 33.37 32.72 32.30 30.50 32.05 33.52 30.10 29.87 30.04 29.83 30.51 31.83 32.06 31.33 29.74 32.22 32.67 34.33 32.59 31.48 30.82 31.67 30.85 30.31 29.37 29.06 29.85 29.34 28.95 29.17 29.39 29.19 29.03 28.67 28.55 28.09 27.94 27.38 26.61
35.85 33.89 31.52 32.39 33.05 33.56 34.11 34.43 34.67 32.21 31.42 30.61 29.53 29.86 30.00 30.53 31.90 31.67 32.78 32.29 34.53 33.63 33.20 32.85 31.90 31.10 31.50 26.53 29.34 30.27 29.13 30.09 29.60 28.82 29.14 29.30 29.15 28.71 28.25 27.80 27.03 27.21 27.47 26.34
34.66 34.15 33.43 32.57 31.62 34.19 34.83 33.98 32.31 32.79 32.21 32.27 30.88 31.17 31.82 31.85 32.06 30.80 29.86 33.37 34.66 33.65 33.03 33.52 32.87 32.08 31.05 30.30 30.11 29.64 28.91 28.59 29.40 29.38 29.22 29.64 29.33 29.10 27.83 27.79 27.51 27.20 26.35 25.98
35.01 34.74 34.50 34.23 33.39 33.55 32.62 34.41 34.67 34.58 32.82 32.52 32.23 33.14 32.66 32.37 32.56 33.50 34.43 32.95 33.15 32.63 32.23 32.57 32.60 31.61 30.64 30.90 29.91 29.34 28.94 29.10 30.02 30.13 29.49 28.73 29.37 29.81 29.51 27.63 25.09 27.67 27.20 26.68
33.65 34.14 34.04 32.58 33.29 34.00 34.87 35.76 35.04 34.48 33.89 34.59 33.39 33.68 34.14 34.29 32.67 32.84 33.85 33.23 32.81 32.29 32.64 32.64 31.51 30.38 31.19 30.51 29.90 29.59 28.89 29.63 30.32 29.87 29.21 28.84 27.77 28.13 28.54 28.97 29.00 28.12 26.05 25.76
34.61 34.89 35.46 35.19 34.95 35.64 36.32 36.29 35.09 35.78 34.82 32.84 33.08 33.38 33.92 34.09 34.27 33.89 33.84 32.97 33.23 32.94 32.88 32.64 32.64 32.19 31.26 30.39 30.47 30.04 30.25 30.13 29.38 29.36 28.97 28.38 27.90 26.85 27.12 27.44 28.18 28.66 28.81 26.92
35.76 33.62 35.71 35.99 37.03 36.81 36.61 35.97 35.71 34.60 33.87 32.84 31.84 32.71 32.52 32.43 32.65 33.02 32.81 33.20 32.97 32.75 32.81 32.81 32.64 32.07 31.56 31.23 30.59 30.60 30.88 30.80 29.66 29.06 28.82 28.01 25.88 26.75 26.53 26.79 26.96 26.88 27.24 27.83

GFSNGP_sfc_wetblb_027.txt.gz
Wetbulb
40.00 40.00 39.97 38.63 38.11 38.51 36.98 36.51 29.87 33.35 37.19 41.66 41.63 42.21 43.17 44.24 45.14 44.42 44.21 43.61 43.13 42.15 42.08 42.82 41.80 41.58 42.16 42.62 43.03 42.29 40.76 41.21 39.55 40.34 39.35 39.26 39.05 38.26 38.17 37.40 35.84 34.70 34.31 33.91
32.65 39.56 38.88 35.50 37.76 38.62 38.87 39.14 37.89 38.04 37.15 44.00 44.43 44.06 42.91 43.40 43.55 42.83 42.86 43.08 42.85 42.85 43.29 43.08 41.71 41.21 41.50 41.20 41.92 42.33 40.96 40.45 41.19 40.05 40.32 39.21 37.97 37.67 37.58 34.68 33.59 33.29 32.62 32.67
27.89 35.57 33.58 27.91 35.32 39.15 39.55 40.24 38.42 31.95 38.36 42.28 40.83 41.07 41.09 41.08 41.99 41.57 42.10 41.65 41.69 42.56 43.16 41.72 40.54 40.94 39.19 39.66 41.14 41.13 40.83 41.32 40.05 40.61 39.52 40.12 39.70 38.55 36.08 32.33 31.79 31.57 31.67 32.63
23.76 26.97 17.62 37.96 42.59 41.88 40.07 40.69 41.24 41.38 41.60 41.97 40.71 41.10 42.20 41.68 40.12 40.32 41.01 41.77 42.11 41.80 41.04 40.68 40.33 39.61 38.96 39.08 38.58 38.86 39.01 39.02 40.02 39.65 38.90 39.08 39.41 37.58 33.69 32.84 30.65 30.23 31.12 31.49
27.09 25.74 31.56 37.44 41.26 39.16 36.03 36.41 42.90 41.49 41.63 41.13 41.14 41.26 40.94 42.14 40.91 40.29 41.16 41.58 41.10 39.94 39.68 39.01 38.45 38.70 37.79 36.91 36.57 36.61 37.68 38.24 38.84 38.79 39.12 38.93 35.69 35.07 34.49 33.05 31.24 30.68 31.62 29.83
23.45 22.12 17.27 33.55 42.05 44.58 42.67 28.54 42.60 42.42 40.58 39.64 39.13 29.65 34.66 40.69 41.39 42.22 41.35 39.53 37.88 37.44 37.51 36.82 36.86 37.10 35.96 34.76 34.67 35.10 36.98 37.18 38.08 38.77 37.58 35.87 34.98 35.17 34.88 32.79 32.13 31.48 29.76 29.23
22.28 21.52 28.59 40.05 43.59 44.74 29.01 30.62 42.05 41.84 40.56 38.86 35.41 36.49 39.78 41.82 40.60 39.59 38.85 37.21 37.14 36.21 34.91 35.18 36.63 36.38 34.88 33.70 33.38 35.82 36.94 36.60 36.77 37.43 37.07 37.61 35.52 33.93 31.69 30.76 29.48 26.43 26.01 26.75
29.87 28.32 22.11 43.83 43.03 33.64 37.77 42.28 41.86 40.54 40.49 39.17 39.55 41.44 40.59 38.98 38.95 38.17 35.83 36.09 36.62 34.71 34.65 35.41 36.64 35.64 34.26 33.02 35.08 36.36 35.70 35.20 34.53 34.78 36.44 36.64 34.77 32.80 32.97 28.31 26.41 24.43 16.59 19.18
32.33 30.70 40.01 43.47 42.26 44.35 44.12 41.51 41.17 40.43 41.80 41.83 41.04 38.22 37.98 37.74 36.84 36.16 36.19 35.36 36.14 34.36 34.81 35.70 35.93 35.84 34.60 34.75 35.22 34.67 33.44 32.61 32.49 33.26 34.06 34.55 33.90 33.38 27.50 25.96 21.97 22.06 23.24 17.34
36.10 40.98 42.27 43.51 44.07 43.84 43.47 42.67 42.95 42.96 44.12 41.87 37.39 37.71 36.77 35.46 34.91 35.02 34.97 34.59 34.97 34.44 33.90 34.03 35.29 35.84 34.38 34.94 34.74 33.28 31.43 31.10 31.35 30.78 31.56 31.95 31.67 28.86 26.00 21.47 19.89 23.72 20.73 18.40
36.00 41.00 43.40 44.88 44.21 43.19 42.98 44.11 43.92 43.77 40.18 38.71 37.62 36.20 35.08 34.55 34.10 33.72 33.44 33.88 34.34 33.78 34.05 33.83 34.91 34.85 34.70 34.44 33.94 32.03 30.58 30.07 28.55 28.09 28.38 28.73 28.71 26.32 25.64 23.95 22.80 19.99 18.76 18.56
31.33 42.09 41.27 41.47 42.92 44.23 42.85 42.85 41.45 38.93 38.27 38.50 36.16 34.90 34.56 33.04 33.11 32.91 33.02 34.05 34.25 34.42 34.63 34.03 33.91 33.87 34.23 33.65 32.51 30.33 28.87 27.85 26.05 25.28 24.26 26.65 26.42 26.73 30.24 28.56 29.56 29.25 27.63 18.88
42.01 44.75 43.96 43.27 44.25 45.68 43.77 40.71 40.00 38.96 37.90 35.29 35.30 34.14 33.57 32.44 32.97 33.42 33.89 33.86 33.94 34.03 34.94 33.65 32.67 33.18 34.85 32.09 31.17 29.86 27.86 28.24 25.33 28.39 27.00 23.52 24.74 25.41 24.85 25.58 29.94 30.38 30.18 27.59
45.49 44.01 40.62 43.02 40.74 43.10 41.26 40.48 39.62 37.59 36.56 35.51 34.32 34.30 33.81 33.08 33.07 32.70 32.72 33.44 34.28 34.02 33.18 32.80 32.88 32.54 32.33 31.26 32.20 29.67 26.49 25.04 23.31 27.38 28.06 27.71 25.82 26.19 26.53 25.67 16.93 21.05 25.71 27.93
44.52 45.51 43.49 43.54 43.45 40.66 38.70 37.18 35.51 34.41 33.96 33.26 33.92 33.34 33.14 32.19 31.46 31.93 32.88 33.52 32.24 31.54 31.06 31.23 31.47 32.19 33.64 31.73 30.85 29.20 27.74 24.77 24.22 25.85 26.68 27.04 26.66 26.27 25.83 25.04 23.44 22.81 21.80 22.96
43.46 44.31 43.81 42.65 38.01 36.45 35.82 35.14 33.61 32.56 32.78 32.51 31.86 30.82 32.63 32.17 31.70 31.91 32.09 30.57 28.67 29.16 30.66 30.76 31.03 33.19 32.27 31.67 31.20 28.73 26.53 25.20 24.25 22.72 26.63 26.83 26.52 24.64 25.04 24.78 24.78 23.52 17.32 15.40
39.34 37.72 37.06 35.92 34.57 34.47 34.62 34.50 33.39 32.44 32.31 30.52 30.51 30.43 30.03 29.37 28.18 28.98 29.02 30.82 30.33 30.71 31.29 31.39 31.55 34.30 31.87 31.77 30.86 25.57 23.45 26.14 26.42 27.98 27.18 25.61 26.03 24.85 25.09 24.61 23.98 20.43 18.07 15.87
39.09 38.16 37.60 36.19 34.19 33.95 33.59 32.10 30.90 30.26 30.42 30.77 26.65 20.79 19.18 18.11 25.85 28.14 26.30 26.16 25.52 28.57 30.41 31.39 31.95 33.29 31.20 30.45 29.57 24.77 23.91 23.27 23.45 26.26 23.99 22.24 25.69 26.01 23.39 22.36 24.01 22.63 18.99 16.74
38.40 37.00 36.09 35.98 34.96 32.34 31.28 30.67 30.93 30.58 25.96 24.31 22.09 22.93 22.15 23.05 27.01 27.36 26.04 28.93 29.54 28.96 29.21 30.36 32.63 31.44 30.34 28.05 25.44 23.16 18.97 18.17 26.12 26.29 26.14 20.08 24.76 25.12 25.47 19.42 23.49 24.46 20.85 15.49
34.72 35.57 34.86 34.31 33.72 30.81 29.02 30.74 26.80 29.76 30.71 26.28 20.18 20.45 24.16 23.00 23.13 22.34 24.37 29.58 30.58 30.52 29.87 32.65 33.03 29.91 28.92 26.63 24.68 22.46 18.17 18.19 24.45 25.83 24.39 23.21 21.84 24.25 24.26 24.64 23.05 19.69 22.03 21.29
30.85 31.26 30.49 29.69 29.48 28.47 27.92 27.00 24.19 28.16 29.82 24.21 22.92 26.23 24.94 24.22 23.54 24.63 29.01 28.82 29.29 27.29 32.28 32.37 31.65 30.42 29.45 25.83 26.15 22.26 19.53 16.68 18.87 26.48 20.54 21.61 23.35 22.92 24.33 24.04 23.14 20.80 17.03 21.57
31.18 30.06 26.34 26.96 28.11 29.73 29.95 30.06 30.39 27.50 27.78 24.83 24.21 23.34 21.95 24.61 24.35 29.84 30.99 29.52 30.72 26.91 32.33 31.05 31.64 31.41 30.59 28.98 26.58 23.07 22.23 20.24 21.15 25.21 26.29 25.95 24.12 23.12 22.29 25.24 24.85 24.83 21.65 20.08
31.16 31.14 30.04 26.77 25.56 30.34 30.30 28.92 28.08 27.95 27.25 24.38 29.58 29.41 23.22 27.52 28.42 29.53 29.14 27.92 29.81 31.66 32.49 32.25 32.37 32.38 31.69 31.70 29.30 27.18 22.48 23.84 18.24 19.11 21.70 26.74 24.12 23.34 22.47 22.53 23.22 24.71 25.18 24.57
31.52 31.15 30.89 30.86 27.73 27.98 28.75 31.50 30.89 30.88 27.17 28.13 29.46 24.98 25.64 26.24 28.41 32.27 32.68 32.29 31.94 32.00 32.57 32.77 32.20 31.65 31.19 31.19 27.07 27.06 28.05 27.48 25.56 21.11 23.31 25.70 26.98 25.36 20.28 20.61 23.34 21.40 21.86 23.09
29.61 30.73 30.49 27.07 29.38 30.26 31.01 31.67 30.53 29.71 29.19 29.22 28.02 27.95 25.66 25.85 27.92 30.53 32.21 32.38 32.17 32.00 32.40 32.84 32.16 31.06 30.56 29.05 28.84 29.14 28.78 28.67 26.33 22.98 27.58 27.73 26.79 25.86 25.11 22.11 22.08 24.31 25.01 24.35
31.02 29.86 30.12 31.38 30.68 30.73 30.67 29.76 29.56 29.42 25.46 22.98 24.95 20.98 20.97 22.74 26.83 27.51 29.96 31.73 31.92 32.43 32.29 32.53 32.46 32.25 31.80 30.85 29.42 28.79 28.50 28.01 27.40 27.30 27.52 26.45 26.23 24.90 22.26 22.78 21.78 23.50 23.88 24.96
30.50 27.88 29.15 29.78 29.90 29.90 29.51 26.74 23.65 26.32 28.20 30.84 27.89 23.31 25.73 31.04 23.31 24.35 25.46 29.77 31.24 31.41 31.93 31.91 32.10 31.96 31.96 31.96 31.21 29.84 29.37 29.29 29.14 28.42 27.10 26.02 23.17 22.26 21.51 21.73 21.53 22.67 23.22 22.65

GFSNGP_sfc_wetblb_033.txt.gz
Wetbulb
34.65 35.33 35.10 34.00 34.30 35.14 33.96 32.93 29.01 31.09 32.26 35.73 38.50 38.52 39.45 40.83 40.63 40.38 40.10 40.05 40.72 40.67 40.68 40.38 39.11 37.37 37.05 37.02 37.40 37.64 37.71 37.73 37.32 37.75 37.69 36.88 36.41 36.88 37.38 37.76 37.77 37.77 37.46 36.53
30.29 35.18 34.68 31.66 34.02 33.86 33.79 34.00 34.27 34.02 34.09 39.15 39.81 40.73 40.02 40.15 40.01 39.17 39.90 40.45 40.63 39.71 38.75 37.26 36.69 35.67 36.35 36.06 36.07 36.61 37.25 36.79 37.83 37.75 37.49 37.05 37.00 36.67 36.51 36.21 37.56 38.00 32.15 30.88
23.78 30.59 28.79 24.08 31.31 35.44 35.76 36.27 35.26 31.48 35.82 38.40 38.21 39.12 38.74 38.80 39.17 38.10 39.38 38.54 38.21 36.76 36.21 35.84 35.41 35.92 34.77 35.08 35.42 34.90 35.75 36.76 37.30 36.86 36.19 36.11 36.36 36.20 35.82 35.31 36.93 31.91 32.17 32.09
20.50 23.03 16.10 31.92 37.32 38.09 36.27 37.50 37.58 37.09 37.94 38.79 38.66 39.04 39.72 39.63 37.56 37.53 37.84 37.76 35.86 35.04 34.53 34.34 34.16 34.03 34.51 34.33 33.53 34.54 34.80 35.08 35.75 35.10 35.44 35.42 35.03 33.98 31.62 31.67 34.38 34.80 31.46 29.87
19.56 22.00 27.14 32.92 36.89 36.76 34.76 34.01 39.19 37.55 37.75 37.85 38.88 37.94 36.85 39.54 38.78 37.60 38.83 36.32 34.01 33.90 33.95 33.08 33.12 33.62 33.01 32.31 31.78 33.53 33.78 33.62 33.92 34.50 34.78 34.20 33.37 34.25 34.84 35.00 34.00 29.53 29.44 28.00
24.32 15.62 15.09 29.70 37.55 40.66 38.94 29.47 40.24 39.25 37.44 36.93 37.41 28.69 33.25 39.03 39.53 37.48 34.76 33.64 33.19 32.77 33.06 32.26 32.08 31.80 31.30 30.56 31.61 32.30 33.27 33.40 33.76 33.29 33.34 33.13 32.24 32.25 35.06 33.48 29.46 28.45 27.63 26.63
15.68 15.98 25.71 34.21 39.74 40.74 29.16 28.99 40.06 40.27 38.83 37.20 34.55 35.37 36.50 39.61 38.17 34.27 33.40 33.13 32.83 32.06 31.37 31.25 32.34 32.53 31.24 30.54 30.92 32.76 33.51 33.29 32.37 31.89 30.86 31.50 33.71 33.80 34.64 30.43 27.90 25.15 24.06 24.70
21.81 18.16 22.62 37.92 38.43 33.37 36.36 38.08 40.87 40.04 39.35 37.92 38.65 39.23 39.42 36.52 33.72 33.42 32.17 31.71 31.85 31.14 31.02 31.87 31.93 32.06 30.58 29.82 31.86 32.70 32.62 31.51 30.79 30.34 30.98 31.68 33.65 32.62 27.83 26.36 25.97 24.37 12.55 17.03
31.15 30.67 37.06 38.71 38.41 39.70 41.12 40.28 39.45 39.87 40.12 41.07 40.14 39.53 36.18 32.83 32.21 31.90 31.25 30.82 31.69 30.36 30.73 31.86 32.00 32.07 31.01 31.59 32.31 31.81 30.91 30.54 29.69 29.08 29.34 29.23 29.95 28.62 26.21 25.17 21.04 20.29 21.71 14.90
32.88 36.81 37.57 38.99 41.11 41.54 41.83 40.41 40.95 41.96 42.66 41.87 39.46 35.70 32.45 31.51 30.70 30.27 30.49 30.42 30.84 30.14 30.15 30.41 31.93 32.79 31.89 32.45 32.15 31.06 31.26 30.47 30.79 28.31 27.92 28.63 29.23 28.50 24.75 20.07 17.39 21.70 18.87 17.61
32.85 37.21 39.62 41.61 41.31 41.12 41.03 41.95 42.75 42.95 41.15 38.69 35.24 32.86 32.25 30.69 30.17 30.05 30.37 30.54 30.68 30.16 30.20 30.19 31.48 31.67 32.04 32.07 31.58 30.52 30.54 31.29 29.95 27.60 26.17 26.47 28.30 25.98 25.97 24.32 22.41 19.99 18.79 17.78
32.19 38.79 38.97 38.73 41.30 41.52 40.55 41.65 41.96 38.04 35.88 35.63 34.38 32.81 31.67 30.43 30.46 30.41 30.02 30.68 30.61 30.09 29.96 30.76 30.42 30.13 31.00 32.69 32.77 30.98 29.11 30.63 29.59 26.39 23.68 25.66 25.66 26.04 28.58 27.63 29.31 30.14 29.80 18.06
39.17 40.70 41.04 40.70 41.14 42.69 42.57 42.82 39.44 36.35 35.29 33.10 32.78 32.08 31.32 30.50 30.84 31.32 30.16 29.98 29.79 29.71 30.51 29.63 29.07 28.87 30.09 30.43 31.45 30.40 29.38 30.55 29.01 26.39 26.11 26.41 26.03 26.37 23.80 26.22 27.85 27.79 28.78 29.32
43.31 42.45 38.75 40.09 40.17 43.39 40.94 37.96 37.50 35.49 34.82 33.80 32.67 32.47 31.80 30.94 30.59 29.47 28.63 29.94 30.48 29.93 29.11 28.98 28.78 28.91 30.28 30.98 31.92 30.70 29.81 28.21 26.98 27.57 27.57 26.21 19.22 24.45 24.69 21.17 13.75 15.34 23.60 27.11
42.50 41.80 42.13 42.01 38.68 36.15 36.55 35.68 33.83 32.95 32.80 32.11 32.32 31.11 30.75 29.91 29.17 28.76 29.30 29.83 29.78 28.68 28.66 28.57 28.32 28.83 30.71 31.71 31.78 31.62 30.08 28.12 26.57 18.88 19.38 23.56 22.72 22.32 22.92 22.62 16.91 18.20 14.40 18.44
41.69 41.35 40.62 37.01 35.37 36.11 35.58 34.88 32.79 31.90 32.00 30.95 29.84 29.64 30.64 30.18 29.25 29.39 29.67 29.43 27.26 26.92 27.68 25.35 24.68 28.22 31.07 31.96 32.50 32.24 31.02 28.50 25.96 25.72 25.64 21.99 23.38 20.16 21.65 22.02 21.86 21.91 13.66 13.31
37.60 33.72 34.80 33.75 34.03 34.74 35.20 34.35 32.68 31.84 30.91 29.56 29.68 29.63 29.42 27.41 25.95 28.12 28.53 26.54 22.34 22.36 24.57 25.66 26.05 28.71 31.24 32.00 32.62 32.07 30.02 28.81 26.90 26.85 25.79 23.04 19.87 19.50 21.09 23.58 22.06 17.13 17.06 11.84
37.20 36.77 36.80 35.76 33.89 33.83 32.60 32.10 31.18 30.46 30.07 29.95 25.64 19.53 18.78 22.92 25.68 25.43 24.71 23.24 21.45 22.18 25.04 26.95 26.15 28.80 30.39 32.16 32.48 31.05 27.82 26.60 22.25 20.13 19.70 16.47 17.95 19.44 20.00 20.58 22.80 19.64 17.99 15.20
37.78 37.20 37.25 36.67 35.31 32.07 30.42 29.78 29.72 29.44 26.45 23.62 21.54 24.06 21.48 21.90 24.24 25.28 22.71 18.78 20.22 22.46 27.04 25.42 27.20 27.14 29.81 31.91 31.05 29.62 25.60 20.64 18.11 19.17 18.58 17.06 13.11 16.97 18.31 19.85 21.77 19.97 22.01 19.22
36.50 35.41 33.69 32.61 31.84 30.43 29.24 30.05 26.61 28.91 29.91 25.65 19.09 17.35 22.37 24.14 21.61 21.56 18.25 21.44 25.63 27.74 27.80 27.52 26.33 28.16 30.16 30.73 30.19 29.42 25.16 20.07 17.34 17.36 12.81 15.31 14.25 13.72 13.67 16.68 19.43 20.56 15.10 16.65
30.35 30.34 29.66 28.83 28.61 26.57 24.94 25.16 23.37 26.51 28.87 21.75 18.76 22.61 23.69 25.74 21.50 20.39 21.84 23.37 27.15 24.92 26.95 24.95 26.32 30.03 30.52 30.33 31.01 29.41 26.98 25.48 24.74 19.93 18.31 18.35 17.72 16.42 15.33 16.36 17.63 17.36 17.57 15.66
29.55 28.95 25.89 25.46 25.89 27.58 28.10 28.03 28.43 23.68 24.00 23.94 22.92 26.13 27.63 26.81 27.21 20.23 20.55 24.28 28.11 23.10 25.17 25.44 27.52 29.70 30.95 31.14 31.37 30.67 29.09 27.08 26.13 25.91 23.67 21.62 22.14 22.25 19.99 18.03 16.86 21.91 21.84 20.55
30.11 30.35 29.43 25.89 24.74 29.15 28.57 27.02 23.53 22.86 22.95 24.05 24.60 24.84 24.61 27.20 27.62 25.56 26.37 26.30 26.54 24.09 26.14 29.47 25.29 29.07 30.49 31.91 31.74 31.41 30.06 29.05 27.67 27.15 25.37 24.84 24.28 24.27 23.32 23.08 23.41 23.07 21.70 20.72
30.23 30.22 30.20 29.50 25.16 25.24 25.95 30.18 29.53 29.09 25.03 25.38 24.45 24.33 24.95 25.45 27.13 25.80 28.88 28.17 22.38 19.08 23.82 29.92 29.42 30.36 30.61 28.79 30.24 30.50 30.05 29.74 29.24 27.19 26.41 25.36 25.87 24.31 23.76 24.60 24.26 22.74 20.99 19.76
28.36 29.71 29.62 25.33 28.05 28.59 29.76 30.06 28.42 27.68 27.67 28.03 27.10 27.14 25.58 25.91 29.03 27.21 24.69 23.32 22.12 20.79 20.22 20.44 25.08 23.02 27.95 29.41 30.52 30.35 30.23 30.09 29.36 28.47 27.88 27.20 26.11 25.45 25.55 26.48 25.73 23.87 22.00 21.88
29.45 28.36 28.05 29.02 28.39 28.50 28.81 28.58 27.78 28.27 26.98 27.94 26.59 23.72 25.34 29.29 30.93 29.26 22.70 21.91 21.58 21.54 19.57 19.54 21.75 22.32 19.64 19.90 20.07 21.07 24.14 27.61 30.04 30.01 29.11 28.93 28.90 27.33 27.34 27.41 26.36 24.17 21.94 21.29
27.00 24.08 27.23 27.59 28.65 28.16 27.46 27.15 27.06 27.41 29.54 30.39 29.79 29.99 30.11 30.97 28.31 25.84 25.01 21.41 22.15 21.55 16.03 18.85 16.18 13.92 15.69 15.54 16.47 17.34 19.25 21.00 22.88 26.58 29.30 29.20 28.42 28.06 28.09 27.64 25.65 23.49 22.42 21.89

GFSNGP_sfc_wetblb_036.txt.gz
Wetbulb
32.57 33.42 33.29 32.19 32.40 34.14 32.88 31.76 28.79 29.43 30.41 34.15 37.88 37.75 37.97 39.17 39.17 39.25 39.22 39.52 39.49 39.00 39.49 39.86 36.71 36.07 35.75 35.61 35.81 35.72 36.18 36.15 35.44 36.09 35.96 35.95 35.94 35.86 35.98 36.21 36.42 37.27 38.26 37.29
30.28 33.09 33.01 31.20 32.66 32.67 32.85 31.79 32.53 31.72 32.11 37.81 38.34 39.20 38.90 39.11 39.08 38.50 38.77 39.09 39.09 39.08 37.91 36.42 35.44 34.69 35.11 35.00 34.59 34.87 35.67 35.32 36.35 36.27 36.09 35.46 35.14 34.81 34.74 34.68 34.84 37.90 33.04 32.07
25.06 28.69 27.35 23.56 30.50 32.17 32.76 34.29 33.52 29.99 34.24 37.44 36.92 38.38 38.43 38.14 38.58 37.98 38.05 38.24 38.68 36.29 34.92 34.67 34.42 34.93 33.50 33.57 34.03 33.26 34.18 35.21 35.57 35.35 34.16 34.25 34.40 34.18 32.37 30.80 32.29 33.33 32.33 31.32
19.70 21.89 15.76 30.58 35.37 35.29 34.64 35.23 35.98 35.43 36.32 38.37 38.18 38.17 39.26 39.20 38.36 36.89 37.34 37.72 35.89 34.32 33.82 33.53 33.13 32.44 32.61 32.48 31.88 32.50 33.48 33.58 33.84 33.54 33.25 33.73 32.97 32.77 31.29 33.64 34.98 34.92 31.02 27.89
19.31 20.54 26.85 31.67 34.84 35.07 33.91 33.39 38.41 36.65 36.56 37.28 38.09 38.28 37.43 39.90 38.06 36.64 37.47 37.13 34.25 33.58 32.79 32.20 31.81 31.94 31.61 31.29 30.81 32.01 32.63 32.39 32.42 32.56 32.10 31.95 31.03 30.81 33.77 34.18 33.03 28.40 27.45 26.81
20.00 15.76 14.49 29.45 35.32 38.94 37.76 28.92 37.61 38.41 36.56 36.51 37.11 30.08 35.88 38.41 38.66 38.17 36.33 33.60 32.23 32.11 31.96 31.56 31.33 31.18 30.59 29.90 30.03 30.99 31.81 32.07 32.38 31.53 30.61 29.77 29.59 33.49 33.48 33.54 31.58 28.23 27.42 26.31
14.04 14.78 24.48 32.52 37.37 38.95 29.03 29.55 37.90 38.50 37.23 36.46 35.43 36.70 36.83 38.42 38.83 35.09 33.93 33.30 32.32 31.51 31.20 30.83 31.50 31.20 30.19 29.46 29.75 31.33 31.98 32.03 31.41 30.48 29.56 29.91 31.83 33.32 33.27 31.05 28.85 25.61 23.81 24.68
22.08 15.17 21.94 36.29 37.80 32.80 36.11 35.63 38.74 38.60 38.09 37.94 36.57 36.55 38.43 35.57 33.43 32.95 31.96 32.11 31.86 31.18 30.54 31.06 31.44 30.93 29.57 28.97 30.69 31.64 31.28 30.68 30.67 31.41 30.20 30.13 31.04 33.58 29.56 26.94 25.70 24.54 12.57 17.03
29.72 29.72 35.74 36.78 37.29 39.11 39.16 38.51 38.77 39.18 38.76 39.18 38.35 39.23 36.07 32.67 33.48 31.87 31.85 31.07 31.31 30.34 30.62 31.41 31.23 30.95 29.97 30.71 31.40 30.86 30.20 29.90 31.03 31.39 29.97 28.60 28.33 28.86 27.90 26.11 21.45 19.63 20.97 15.57
31.89 35.10 36.15 37.90 38.98 41.66 41.07 40.15 40.12 40.79 40.83 40.99 39.84 36.92 34.37 32.92 31.48 31.32 30.99 30.79 30.76 30.27 29.65 29.76 31.12 31.28 30.59 30.82 30.81 29.52 29.66 31.44 31.78 30.48 29.28 28.02 27.99 28.51 27.11 23.01 18.70 20.85 18.63 17.99
31.96 36.39 36.88 40.42 41.05 40.54 40.84 41.09 41.35 41.75 40.89 39.19 36.05 34.37 33.26 31.44 30.71 30.57 30.59 30.62 30.56 29.88 29.49 29.42 30.86 30.17 30.12 29.99 30.34 29.66 31.47 31.01 31.07 30.41 28.26 26.31 26.87 27.22 27.22 25.72 23.12 20.72 19.83 18.27
30.79 37.55 37.48 37.69 40.25 40.90 40.82 40.98 41.25 37.54 35.77 35.34 35.18 32.94 32.39 31.12 31.30 30.87 29.79 30.16 30.31 30.15 29.39 30.01 29.54 29.09 29.07 29.64 30.07 30.13 30.25 30.04 30.51 29.90 27.90 25.32 25.28 25.79 29.18 28.09 28.79 30.01 30.05 20.58
37.47 39.42 39.64 39.69 40.36 40.93 40.95 40.69 37.26 36.57 35.59 33.23 32.86 32.83 32.10 31.18 31.00 31.25 30.11 30.01 30.16 29.73 29.75 28.94 28.43 28.27 28.57 29.01 28.80 30.48 30.28 30.31 30.14 28.79 27.72 26.02 23.93 25.68 23.66 25.92 28.60 28.17 28.93 29.17
41.48 40.32 37.97 38.14 39.26 41.64 38.46 36.05 35.94 34.69 34.63 34.17 33.02 32.84 32.32 31.04 30.54 29.96 29.33 30.22 30.44 30.19 28.87 28.19 28.42 28.21 29.66 29.09 28.94 30.42 30.81 29.46 28.92 28.36 27.75 27.37 24.36 21.47 24.00 23.96 19.34 16.16 23.49 26.65
41.27 40.57 39.96 37.72 35.03 34.29 35.62 35.93 35.07 34.25 33.40 32.28 32.69 31.83 30.90 30.34 30.03 29.98 29.98 30.29 30.11 29.13 28.50 28.68 28.10 28.28 28.45 28.64 29.84 30.79 31.57 30.66 28.87 24.79 24.79 22.20 22.66 21.38 20.50 22.38 23.44 18.96 16.20 18.40
39.42 36.51 35.27 34.18 35.02 36.12 36.34 35.76 34.30 32.85 32.06 31.77 30.76 30.09 30.72 30.95 30.35 29.88 30.10 29.96 27.23 26.61 27.96 25.20 23.71 27.19 28.29 28.80 30.29 31.10 32.23 31.31 28.21 24.72 26.19 25.51 24.33 20.42 21.21 21.28 22.15 21.92 20.44 16.85
33.42 32.32 33.89 34.34 34.69 34.93 34.84 34.31 33.86 32.19 31.48 30.16 29.74 29.79 30.26 29.04 26.65 28.25 28.64 26.72 22.33 22.91 24.20 23.49 24.77 28.13 28.56 28.48 28.70 31.12 31.99 31.52 28.30 26.87 26.19 21.99 25.15 20.06 18.88 19.62 20.58 22.94 19.18 16.92
36.55 36.57 36.51 35.26 34.08 33.31 32.34 32.09 30.74 30.37 29.78 30.14 27.18 23.58 21.97 21.94 25.50 25.82 24.49 23.80 20.92 21.66 24.15 26.25 25.61 27.51 27.75 28.47 29.29 31.05 30.03 29.58 27.73 24.63 21.91 17.63 17.85 19.51 18.79 17.17 17.95 18.76 19.84 18.83
37.70 36.75 36.80 36.45 35.96 32.83 30.17 29.32 29.47 29.21 26.80 25.74 23.65 25.95 24.30 23.85 24.39 24.99 23.60 19.97 21.03 21.30 26.63 25.23 26.67 25.64 27.23 28.37 29.81 30.29 29.07 28.69 26.40 23.35 22.23 16.61 14.24 16.28 14.18 13.63 15.71 17.74 19.06 17.35
35.54 35.37 33.46 31.68 31.17 30.07 29.14 29.78 27.34 29.17 29.87 26.47 23.03 24.52 24.58 24.96 24.01 21.98 18.20 21.17 25.88 27.72 26.82 26.18 25.47 25.15 25.36 29.17 29.75 29.08 29.24 28.65 25.64 21.87 19.26 18.83 17.97 17.97 18.10 15.96 16.13 16.79 16.49 17.49
29.38 29.93 29.58 28.88 28.50 26.98 25.80 24.54 23.42 26.77 28.64 22.52 19.80 22.70 22.61 23.59 23.66 20.39 23.63 25.26 27.58 24.95 26.06 23.66 25.38 26.17 26.74 26.75 30.13 30.16 30.43 28.87 25.14 23.62 23.28 22.18 21.18 20.62 21.29 20.92 20.79 20.11 19.28 15.17
29.04 28.18 24.53 24.45 25.23 26.63 26.88 26.78 27.41 22.00 22.26 21.80 20.86 19.08 18.58 24.59 23.46 23.98 26.28 24.60 29.10 23.43 24.65 24.71 25.80 24.84 28.07 29.14 29.84 30.36 30.43 30.26 28.57 26.25 24.77 24.69 24.70 24.15 23.74 23.70 23.57 22.48 20.67 20.27
29.88 29.78 28.67 24.38 23.21 28.49 27.49 25.88 21.00 19.97 20.56 22.86 23.23 23.65 22.22 26.05 26.00 24.14 26.47 26.45 24.00 24.02 24.77 25.65 29.41 29.23 28.51 29.54 29.68 29.48 29.04 29.09 29.01 28.65 27.72 27.22 26.50 25.98 25.77 25.56 24.62 23.75 23.96 23.37
29.92 29.69 29.47 28.86 24.24 25.79 26.86 29.49 28.52 28.32 24.61 25.23 24.29 23.83 22.71 25.03 26.59 24.79 26.55 24.74 24.23 26.43 22.41 27.18 23.87 19.44 17.89 23.37 27.76 28.47 29.08 28.98 28.98 28.54 27.28 25.70 26.22 26.34 26.28 25.65 25.01 24.96 25.52 24.00
27.45 28.67 27.77 26.34 26.88 27.11 27.30 27.28 26.53 26.44 26.57 27.19 27.75 26.92 24.94 26.23 26.48 28.48 27.36 28.91 27.89 24.41 22.73 22.72 19.77 18.26 17.46 17.40 17.39 16.98 16.45 18.03 20.27 21.71 24.94 28.25 28.18 26.66 24.66 25.29 25.50 26.01 26.12 24.88
26.95 26.35 26.14 27.25 26.70 25.51 23.95 23.91 23.30 24.25 24.83 25.01 26.58 28.71 30.35 29.31 28.61 28.25 30.53 26.15 21.78 20.75 21.08 16.20 12.28 8.69 10.84 13.21 12.82 13.11 14.95 17.08 18.08 18.39 19.52 22.19 24.74 27.50 28.07 27.60 27.32 27.26 26.48 25.09
24.19 21.08 22.81 22.58 23.25 21.60 20.02 21.16 20.64 21.09 22.69 23.09 23.26 24.67 27.79 30.08 30.48 30.27 27.28 20.40 16.59 18.55 17.39 12.55 7.50 12.48 11.72 10.00 8.46 8.42 9.02 9.86 9.47 10.62 11.79 12.88 13.94 15.62 23.16 28.23 28.58 27.21 25.01 23.37

GFSNGP_sfc_wetblb_042.txt.gz
Wetbulb
42.07 41.77 41.98 42.42 42.49 43.28 41.95 42.87 38.94 41.24 40.68 43.46 45.59 47.32 49.43 51.27 51.65 50.55 49.59 49.34 49.50 49.36 49.12 48.71 47.73 46.34 46.72 46.37 45.34 45.29 44.01 43.34 43.44 44.36 44.77 43.95 43.36 43.15 43.07 42.36 41.92 41.41 41.00 39.90
39.71 40.45 40.45 39.51 42.42 42.77 43.69 43.74 43.37 43.32 42.62 47.84 48.48 48.68 48.98 49.21 49.47 48.88 48.77 49.07 49.07 48.84 47.82 46.88 45.72 45.89 44.94 44.04 44.18 44.37 42.95 42.26 43.20 43.78 43.19 42.65 42.42 42.05 41.63 41.36 41.19 40.82 38.36 38.68
36.50 37.46 37.77 35.88 40.99 42.86 43.19 44.35 44.11 40.53 45.18 47.16 46.07 46.75 48.08 48.83 49.11 48.72 48.86 48.77 48.12 47.45 45.93 44.79 44.56 44.19 43.19 43.41 43.73 42.52 41.60 41.57 42.33 41.93 41.37 41.33 41.16 40.65 40.02 40.01 39.82 37.85 38.12 37.05
36.94 33.53 31.63 40.66 43.39 43.21 43.56 44.95 45.91 44.86 45.52 46.38 46.95 48.69 49.50 50.94 49.74 48.66 48.61 48.31 47.67 46.04 43.08 42.72 43.59 42.91 42.57 42.97 42.33 40.97 40.23 40.52 40.81 40.84 40.30 40.49 39.93 39.33 39.52 39.44 37.13 37.92 36.94 36.41
36.90 34.41 38.00 40.35 40.22 39.69 39.72 41.11 45.65 45.16 45.99 46.25 46.61 47.17 48.43 49.63 50.53 50.07 49.62 48.98 47.77 45.20 42.88 43.08 41.80 42.70 41.56 40.98 40.29 39.35 38.91 39.63 40.04 40.17 39.52 39.01 38.33 38.42 38.60 36.01 36.73 35.52 36.48 35.99
34.99 35.34 33.41 39.81 42.82 45.91 45.18 38.38 45.57 46.37 46.07 46.13 46.29 43.55 45.12 49.41 49.71 50.08 49.06 47.98 45.36 42.59 40.91 41.35 39.93 41.74 40.46 39.41 38.84 38.29 38.84 39.27 39.98 39.81 38.94 38.23 38.33 37.65 37.15 36.04 35.10 35.75 34.50 35.85
36.19 36.71 38.64 42.72 43.16 45.88 36.14 38.72 46.06 47.25 47.68 47.00 45.60 47.83 47.54 50.44 49.22 48.71 47.26 44.40 42.81 41.61 41.31 41.02 40.83 40.02 38.53 38.43 37.78 38.75 39.22 39.41 39.41 39.18 38.52 38.43 37.82 37.62 36.00 35.82 35.82 34.17 32.94 34.49
35.30 35.00 32.96 43.91 44.44 40.77 45.77 48.20 46.75 47.87 48.06 48.13 48.74 46.27 46.93 48.25 46.26 44.00 41.89 40.21 41.34 39.05 39.39 40.42 39.82 39.01 37.61 37.26 38.89 38.95 39.30 38.48 38.12 38.74 38.17 37.70 37.44 36.99 35.08 34.94 33.60 32.85 33.58 33.04
41.14 42.02 45.06 46.20 47.71 48.72 48.36 47.75 48.34 48.08 48.48 47.86 47.67 45.98 45.59 44.48 43.19 41.36 40.39 37.32 38.18 38.04 38.01 39.05 38.68 38.37 36.49 37.89 38.28 37.97 37.41 36.95 37.68 38.09 37.39 37.06 35.87 34.47 33.09 33.22 31.76 31.18 30.40 30.30
40.49 43.95 44.82 46.32 48.01 48.74 49.17 47.98 48.50 48.77 49.09 49.00 47.96 46.70 44.14 41.65 39.26 37.47 38.33 37.93 37.58 37.81 36.90 36.93 36.94 37.40 38.02 37.98 37.65 36.91 35.82 36.37 37.31 36.82 36.13 36.54 34.85 33.59 32.95 32.18 31.19 30.79 29.96 29.18
41.97 45.05 45.64 46.08 46.69 47.71 48.32 49.20 48.50 48.52 47.92 47.54 47.44 44.28 40.51 38.90 39.16 38.54 37.81 36.88 36.94 37.12 36.37 35.93 36.93 37.04 37.74 37.18 36.96 35.33 35.49 35.85 35.98 36.12 35.61 35.44 34.43 33.98 32.96 33.29 32.63 31.13 30.44 30.73
42.00 43.88 44.42 45.19 47.65 47.88 47.45 47.36 47.50 45.15 43.80 44.58 43.56 39.81 38.71 36.97 37.10 37.41 37.85 37.50 36.11 35.52 35.35 35.65 36.24 36.82 36.96 37.22 36.42 35.31 34.64 35.09 35.59 35.15 34.79 34.01 33.44 32.99 32.24 30.47 30.62 30.82 30.40 30.27
44.22 47.30 47.04 47.23 44.91 46.20 43.97 43.78 43.06 42.09 41.83 39.87 38.84 37.11 36.34 35.82 36.30 34.77 35.74 35.21 34.71 35.11 35.69 36.01 36.01 35.40 36.50 36.39 35.85 34.70 34.35 34.32 35.07 33.64 33.18 32.32 32.88 32.45 30.98 32.58 31.06 30.83 30.69 30.61
46.59 46.37 44.50 41.12 39.60 41.75 41.76 40.85 39.41 37.80 36.89 36.33 36.14 36.70 36.49 36.13 35.08 35.82 35.16 35.43 35.79 35.63 35.92 35.60 35.23 35.55 36.85 36.66 36.00 34.64 34.77 32.30 34.95 35.15 33.47 32.90 33.02 33.08 32.64 30.94 30.38 31.63 30.94 30.17
41.19 42.61 41.41 41.07 39.81 37.89 37.73 37.24 35.92 35.35 35.47 35.14 36.28 37.15 36.69 35.18 34.63 34.95 36.03 35.70 35.25 35.17 35.65 36.18 35.81 35.67 37.17 37.11 35.11 34.82 35.04 35.68 34.89 34.35 33.45 32.78 32.62 33.11 32.55 31.51 30.52 29.71 31.17 30.14
40.54 39.66 37.99 36.10 35.82 36.27 35.77 35.22 35.03 34.92 36.37 37.75 37.72 36.46 35.38 35.43 35.61 35.80 35.93 35.87 33.27 33.77 35.61 34.46 33.56 34.96 36.53 37.03 36.60 36.46 36.34 32.61 31.73 33.43 32.93 33.57 32.70 32.11 31.92 31.53 30.61 29.74 29.23 29.66
35.24 34.21 35.39 34.99 35.57 35.66 36.32 37.52 37.85 37.77 37.90 36.71 34.63 34.12 34.81 33.89 33.49 34.18 35.21 35.27 34.56 33.04 34.19 33.77 33.48 37.08 36.90 36.97 36.44 36.64 36.35 35.05 32.26 32.40 31.09 32.28 32.94 32.18 32.34 32.12 31.12 29.82 30.94 32.73
38.43 37.67 37.73 37.68 36.94 37.19 36.79 37.01 36.07 35.06 34.39 34.61 33.43 32.76 32.50 32.50 32.44 33.13 34.04 34.73 32.48 32.59 33.85 34.85 35.23 36.08 35.99 36.82 36.21 35.28 34.40 33.91 33.22 32.97 32.34 32.21 30.74 31.72 32.15 32.21 31.37 30.61 31.48 31.55
39.76 38.79 38.87 37.97 37.21 35.59 34.58 34.16 34.25 33.95 32.86 33.31 32.59 32.68 32.74 32.67 32.94 33.23 33.27 31.96 31.07 32.58 35.65 37.21 33.06 32.71 34.97 35.01 33.20 33.71 33.92 33.48 31.96 31.47 31.94 31.58 32.13 31.33 31.34 32.12 31.77 32.06 31.18 30.95
36.83 36.18 35.55 34.98 34.78 34.55 33.66 34.01 34.57 34.21 34.52 32.39 30.53 32.24 32.50 32.65 32.50 31.86 32.35 31.37 33.22 34.41 35.67 35.06 34.41 34.26 34.56 34.42 31.59 33.38 33.01 32.86 32.10 30.94 30.61 30.69 31.88 31.77 31.99 31.01 31.67 31.94 31.59 31.58
34.26 34.28 32.86 32.79 32.31 32.37 31.80 31.86 32.28 31.70 32.18 30.72 29.35 28.60 28.26 29.77 30.72 30.81 30.84 30.78 32.85 34.99 34.35 32.57 33.98 34.58 34.72 33.30 32.96 33.51 33.04 32.29 32.02 32.53 31.54 31.22 31.41 31.64 31.77 31.58 31.59 31.41 31.41 31.41
34.57 32.61 31.74 32.30 32.60 32.46 32.44 31.02 29.67 28.81 28.07 27.62 27.65 27.76 27.79 28.71 29.56 29.86 30.36 29.90 33.06 31.99 33.26 34.05 33.89 33.07 33.75 31.70 32.72 32.32 31.86 31.30 31.55 31.97 31.93 31.58 31.23 31.05 31.40 31.58 31.29 31.59 31.59 31.59
34.11 33.40 32.11 30.98 30.64 30.49 29.53 27.98 27.20 27.60 25.84 25.98 26.49 26.01 26.33 27.31 28.55 27.38 26.98 30.85 32.52 32.41 33.13 32.70 32.27 31.21 31.07 31.94 31.96 30.87 29.66 28.15 27.51 27.31 27.12 27.32 27.23 27.79 28.42 29.56 30.94 31.77 31.77 31.84
32.93 31.83 30.82 29.82 28.71 27.07 25.52 26.05 26.41 26.66 25.81 25.81 26.16 25.79 25.82 25.72 26.51 27.60 28.30 28.81 28.50 28.69 30.39 32.43 31.99 29.10 26.17 29.51 28.44 27.33 26.16 25.70 25.05 23.93 23.40 22.13 23.09 23.04 23.59 23.82 25.07 28.38 28.93 30.98
29.60 28.94 27.89 26.58 26.22 25.65 24.47 24.09 24.64 24.98 23.79 23.63 23.79 24.80 24.29 25.16 24.08 25.68 26.92 27.63 26.32 27.10 31.10 27.66 23.68 23.28 25.26 24.74 23.46 22.53 22.84 22.24 20.47 20.39 20.02 20.04 20.17 20.36 20.84 20.77 21.03 22.20 23.64 25.81
27.27 27.00 26.21 24.18 23.66 23.40 22.51 21.84 20.91 22.03 20.82 20.83 21.66 22.27 22.43 22.56 23.34 23.56 24.35 24.13 25.08 25.24 24.14 23.14 20.89 21.20 21.25 19.82 19.74 18.48 19.12 18.42 17.68 17.04 16.85 17.28 17.11 17.54 17.64 17.19 18.31 19.43 20.78 21.80
23.23 22.61 23.85 23.61 22.24 20.83 19.38 18.48 18.35 17.88 18.70 18.76 17.33 19.47 20.24 21.02 20.95 20.70 19.79 19.64 19.81 19.66 19.89 18.95 17.58 15.37 15.29 15.24 15.32 14.78 14.78 15.43 12.99 11.82 13.36 13.53 13.79 13.72 13.18 13.39 15.20 16.29 18.03 18.22

GFSNGP_sfc_wetblb_045.txt.gz
Wetbulb
46.35 46.24 45.86 45.58 45.01 45.51 44.34 44.78 41.84 43.17 42.87 44.86 46.76 47.67 49.63 51.10 51.88 52.90 54.27 54.49 54.38 53.58 53.46 53.35 52.21 51.20 49.68 49.28 48.72 47.88 46.52 45.76 45.38 45.35 45.79 45.50 44.97 44.20 43.87 43.81 43.09 43.03 42.42 41.93
42.72 45.63 45.08 43.24 45.21 45.38 45.07 45.29 44.49 44.47 44.07 49.23 49.96 50.22 49.24 49.80 51.01 51.52 53.06 53.54 53.75 53.48 53.04 52.10 50.72 49.00 48.80 48.27 47.33 46.12 45.12 44.16 43.98 44.29 44.30 44.05 43.44 43.25 43.05 42.40 42.42 42.49 41.44 40.27
38.60 41.94 41.63 37.40 43.02 44.40 45.25 46.36 45.93 42.59 46.67 49.11 48.52 48.08 48.61 49.74 50.86 51.17 52.33 53.08 52.90 52.68 52.35 51.60 50.15 48.55 47.31 46.76 45.66 44.75 43.49 43.21 42.79 43.17 42.30 42.33 42.36 42.19 41.19 40.96 41.66 40.86 39.25 37.83
39.08 35.81 31.88 42.83 45.82 45.24 44.53 45.98 47.31 47.13 47.70 48.02 48.09 50.01 50.71 52.00 51.79 51.73 52.39 52.82 52.85 52.60 51.57 49.98 49.09 47.25 46.84 45.32 44.74 43.21 42.32 41.65 42.02 41.86 41.58 41.71 41.55 40.97 40.90 41.09 40.48 38.73 38.19 37.18
37.91 36.69 40.68 42.48 43.64 42.58 41.74 42.40 46.59 46.59 47.05 47.70 49.24 49.95 50.05 52.04 52.34 52.59 53.14 53.43 53.13 52.43 50.06 47.96 46.36 45.38 44.97 43.99 42.61 41.64 40.33 40.29 40.94 41.31 40.77 40.66 39.98 40.14 40.44 39.82 38.06 36.49 36.43 36.20
37.79 35.25 32.42 42.14 45.19 47.65 47.00 39.36 46.81 47.11 47.00 47.34 48.33 44.10 47.88 51.47 51.85 52.10 52.99 53.01 51.74 49.74 47.23 46.05 44.99 44.78 43.67 42.44 41.45 39.48 40.07 40.23 40.88 41.03 40.42 39.79 39.99 40.07 39.89 39.15 36.45 36.66 35.49 35.53
39.02 38.03 41.42 46.05 45.97 47.83 38.10 40.86 47.86 48.56 48.34 48.08 46.55 49.33 51.20 51.77 51.33 52.62 52.46 51.30 49.90 46.76 44.85 43.98 44.34 42.96 40.63 40.08 39.27 40.27 40.57 40.50 40.47 40.62 40.23 40.34 40.09 39.71 39.19 37.96 36.01 35.63 34.34 34.93
41.18 35.10 33.76 46.73 46.51 41.68 47.55 49.10 49.27 49.33 49.76 49.79 50.60 50.67 49.47 50.58 50.75 50.26 49.24 46.66 45.32 43.62 42.33 43.10 41.98 40.37 39.21 38.41 39.84 40.70 40.21 39.66 39.40 39.87 39.65 39.56 39.24 38.68 38.33 36.04 34.16 34.05 34.10 34.20
43.66 43.64 48.18 48.54 47.64 50.14 50.22 49.05 49.63 49.82 50.66 50.63 49.88 49.72 49.07 49.49 48.23 46.62 44.46 43.21 42.56 41.70 39.58 39.65 40.00 39.12 36.90 38.60 39.69 39.10 38.34 38.13 38.54 39.27 39.48 39.21 38.01 37.55 35.03 34.13 34.02 33.54 32.74 32.55
43.06 45.71 46.83 47.96 49.44 50.38 50.92 50.51 50.87 51.23 50.72 50.72 49.71 50.59 48.49 47.37 44.88 43.11 41.70 41.04 40.62 38.56 37.85 38.68 39.24 38.39 38.57 38.90 38.65 37.80 36.84 37.15 38.02 37.94 37.54 37.76 37.68 37.34 34.24 33.91 33.49 32.57 32.24 31.66
44.49 46.47 47.21 48.35 49.53 50.04 50.07 51.06 50.77 50.86 49.81 49.69 49.97 48.50 46.60 43.34 41.81 41.10 38.97 37.72 37.65 37.51 37.56 37.90 38.59 38.36 38.97 38.51 37.98 36.70 36.68 36.98 37.23 37.24 37.31 36.94 37.04 35.80 34.58 35.59 34.69 32.93 32.97 32.74
43.73 46.88 46.77 47.89 48.29 49.25 48.69 48.07 48.61 47.23 45.32 46.42 46.35 43.54 42.07 39.40 38.02 37.36 36.54 36.90 37.06 38.07 37.59 37.35 37.61 37.91 38.42 38.89 38.38 36.95 36.02 36.46 36.80 36.42 36.57 36.48 35.83 34.60 34.55 32.23 32.21 31.86 31.55 31.60
46.83 48.54 48.54 47.79 46.34 46.53 45.14 45.22 45.28 44.22 42.65 40.07 39.36 38.31 37.12 35.64 35.81 34.13 36.63 37.72 37.65 36.87 37.08 37.28 37.23 37.32 38.49 38.52 38.16 36.72 35.98 35.56 36.08 35.22 36.31 34.80 33.16 32.77 32.63 35.18 32.06 31.87 31.46 31.23
47.31 47.49 44.61 45.15 42.75 44.01 42.51 41.59 40.53 39.50 38.96 38.46 37.50 37.23 36.70 36.02 36.48 37.35 37.71 37.79 37.82 37.50 37.54 37.79 37.66 37.57 39.37 39.59 38.38 37.05 36.99 33.07 35.86 36.71 36.08 35.21 33.86 33.18 33.54 33.76 32.96 33.98 32.50 31.33
44.67 45.77 44.53 43.35 41.81 40.42 39.91 38.41 36.99 36.27 36.92 37.60 38.99 38.55 38.71 37.48 36.94 37.06 38.03 38.32 37.91 37.67 37.79 38.21 37.92 37.93 39.44 40.05 37.96 37.50 37.18 37.23 37.88 37.98 36.34 34.30 33.45 33.18 32.58 33.48 33.01 32.91 33.24 31.44
42.14 41.49 40.37 39.28 37.92 37.70 38.49 38.39 37.89 37.86 39.13 39.33 39.32 37.91 37.42 37.45 37.36 37.27 37.70 37.91 35.34 34.93 36.46 34.19 33.99 36.77 39.52 39.57 38.81 38.85 38.49 34.37 34.22 36.52 35.36 33.39 33.48 33.61 33.55 33.52 32.93 32.70 32.73 32.25
37.79 36.05 36.31 35.81 37.41 38.23 38.80 39.54 39.54 38.64 37.56 36.57 35.90 35.55 35.85 35.16 35.59 36.10 36.65 37.06 36.25 33.37 35.19 35.14 35.44 38.83 38.78 38.82 38.41 38.88 38.75 37.61 34.24 35.23 35.01 34.46 34.09 33.01 33.01 33.46 32.60 32.81 32.88 33.80
40.32 39.66 40.25 39.96 38.60 38.14 38.06 37.13 36.14 36.06 35.48 35.38 33.72 33.22 32.28 31.74 33.07 34.32 35.41 36.22 34.09 33.82 35.19 36.94 38.18 38.13 37.47 37.87 37.64 37.69 36.81 35.99 35.09 34.47 35.13 34.61 34.17 33.94 33.44 32.31 32.52 31.97 32.90 33.77
40.90 39.43 39.50 38.90 38.24 37.01 36.39 36.02 35.49 35.69 34.41 33.71 31.92 31.74 32.93 33.01 33.84 33.04 32.93 32.33 31.84 32.37 35.06 36.47 33.25 34.45 35.64 35.72 34.40 35.98 35.06 34.45 33.62 33.62 33.91 32.74 33.10 32.47 32.02 32.79 32.83 32.81 32.99 32.71
38.67 38.10 37.28 36.28 36.38 36.30 34.72 35.01 37.02 35.51 35.79 32.61 32.08 31.56 30.20 30.79 30.60 31.03 31.59 30.38 32.16 33.68 33.85 34.09 33.12 33.38 34.35 34.27 32.93 34.35 34.29 33.65 32.97 33.25 33.14 32.64 32.41 32.27 32.49 32.15 32.57 32.57 32.46 32.27
35.91 35.68 34.73 34.35 33.68 33.59 32.92 32.75 32.12 31.39 31.26 29.28 28.30 27.37 27.80 29.14 30.61 30.13 29.39 28.52 31.25 32.66 31.94 31.91 33.32 34.20 34.50 33.15 33.10 32.68 33.91 32.46 32.10 32.64 32.28 32.28 31.90 32.10 32.21 31.74 31.56 32.10 31.92 32.28
35.68 33.61 33.72 34.75 34.15 33.33 32.19 31.05 30.10 28.67 27.76 27.28 27.69 27.27 26.20 27.02 28.00 28.82 29.38 28.73 30.36 28.72 30.52 30.82 31.49 31.30 32.49 31.50 33.12 32.12 32.78 33.19 32.43 31.51 30.60 29.76 29.39 29.03 28.67 29.31 29.60 30.52 31.65 32.10
35.67 34.44 33.07 32.19 32.87 31.58 30.05 28.65 28.93 27.89 26.02 25.77 25.79 24.91 24.97 26.25 26.87 25.29 24.70 27.75 27.59 28.01 28.26 29.10 29.52 28.29 27.40 30.50 31.69 31.18 30.91 29.86 29.00 28.25 27.02 26.08 25.34 25.14 24.89 24.56 25.03 25.53 26.85 28.34
35.40 34.44 32.86 31.28 29.78 28.69 27.41 27.69 27.54 27.83 27.33 26.60 26.67 25.67 24.78 23.92 24.81 26.54 27.24 26.05 25.22 25.46 26.90 28.56 24.86 22.85 24.68 27.81 27.39 26.61 26.71 26.84 25.11 23.95 24.08 23.06 23.45 22.93 22.72 22.31 21.69 22.45 23.10 24.23
32.23 31.05 29.64 28.69 28.78 28.39 27.01 26.13 26.51 26.42 25.31 25.12 24.86 24.98 24.27 24.89 23.47 24.45 24.84 24.52 22.33 22.42 22.98 22.91 20.62 19.16 22.36 22.00 22.03 21.29 21.77 21.98 20.51 20.34 19.93 20.35 20.24 19.39 20.35 19.72 19.39 19.73 20.81 21.47
31.09 30.62 28.61 26.76 26.20 26.04 25.19 24.42 23.51 24.23 22.86 22.75 22.80 23.08 23.75 23.95 23.29 22.54 21.86 21.00 20.51 20.25 20.24 20.44 19.46 18.03 17.76 17.44 17.85 17.27 17.36 17.59 16.08 15.17 15.17 16.18 16.31 16.41 15.92 15.66 15.55 16.46 17.59 18.71
26.23 26.33 27.66 27.28 25.41 23.91 22.65 21.84 21.46 20.45 21.46 21.10 18.88 22.18 22.27 22.10 21.28 20.61 19.68 20.00 19.10 18.90 18.54 18.38 18.04 16.32 15.00 14.60 14.80 14.71 14.13 13.89 12.94 12.25 12.58 12.79 13.03 13.04 12.60 12.39 13.05 14.32 15.16 16.08

GFSNGP_sfc_wetblb_048.txt.gz
Wetbulb
44.47 45.64 45.86 45.18 45.09 45.35 43.62 44.58 40.52 43.18 42.78 45.69 47.32 48.80 50.33 51.40 51.64 51.43 51.96 54.26 55.05 55.47 55.25 55.03 54.15 53.37 52.34 49.88 49.12 48.50 48.28 46.71 45.91 45.26 45.29 44.47 44.48 43.49 43.14 42.90 41.97 41.83 41.26 40.85
43.43 46.23 45.44 43.04 44.49 44.80 44.69 44.66 44.14 44.81 43.98 48.98 49.97 50.41 49.34 49.61 49.21 49.85 50.89 53.23 54.79 55.22 54.76 53.93 52.86 51.63 49.53 48.96 48.28 48.70 46.30 44.69 44.72 44.13 43.85 43.82 42.76 42.65 42.03 41.58 41.00 40.71 39.95 38.84
39.49 42.72 40.98 35.49 42.51 43.46 44.30 45.82 45.45 41.34 46.58 49.42 48.25 48.14 48.76 49.64 49.82 50.52 50.87 51.91 53.90 54.03 53.90 53.06 51.24 50.44 48.14 48.11 47.27 44.83 44.42 44.12 43.61 42.95 42.42 41.82 41.85 41.45 40.67 39.65 39.87 39.04 37.37 36.83
39.78 35.72 30.82 42.57 46.49 45.09 43.50 44.44 45.46 45.43 46.58 47.28 48.20 49.53 49.97 51.25 50.88 51.15 52.37 52.27 53.81 53.64 52.81 51.84 50.03 49.26 47.85 46.07 44.83 44.26 43.24 42.30 41.89 41.45 41.11 41.32 40.97 40.29 39.55 39.34 38.46 37.29 36.03 36.30
37.10 36.18 40.25 42.39 44.10 43.35 42.42 42.18 46.52 45.36 46.31 47.46 48.58 49.01 49.63 51.46 51.23 50.74 51.98 53.19 53.63 53.16 51.48 49.41 48.29 46.65 44.68 44.30 43.80 42.65 40.68 40.10 40.69 40.93 40.09 40.05 39.19 38.96 39.29 38.40 37.43 35.49 35.90 35.49
38.66 35.96 30.74 42.95 45.45 47.49 46.37 38.56 46.55 46.58 46.79 46.85 47.56 42.96 46.00 50.94 51.52 51.26 52.58 53.02 52.10 49.60 48.29 46.83 44.60 44.90 43.61 41.00 40.39 39.74 40.07 40.16 40.58 40.16 39.50 38.76 38.87 38.79 38.62 37.71 36.46 35.20 34.48 35.10
38.21 37.29 40.93 46.79 46.90 47.67 37.66 40.65 47.95 48.10 48.12 48.62 46.25 48.56 50.16 51.34 51.39 52.32 52.09 51.09 48.63 47.05 45.24 43.81 43.16 42.41 40.48 40.13 39.05 40.21 40.57 40.21 39.82 39.75 39.05 38.92 38.77 38.60 37.46 36.46 34.47 32.84 32.44 32.51
42.01 34.82 33.01 47.36 45.85 41.70 47.25 49.84 49.11 49.39 49.79 49.84 50.57 50.72 50.55 50.11 50.85 50.39 46.93 45.61 45.34 43.34 41.81 42.00 41.29 39.70 37.56 37.49 39.68 40.28 39.52 39.07 38.69 38.73 38.63 38.52 38.04 37.68 36.68 34.82 31.99 31.47 30.30 31.08
43.25 42.38 49.18 49.27 48.32 50.46 50.45 48.98 49.30 49.26 49.60 49.83 49.39 49.41 50.00 49.21 48.02 45.65 43.64 41.66 41.76 40.06 38.80 39.37 39.56 38.58 37.09 38.47 39.06 38.88 37.87 37.36 37.47 38.11 38.22 37.98 36.93 36.00 33.25 32.26 30.27 30.22 29.96 29.27
44.83 46.48 47.21 48.55 50.03 50.47 50.19 49.37 50.12 50.69 49.84 49.82 49.09 50.08 49.06 47.63 43.49 41.34 40.58 39.27 39.27 38.17 37.49 37.63 38.87 39.01 38.64 38.94 38.87 37.64 36.52 36.58 36.82 36.53 36.27 36.13 36.44 35.84 33.49 31.25 29.88 30.11 29.50 29.12
45.11 46.74 47.70 48.47 48.84 48.96 49.56 50.11 49.72 49.17 47.59 47.73 49.13 47.31 44.50 41.22 39.22 38.17 37.32 37.29 37.68 37.32 36.90 37.36 39.06 38.77 38.69 38.82 38.54 36.48 36.57 36.61 36.18 35.83 35.64 35.04 35.77 34.74 31.91 32.44 31.92 30.51 29.99 30.06
44.34 47.15 47.19 45.21 46.45 48.10 46.35 45.48 46.12 44.20 41.55 42.11 42.24 39.67 39.01 37.50 37.42 36.43 36.01 36.93 37.31 38.02 38.03 38.06 37.83 37.52 38.09 38.71 38.26 36.41 35.46 35.10 33.84 33.62 33.47 33.50 33.65 32.56 34.38 32.79 33.19 32.97 32.55 30.90
47.04 48.97 47.51 45.46 45.36 45.71 43.92 43.28 42.68 41.41 40.63 38.60 38.68 37.71 36.60 35.63 36.44 35.68 37.41 37.74 37.84 37.15 37.06 37.16 37.00 37.05 38.10 38.22 37.61 35.60 34.01 33.69 33.83 32.64 33.62 33.33 31.82 32.19 31.23 33.01 34.03 33.17 32.72 32.30
47.48 47.98 44.15 45.31 40.98 42.66 41.53 40.39 40.36 39.77 39.27 38.54 38.15 38.36 37.95 37.45 36.37 37.40 37.43 37.78 37.85 37.17 36.95 37.10 37.08 37.30 38.99 39.08 37.32 34.90 34.97 33.13 33.58 34.05 34.09 34.69 33.37 32.35 32.06 31.01 29.30 30.44 32.82 31.83
44.79 45.82 44.40 43.12 41.55 39.86 40.36 39.53 38.24 37.45 37.75 37.94 39.12 38.59 38.09 36.86 36.40 36.61 37.50 37.82 37.48 36.81 36.68 36.75 35.68 35.17 37.66 37.63 36.51 35.50 35.22 35.22 35.04 35.00 34.44 33.52 32.40 32.14 31.08 30.99 31.08 30.57 31.32 30.23
42.86 42.76 42.17 40.07 38.87 38.56 38.79 38.18 37.02 37.42 38.18 37.01 36.40 36.29 36.40 36.17 35.97 36.41 37.24 36.14 33.77 33.20 33.77 31.30 32.01 34.60 36.79 38.30 37.19 36.38 35.99 34.26 33.51 34.17 33.50 32.52 33.75 32.17 32.08 31.30 30.69 30.65 30.18 29.91
39.06 37.06 37.36 36.77 37.08 37.82 38.06 38.56 37.30 36.09 35.88 34.90 33.96 33.72 34.52 33.72 33.80 33.90 35.07 34.60 33.11 32.62 32.67 32.76 33.35 37.31 35.45 36.92 35.93 34.83 34.34 34.52 33.44 33.58 33.34 33.78 33.10 32.31 31.92 31.79 30.57 30.05 29.46 30.44
41.68 40.20 40.20 39.47 38.37 37.48 36.18 35.92 35.96 34.97 33.86 33.51 31.55 31.01 30.42 29.87 31.46 31.63 30.71 31.08 29.37 29.11 31.95 33.23 32.76 32.77 32.59 33.62 33.06 32.44 32.08 31.98 32.26 32.29 32.79 32.68 32.15 32.45 32.00 30.88 30.24 29.64 30.45 30.22
40.90 39.48 39.28 38.80 38.07 36.88 35.86 35.00 34.62 33.91 31.46 30.09 30.08 29.74 29.89 29.78 28.75 29.32 30.37 27.00 27.15 28.69 30.28 31.31 29.88 30.47 31.15 32.32 31.79 31.92 31.41 31.76 31.01 31.49 32.17 31.58 31.48 31.15 30.60 29.91 29.36 29.53 30.70 30.25
38.14 37.91 37.07 36.04 36.14 34.90 33.60 34.25 33.86 33.42 31.21 28.31 25.71 24.88 25.66 24.34 25.09 25.91 26.65 27.27 29.47 27.58 27.85 28.22 28.37 28.14 28.36 29.82 29.30 29.76 30.35 30.29 29.57 29.57 31.56 31.17 31.75 31.04 30.49 29.46 29.56 29.56 30.78 31.43
35.95 35.00 33.66 32.87 31.94 31.46 30.50 29.99 28.40 28.55 28.15 24.36 24.55 23.53 22.85 24.20 25.71 24.21 25.57 25.16 27.58 26.14 26.35 25.63 26.19 27.08 27.26 24.69 25.83 28.68 29.77 29.13 29.17 29.58 29.82 30.89 30.12 28.16 27.33 27.31 27.79 28.42 28.11 28.79
34.44 33.13 32.17 32.40 32.02 30.43 29.85 29.66 28.62 25.82 25.30 22.22 20.94 20.06 20.39 23.88 23.37 24.43 23.47 24.26 25.28 23.58 23.83 24.59 24.53 20.06 20.51 20.96 26.03 26.59 27.23 26.90 27.17 27.74 27.52 26.83 25.84 24.36 23.67 23.94 23.15 22.89 23.58 24.04
34.10 33.54 32.62 31.58 30.50 29.62 28.70 27.31 26.31 25.18 22.97 21.54 22.04 22.65 22.99 23.17 24.57 22.21 21.00 24.12 24.13 21.41 22.37 23.07 19.60 16.45 16.44 21.83 21.65 21.76 21.37 23.06 21.18 21.06 22.45 22.66 23.09 22.57 21.94 21.98 20.93 21.05 20.67 20.99
34.62 34.05 32.19 30.83 29.74 28.87 27.31 26.58 27.21 27.13 23.29 24.50 22.84 20.82 22.61 22.22 22.66 24.51 23.87 21.47 19.30 18.91 20.06 20.96 18.04 15.87 15.63 18.04 17.76 17.50 17.55 18.56 16.22 16.45 16.65 18.14 19.20 18.57 18.97 18.06 16.61 17.25 17.67 18.28
32.07 31.05 30.01 29.52 29.02 27.36 26.41 25.56 26.36 25.76 24.20 24.24 23.95 23.49 23.05 24.16 21.70 21.81 21.69 21.12 19.35 19.55 19.57 19.32 18.15 14.82 15.67 15.48 15.11 14.52 14.19 14.99 13.59 13.06 12.75 13.69 13.50 14.27 14.42 13.82 13.29 12.99 13.94 14.48
31.75 29.75 27.31 26.52 25.49 25.32 24.20 23.93 22.85 23.16 21.73 21.86 21.62 21.81 23.43 23.31 22.39 21.22 20.94 19.18 19.34 18.25 18.08 17.97 17.27 16.43 15.16 14.08 13.64 12.80 12.51 12.15 10.84 10.84 10.64 10.70 10.57 11.25 10.61 10.94 10.92 11.26 11.98 12.15
26.65 27.77 27.56 26.07 24.49 23.34 21.85 21.75 20.85 19.43 20.66 19.91 17.79 19.94 22.03 21.40 20.74 19.15 17.31 18.14 17.74 17.09 16.22 15.86 15.78 14.84 14.03 12.82 12.41 11.91 11.54 10.90 9.52 10.22 9.59 8.29 8.55 8.00 8.04 8.77 9.45 10.62 10.49 10.79

GFSNGP_sfc_wetblb_051.txt.gz
Wetbulb
40.88 42.49 43.26 42.58 41.83 42.07 41.12 40.04 34.15 37.61 39.48 42.55 42.39 43.26 43.41 45.66 46.58 46.91 48.51 50.33 51.02 50.77 51.65 51.70 51.40 49.96 47.81 47.48 47.25 47.53 46.67 45.22 42.40 42.90 42.90 43.06 42.22 41.19 41.21 40.99 40.54 40.38 40.16 38.88
37.66 43.07 41.92 38.59 41.11 41.34 41.03 41.26 40.06 39.58 39.14 43.89 44.73 44.90 44.43 44.79 45.37 45.96 46.39 49.16 50.64 51.69 51.65 50.95 49.99 47.17 47.02 46.34 46.46 47.00 43.35 42.73 42.79 42.64 42.58 41.21 40.24 39.82 40.18 39.62 39.13 39.38 38.36 37.00
31.79 37.11 36.79 29.61 37.83 39.75 40.98 41.60 40.24 35.41 40.00 43.74 43.31 44.23 43.86 44.30 45.85 45.95 46.83 48.22 49.94 50.10 50.35 49.72 47.52 46.87 46.12 46.17 44.43 43.09 42.22 42.50 42.37 42.10 40.65 39.89 39.97 39.72 38.87 38.06 38.28 37.50 36.28 35.76
29.70 29.64 21.79 38.06 43.36 42.18 40.60 40.98 41.45 41.47 42.64 43.41 43.12 44.48 45.06 44.94 44.58 45.63 47.48 48.09 48.90 47.79 45.91 45.95 46.36 46.41 44.40 43.48 42.80 41.95 41.49 40.14 40.30 39.72 39.07 39.18 39.62 38.99 37.86 37.70 36.86 35.67 34.36 34.46
27.61 27.25 34.84 39.09 41.07 40.56 38.55 37.41 42.03 41.16 42.27 43.49 44.69 44.95 44.07 46.91 46.51 46.04 47.14 47.10 45.86 44.89 43.34 41.53 41.30 42.07 42.48 41.92 41.03 39.37 38.10 38.20 39.25 39.37 38.85 38.72 37.88 37.17 37.18 36.28 35.34 34.36 34.66 34.02
29.52 25.62 21.05 36.21 42.15 44.87 43.05 31.09 43.13 43.34 42.90 43.37 42.86 35.26 39.80 45.85 47.32 46.66 46.50 44.77 42.87 40.98 40.66 39.46 39.02 39.13 38.06 37.29 37.84 36.89 38.56 38.73 39.51 39.37 38.52 37.36 36.96 36.10 36.29 36.06 34.81 33.61 32.71 32.63
25.21 24.70 32.07 44.00 44.27 45.23 30.12 32.39 43.69 44.32 43.89 43.71 42.02 42.73 44.88 47.05 42.79 43.00 42.90 40.75 40.54 39.52 37.75 37.51 38.38 38.08 36.90 36.98 36.44 38.37 39.44 39.39 38.96 38.82 37.45 36.68 36.23 36.47 35.70 34.37 32.41 30.67 30.99 30.96
31.18 30.84 27.77 44.65 43.16 36.50 41.21 43.56 44.30 44.16 44.17 44.06 44.52 45.96 46.20 43.69 40.38 38.85 37.84 37.69 37.64 36.44 35.72 36.05 36.99 37.86 36.81 36.03 38.46 39.32 38.60 37.97 37.48 37.15 36.94 36.74 35.46 35.02 34.37 32.20 30.01 29.52 24.65 27.64
36.22 34.87 43.39 45.00 44.36 45.66 45.83 44.26 44.41 44.60 45.43 46.04 45.45 45.60 43.17 38.00 37.50 37.23 36.84 36.64 37.25 36.28 36.75 37.13 37.50 37.63 36.40 36.29 37.50 37.48 36.25 35.40 35.55 35.73 35.40 35.10 33.46 32.51 30.44 29.77 26.88 27.47 27.78 25.82
38.35 42.40 43.37 45.52 46.53 46.84 46.88 45.91 45.41 44.29 44.07 45.68 44.66 44.25 38.67 37.69 36.43 36.14 36.38 36.13 37.25 36.91 36.18 36.31 37.16 37.56 36.93 37.86 37.57 35.52 33.95 33.75 34.03 33.45 33.06 32.77 33.06 32.79 30.55 27.05 25.92 27.50 27.25 26.99
39.54 43.47 43.98 43.74 44.81 45.54 45.11 44.96 41.17 41.06 40.55 40.10 39.12 37.49 36.53 35.14 35.27 35.83 35.74 36.30 37.07 36.01 35.39 35.44 36.85 37.07 36.89 35.98 36.14 33.91 33.38 33.18 32.91 32.44 31.72 31.53 32.46 31.71 30.21 29.02 28.32 27.09 27.13 27.69
34.20 43.00 41.77 40.61 42.99 43.86 41.36 40.63 40.72 39.05 37.67 38.02 37.59 36.39 36.33 34.91 35.16 35.76 35.98 36.92 35.82 36.01 35.64 34.83 34.01 33.83 34.54 35.03 34.56 32.98 32.15 31.67 30.07 29.42 29.35 29.76 29.79 31.25 32.84 31.88 32.36 33.18 33.15 30.29
42.77 43.55 41.89 41.07 41.10 41.55 39.61 39.08 39.06 37.86 37.26 34.94 35.03 34.87 35.19 35.13 35.93 36.10 35.83 35.80 35.40 33.39 33.50 33.26 33.10 32.96 34.09 34.61 33.87 31.79 29.75 29.88 29.99 30.19 29.88 29.95 29.98 29.68 31.41 31.69 33.49 33.35 33.46 33.55
44.68 43.02 39.34 40.29 37.46 39.28 38.73 38.25 38.35 37.09 36.62 36.35 35.62 35.46 34.89 33.91 34.34 34.88 34.42 33.94 34.26 33.68 33.24 33.08 33.10 32.72 34.06 34.68 33.61 31.44 30.70 30.56 30.68 30.87 30.45 30.80 30.49 31.17 32.22 31.15 29.60 29.38 30.61 31.97
41.48 42.46 39.59 39.13 38.76 37.96 37.71 37.38 36.62 35.52 35.43 35.19 35.57 34.16 33.78 33.09 32.52 33.71 34.38 34.25 33.57 33.13 32.73 32.51 31.25 31.36 33.90 34.03 33.45 32.18 31.86 29.68 29.53 29.19 30.19 30.24 32.01 31.35 31.31 30.75 29.00 28.56 28.93 27.68
40.29 39.29 37.94 36.78 37.36 37.75 37.26 35.70 33.97 35.15 34.53 33.90 32.58 32.33 32.90 33.43 32.92 33.44 32.94 31.11 29.03 27.93 28.97 24.74 27.67 30.73 32.48 33.32 31.95 30.72 30.87 28.89 27.60 29.59 29.82 30.44 30.19 30.04 31.73 31.39 30.94 30.82 28.75 28.06
36.46 35.53 36.08 35.86 36.23 36.63 36.90 36.31 35.10 34.03 32.71 30.69 28.90 29.59 30.18 30.20 29.99 28.42 28.49 28.75 26.06 23.63 26.45 26.79 26.78 28.79 28.73 30.23 29.49 28.95 28.89 29.02 27.57 28.61 28.57 28.76 29.14 29.72 30.81 31.00 29.17 30.42 29.23 25.91
38.93 38.39 38.85 38.14 35.66 34.14 34.26 33.98 31.91 30.59 29.63 29.03 29.56 28.83 26.56 23.94 24.99 26.30 26.90 26.04 21.32 21.88 25.20 25.99 25.70 26.37 26.61 27.24 26.90 26.88 26.39 26.78 27.14 27.26 28.02 27.26 27.10 29.03 30.59 29.94 29.12 25.16 25.34 24.92
40.21 39.08 38.62 37.65 35.88 34.63 33.06 31.41 29.91 28.72 27.16 27.67 23.88 23.05 22.14 20.26 25.12 26.15 25.07 17.10 19.32 20.83 23.29 24.52 24.52 24.66 24.60 24.15 22.43 21.83 22.88 24.10 25.87 27.20 27.50 27.51 27.26 28.30 29.96 29.91 28.28 22.71 24.99 24.40
35.45 35.35 34.88 33.40 33.08 32.02 31.18 31.03 28.30 26.44 26.85 23.14 18.88 16.86 18.65 16.12 14.14 13.69 15.99 20.20 22.39 21.94 22.88 23.10 22.80 19.96 19.71 19.80 19.13 21.74 22.76 22.78 23.57 25.12 25.94 25.59 27.19 27.81 27.34 25.94 25.08 23.27 23.67 23.24
33.13 31.98 30.40 29.98 28.85 28.14 26.40 25.68 25.51 24.59 24.94 17.38 17.02 11.70 11.00 14.20 14.68 12.30 17.50 20.18 21.80 19.94 20.88 20.62 18.88 16.59 17.08 16.51 20.31 19.51 18.60 18.61 17.98 17.97 19.17 19.48 20.84 22.33 22.41 22.47 21.01 19.65 19.05 19.01
32.61 30.77 29.45 28.22 27.39 27.03 26.99 26.00 24.89 20.86 18.95 13.84 8.30 8.54 10.15 19.22 15.09 17.36 13.36 19.16 20.83 13.20 17.76 20.38 17.48 11.01 14.42 13.94 16.25 15.03 14.38 15.99 13.24 13.85 13.90 14.71 16.57 16.55 17.74 17.94 16.87 17.39 17.11 16.74
31.66 31.34 29.92 27.55 25.97 25.45 26.10 24.54 19.21 18.30 13.97 12.10 10.67 12.98 15.73 19.55 19.52 15.37 15.54 20.08 19.76 15.49 18.32 17.42 9.05 8.29 7.86 11.63 11.63 11.60 10.45 11.99 9.88 10.00 10.35 11.89 12.48 12.73 13.81 12.70 12.90 13.12 13.29 14.14
30.69 29.86 28.02 27.91 26.14 25.14 23.15 24.10 24.40 22.79 14.73 17.87 12.64 9.95 16.96 11.56 9.20 19.32 19.36 13.77 9.16 7.45 7.99 12.19 9.99 8.52 4.07 2.11 4.04 7.10 6.37 9.40 7.58 7.22 8.00 9.18 9.09 10.48 10.08 9.92 9.94 10.51 11.25 11.78
29.60 28.78 28.09 25.86 24.43 22.66 22.82 23.44 23.02 22.15 21.45 21.72 19.85 20.47 19.76 19.05 10.80 12.45 9.42 9.55 11.82 10.02 7.09 7.56 8.93 7.70 2.81 -1.25 -1.02 -0.66 0.02 3.95 3.49 6.07 5.78 6.12 5.89 7.05 6.45 7.39 7.95 8.36 9.45 9.98
27.00 23.82 23.04 23.21 22.01 21.21 21.18 21.36 19.38 18.61 18.10 13.19 13.23 7.31 11.91 13.01 12.19 11.67 8.47 8.04 9.66 9.54 6.74 2.98 2.29 1.05 2.14 0.95 -1.24 -1.01 0.34 6.18 2.97 5.32 5.21 2.29 3.02 3.91 3.37 4.81 5.56 7.07 7.58 7.96
24.60 23.31 22.26 20.93 21.71 20.68 19.51 18.14 13.99 12.25 12.20 5.46 6.20 6.45 13.59 10.96 5.56 9.76 3.46 0.68 1.21 5.01 0.15 -1.06 1.75 0.09 1.25 6.16 -0.57 0.58 -1.43 -0.55 -2.11 3.88 2.11 -4.73 -0.57 0.09 0.58 1.85 3.76 4.63 5.52 6.96

GFSNGP_sfc_wetblb_054.txt.gz
Wetbulb
39.77 40.66 41.25 39.69 39.37 39.57 38.32 37.89 32.86 36.30 36.80 41.00 41.27 41.81 42.28 43.78 44.27 47.39 49.60 49.99 49.83 48.62 49.68 51.02 51.57 48.58 47.32 47.91 48.01 48.41 46.83 44.67 44.70 42.86 41.44 42.14 41.34 39.24 40.52 39.45 39.55 40.29 39.83 38.28
35.30 39.06 39.15 36.69 38.79 38.89 39.35 39.42 38.66 38.11 37.70 41.18 41.67 41.96 42.13 42.45 44.14 44.33 46.00 47.10 48.94 50.43 50.77 50.55 48.46 46.30 46.44 46.72 46.57 45.53 42.13 41.52 42.04 42.07 41.77 41.01 39.41 39.28 38.59 39.56 39.33 38.60 37.71 36.90
30.83 34.71 35.02 29.53 36.20 38.47 39.27 39.48 39.27 34.02 37.97 40.91 40.53 41.41 41.41 42.25 43.78 44.32 45.69 48.11 48.95 49.81 49.83 48.54 46.52 46.83 44.92 43.30 41.60 40.57 40.30 41.33 42.12 42.10 40.25 39.57 39.53 39.15 38.48 37.45 37.38 36.61 36.25 35.56
28.09 28.50 22.09 37.40 42.26 41.12 38.45 38.58 39.46 39.97 39.86 41.45 41.77 41.85 42.44 42.77 43.49 44.84 45.67 45.64 44.88 44.35 43.41 43.68 43.40 41.46 41.21 41.29 40.98 39.50 38.56 39.75 39.87 38.89 38.51 39.52 39.13 38.20 36.73 36.63 35.82 35.08 34.41 34.21
27.02 26.97 33.16 37.74 39.55 37.84 36.52 35.45 40.45 39.33 40.63 42.54 43.25 43.03 42.36 44.60 44.46 42.90 41.76 39.98 38.97 39.31 39.53 39.73 40.06 40.24 38.78 37.17 37.97 37.96 38.11 38.44 39.18 39.96 39.41 38.64 36.73 36.26 35.85 34.64 34.25 33.67 33.94 33.03
28.47 24.91 21.87 34.62 40.02 42.57 41.23 30.19 41.11 42.26 41.92 41.45 40.64 33.81 38.20 40.92 41.10 38.85 38.59 38.46 37.39 37.52 37.77 37.36 37.05 37.83 36.81 35.65 36.54 36.28 38.19 38.81 40.45 39.85 37.77 37.12 36.33 35.23 34.35 33.87 33.48 32.65 31.82 31.54
22.91 23.32 29.12 39.25 42.72 42.75 29.92 31.03 41.86 42.73 42.56 41.84 40.30 40.31 39.77 38.74 38.14 38.38 37.03 35.71 35.92 35.74 34.81 35.44 36.88 37.45 36.68 36.90 36.56 38.04 39.97 39.93 38.53 38.11 36.88 36.19 34.47 33.99 33.58 32.43 30.88 30.12 30.04 30.04
28.34 24.49 25.86 43.34 41.82 35.60 37.81 41.56 42.65 42.52 42.30 42.49 43.15 40.54 37.68 37.30 36.23 35.79 35.06 35.26 35.73 35.23 35.90 37.47 38.30 37.92 36.30 35.15 37.40 38.28 36.85 36.38 35.62 35.39 35.09 34.75 33.07 32.37 32.30 30.60 29.21 28.93 24.78 27.55
34.24 32.74 41.11 43.08 42.38 43.49 44.00 42.75 42.70 42.83 43.77 44.32 40.10 37.15 36.87 35.59 35.53 35.50 35.44 35.22 36.95 36.09 35.84 36.81 36.85 36.11 35.22 35.68 35.94 35.81 35.10 34.14 33.55 33.89 33.45 32.81 31.57 31.10 29.29 28.65 26.38 27.21 27.73 27.67
37.18 40.64 41.91 43.44 44.67 44.90 43.99 40.58 40.54 41.46 43.10 42.98 36.75 36.62 35.54 35.24 34.65 34.47 36.17 36.12 36.83 36.11 35.47 34.71 36.29 36.28 35.58 36.23 36.06 34.34 32.80 32.40 32.19 31.32 31.37 31.12 31.06 31.01 29.37 27.43 26.75 27.77 27.43 27.09
38.54 41.04 41.88 42.33 42.80 41.17 40.00 39.97 38.74 38.87 38.84 38.20 36.82 35.39 34.77 34.67 35.25 35.34 35.93 36.66 36.77 35.71 34.63 34.35 34.90 34.38 33.78 33.71 33.86 32.20 31.61 31.51 31.25 30.93 30.48 30.16 30.79 31.03 30.51 30.23 30.09 29.78 27.62 27.23
33.56 42.38 39.97 39.45 40.08 41.10 39.07 38.35 38.06 36.76 35.92 36.70 36.14 34.62 34.33 34.59 35.53 36.21 36.11 36.26 35.57 33.76 31.71 31.03 31.59 31.68 32.39 33.31 32.81 31.07 30.23 29.72 28.76 28.77 29.04 29.15 29.56 30.67 33.00 32.18 32.54 32.24 32.94 29.96
41.27 41.66 40.02 39.22 39.23 39.67 37.63 36.99 36.64 35.44 35.01 33.54 34.18 34.22 34.76 35.76 36.00 35.35 35.54 33.01 31.20 30.93 31.30 31.20 30.80 30.91 32.59 32.96 32.36 30.86 29.21 29.58 29.04 28.78 29.14 29.22 29.85 29.73 29.34 32.14 33.31 33.21 33.43 33.50
40.87 40.02 37.21 37.85 35.37 37.46 36.52 36.05 36.34 35.27 35.07 34.98 34.43 33.91 34.10 33.98 32.36 31.61 31.22 31.59 31.56 30.67 30.12 30.27 30.66 30.85 31.84 32.20 31.42 29.67 29.09 29.52 28.94 28.21 28.14 28.90 28.32 28.70 29.40 29.80 29.93 31.03 32.85 32.33
39.27 40.31 38.17 37.19 36.41 35.70 36.16 35.70 34.35 33.47 32.41 31.26 32.10 31.74 32.15 31.83 31.33 30.08 29.67 29.35 28.61 29.04 29.66 29.29 27.98 26.88 28.50 29.21 28.48 27.56 27.22 27.12 27.75 27.52 27.35 26.71 27.02 27.45 27.86 28.16 28.78 29.51 31.31 28.40
37.30 37.20 36.39 35.01 35.06 35.46 35.31 34.16 32.31 31.14 31.62 31.04 30.31 30.73 31.46 30.90 29.18 28.34 28.12 27.85 26.58 25.38 25.91 20.38 23.47 25.14 26.70 26.96 25.98 25.83 25.93 24.84 24.05 25.02 25.54 26.08 26.27 26.68 26.79 26.61 27.02 28.21 29.82 29.24
34.09 33.25 34.65 34.84 35.19 34.69 34.22 33.30 32.25 30.48 29.60 28.54 28.30 28.61 28.07 26.78 26.92 26.57 26.80 26.15 22.28 21.89 23.45 22.25 22.30 25.01 25.54 24.49 21.72 20.86 20.80 22.09 22.18 24.00 24.08 25.51 26.55 26.88 26.50 25.91 26.11 28.14 29.33 30.48
37.71 37.10 37.69 37.15 35.44 33.38 32.86 32.01 30.64 29.52 28.65 29.00 26.65 22.71 21.85 22.68 24.77 25.25 24.06 21.35 18.86 19.64 22.54 22.94 22.97 21.44 21.08 21.08 21.13 20.98 20.89 21.14 21.94 22.09 23.68 24.49 24.24 24.42 24.73 25.20 25.99 27.31 28.25 26.71
38.81 37.56 36.37 35.63 34.87 32.75 30.66 29.15 28.44 28.73 26.54 24.47 22.86 21.50 21.43 20.25 23.56 22.74 21.82 15.87 15.46 17.94 19.74 21.82 20.88 18.37 18.29 18.88 19.68 20.09 18.33 16.28 17.90 17.48 17.82 17.51 18.10 19.70 20.87 21.75 21.28 21.19 21.13 21.73
36.51 35.72 34.72 33.65 32.64 30.19 27.26 26.94 27.04 25.56 24.36 21.02 18.62 18.51 20.05 16.71 12.26 14.25 18.01 18.07 18.08 18.45 21.42 19.11 17.69 16.72 16.83 16.81 15.43 16.23 13.72 14.13 13.03 12.46 12.36 12.65 14.66 14.44 15.32 17.55 17.06 17.94 16.97 17.60
32.27 31.78 30.50 29.77 29.07 28.66 26.47 25.04 24.41 23.32 21.90 17.62 16.98 14.22 13.13 14.68 13.10 11.50 15.89 18.18 18.84 18.59 19.84 17.39 15.59 14.69 15.13 11.99 13.48 11.06 9.10 11.42 8.38 8.40 7.70 8.58 10.04 9.73 12.39 10.80 11.83 12.62 13.16 14.47
30.76 29.02 27.62 27.30 26.43 25.92 25.99 25.35 24.33 21.49 18.82 15.20 12.44 10.07 11.91 18.22 14.15 14.73 11.08 16.99 18.85 10.11 16.43 17.08 15.28 6.34 10.54 6.65 11.76 4.41 8.67 8.99 6.11 5.75 5.38 6.58 6.84 6.36 7.77 7.28 8.05 8.92 10.22 11.35
29.13 28.30 27.33 26.08 25.13 25.13 24.77 22.75 19.90 19.18 16.28 14.69 12.22 12.14 15.54 19.07 17.65 12.01 12.09 18.50 18.69 12.50 16.69 12.13 5.08 2.57 1.87 -2.02 -3.04 -4.49 -3.04 -1.23 -2.53 2.37 0.85 4.04 3.03 4.16 5.13 4.53 5.94 6.61 7.33 8.61
29.43 28.37 27.17 26.44 25.71 24.30 22.13 22.45 23.18 20.83 15.76 15.76 9.81 6.56 16.03 10.05 6.97 17.55 17.24 10.08 4.74 2.91 2.19 3.95 2.22 3.30 -0.53 -6.30 -7.03 -7.76 -6.12 -3.04 -6.12 -4.31 2.40 -2.52 -4.18 2.19 1.02 1.20 2.93 3.88 5.63 6.63
28.53 27.74 26.14 25.09 23.31 22.38 24.02 22.95 21.68 21.83 20.10 18.92 17.41 18.10 18.13 17.39 9.66 10.53 5.28 5.69 7.82 6.11 2.25 0.03 1.66 0.04 -5.58 -7.39 -9.21 -7.94 -9.75 -7.21 -9.03 -8.31 -2.16 -9.03 -4.26 -1.87 -2.31 -1.08 -0.05 1.15 3.35 4.19
26.04 24.05 23.37 22.71 21.63 21.51 21.19 19.96 17.24 17.40 15.86 9.77 10.80 2.46 8.75 11.66 11.40 9.28 3.51 2.26 4.61 3.42 -0.23 -5.94 -7.03 -7.39 -8.30 -3.05 -5.22 -6.67 -7.76 -4.44 -9.06 -5.76 -5.76 -10.29 -8.52 -4.05 -4.68 -3.84 -3.16 -0.76 -0.12 1.08
22.63 22.00 21.29 20.64 20.92 20.16 18.88 16.78 11.65 10.72 9.79 4.25 4.99 2.52 11.91 7.00 2.84 4.04 -3.77 -5.94 -6.12 -4.13 -7.39 -7.57 -7.57 -6.49 -6.49 -8.30 -6.12 -1.27 -5.94 -8.84 -10.84 -7.57 -13.38 -15.55 -12.49 -9.86 -7.78 -6.33 -4.17 -1.46 -1.54 -1.16

GFSNGP_sfc_wetblb_057.txt.gz
Wetbulb
37.83 38.46 39.01 38.47 38.80 38.64 37.10 36.07 32.15 34.95 34.89 39.23 40.38 41.42 41.35 42.09 42.59 45.51 48.28 48.95 48.08 47.34 48.42 49.53 48.45 47.41 47.16 47.37 48.34 48.56 47.78 46.95 47.32 46.49 44.82 41.24 40.12 39.47 40.78 40.42 39.84 39.58 38.94 38.01
34.38 37.29 37.87 36.12 38.79 37.72 37.62 37.26 37.08 36.65 35.99 39.38 39.44 40.53 40.46 41.06 42.85 43.83 45.61 46.85 48.65 48.59 49.12 49.57 47.15 45.97 46.84 47.33 47.82 48.04 46.76 43.94 42.73 41.81 41.57 41.05 41.04 39.67 39.38 39.37 39.47 38.72 37.18 36.21
29.98 33.37 33.25 29.63 35.02 37.53 38.04 38.44 37.77 33.15 37.55 39.07 38.91 40.05 39.64 40.89 42.88 43.79 45.85 47.18 47.77 48.38 48.30 46.65 45.50 46.07 45.20 43.08 41.45 41.28 42.29 42.19 41.91 41.64 39.89 39.38 39.26 39.32 38.84 37.95 37.58 36.65 35.91 35.11
27.08 28.30 21.43 36.03 39.95 39.98 37.63 36.70 37.45 37.66 38.82 39.31 39.07 40.19 41.12 41.57 42.20 42.79 42.24 41.59 41.52 42.09 42.26 41.24 40.37 39.69 39.89 40.32 40.60 40.73 40.06 39.44 39.24 39.45 39.44 40.42 40.73 40.13 37.69 36.67 34.54 34.02 33.94 33.86
26.91 27.15 31.52 36.70 37.11 36.92 35.91 34.38 38.42 38.03 39.08 40.30 41.09 40.71 40.36 40.65 39.05 37.18 36.65 36.42 35.99 37.56 38.36 38.54 38.44 38.62 37.89 37.61 38.89 38.37 38.10 38.93 40.52 41.14 40.97 40.58 38.28 36.74 35.63 33.39 32.58 32.70 33.07 32.51
25.82 24.79 23.30 35.24 39.53 41.14 39.73 29.67 40.10 40.12 39.78 40.31 39.11 32.22 37.05 37.48 37.11 35.89 35.88 35.90 35.51 35.88 35.96 35.34 35.11 36.43 35.80 36.04 37.40 37.11 38.50 40.11 41.05 39.98 38.85 37.09 35.52 33.94 33.19 32.23 32.10 31.56 30.73 30.54
22.93 23.93 30.05 37.83 41.10 40.67 30.24 31.56 40.40 41.60 40.68 39.85 38.01 37.36 37.15 36.59 34.58 34.69 34.41 34.23 35.26 35.33 34.59 35.01 36.38 36.85 35.31 35.25 36.29 38.66 40.14 39.27 38.85 37.34 36.64 35.26 33.21 32.20 31.90 30.72 29.91 29.33 29.45 29.56
26.07 21.55 26.82 41.10 39.65 34.39 36.59 39.70 41.40 41.42 41.71 40.58 36.40 36.03 35.35 34.59 33.92 33.71 33.23 34.01 35.05 34.48 34.45 35.31 36.42 36.38 35.15 35.78 37.69 37.86 36.59 35.45 34.91 34.22 33.82 33.34 31.27 30.64 30.24 29.28 28.47 28.32 25.00 27.63
33.93 32.99 39.90 41.54 39.96 41.07 41.79 41.61 41.51 41.93 42.18 39.63 36.03 34.78 34.48 33.43 33.62 33.68 33.60 33.15 34.35 35.79 35.80 35.67 36.70 36.14 33.99 34.42 35.14 34.99 33.71 32.48 32.32 32.61 31.80 31.17 30.01 29.55 28.63 28.39 26.48 27.55 27.87 27.93
36.50 39.54 40.53 41.71 42.26 41.65 42.09 41.30 41.93 42.75 41.67 38.61 35.34 34.97 33.99 33.71 33.39 33.21 33.68 34.35 36.35 35.74 35.40 35.46 36.30 35.08 33.62 33.39 33.68 32.43 31.07 30.87 30.61 29.58 29.94 29.80 29.72 29.44 28.49 27.08 27.24 28.76 28.86 28.38
36.62 39.20 41.38 41.78 39.57 38.86 38.58 38.71 37.91 37.92 37.95 36.79 35.61 34.09 33.73 32.75 33.20 34.51 35.55 35.88 36.12 34.94 33.32 31.68 31.69 31.27 31.99 32.14 31.87 30.52 30.22 30.03 29.86 29.36 29.06 29.34 29.41 28.81 29.55 30.06 29.75 30.05 30.58 29.98
34.32 40.88 39.68 40.11 38.96 39.48 38.00 36.92 36.98 35.93 34.93 35.65 35.11 33.75 33.73 33.50 34.85 35.38 35.07 34.38 32.25 31.95 31.06 29.87 30.49 30.89 31.52 32.18 31.09 29.61 28.87 28.63 28.15 28.18 27.78 28.03 28.05 28.55 31.75 31.63 32.48 32.89 33.04 31.15
40.70 43.38 39.32 38.58 38.08 38.21 36.56 35.55 35.65 34.99 34.54 32.78 33.70 34.10 34.75 34.34 34.76 33.40 32.33 31.76 30.89 30.05 29.47 29.72 28.54 27.15 28.00 28.91 29.43 27.66 25.92 26.67 26.61 26.89 26.83 26.50 26.62 26.43 25.83 28.91 31.39 31.54 31.99 32.47
39.91 39.18 36.00 36.85 34.70 35.81 35.18 35.02 35.51 34.24 34.27 34.54 33.76 33.55 32.13 31.44 31.44 30.97 30.12 29.10 29.02 29.42 28.52 27.31 25.20 24.40 26.18 27.36 26.46 25.41 25.19 25.85 24.54 24.04 23.79 24.12 23.75 24.75 25.77 25.46 24.92 26.00 29.18 29.90
38.11 39.08 37.79 35.91 35.09 34.15 34.66 34.29 32.87 31.81 31.55 30.49 31.62 31.33 31.63 29.11 26.58 25.95 26.88 28.55 27.91 24.95 23.76 23.78 23.24 23.60 25.64 25.84 24.13 23.91 22.63 21.78 21.96 21.32 21.95 22.28 23.21 24.08 25.27 25.65 25.05 25.10 26.26 26.84
36.08 35.57 35.24 33.97 33.72 33.57 33.41 31.58 29.69 29.51 30.16 30.24 30.35 30.36 28.55 27.02 26.87 26.86 26.43 26.90 24.45 21.61 21.14 17.45 22.37 23.40 24.74 22.01 21.20 20.96 20.92 20.34 19.67 21.40 21.35 22.23 23.03 22.85 22.64 22.35 21.96 22.00 22.34 24.27
33.69 32.67 33.72 32.93 32.76 32.72 31.60 31.70 31.18 29.33 29.19 29.14 28.16 27.07 26.92 26.29 26.50 25.57 23.76 23.52 21.48 20.62 21.68 21.17 19.75 20.91 20.82 20.69 20.30 19.86 19.53 19.04 17.83 19.90 17.95 17.96 17.26 17.37 18.85 19.70 19.62 19.35 19.57 21.51
38.43 37.16 37.05 35.99 34.31 32.59 31.52 30.77 29.41 29.04 28.10 26.52 25.16 23.86 23.13 23.58 23.94 22.69 21.06 20.22 18.52 18.25 21.48 20.10 19.25 19.12 19.07 19.01 18.96 18.50 16.41 15.92 16.22 14.10 15.15 13.66 13.43 15.75 14.80 15.80 15.52 15.95 15.43 17.61
38.58 37.69 37.14 36.21 34.62 32.30 30.29 29.33 28.84 27.87 24.71 24.17 23.82 22.37 22.16 21.98 23.75 21.53 19.67 15.44 14.37 16.53 19.39 18.74 19.01 16.88 16.36 16.82 16.14 14.73 12.41 11.12 10.25 11.40 10.26 8.72 9.77 10.77 10.67 10.88 10.22 10.71 11.53 13.76
35.92 35.23 33.60 31.89 31.42 30.01 28.26 27.67 26.74 25.37 24.34 22.73 21.31 20.16 19.23 16.65 17.81 16.78 16.96 16.12 17.15 18.47 19.96 17.16 16.27 15.30 14.35 14.24 10.15 12.00 8.74 7.68 7.39 6.65 5.74 5.48 5.82 4.55 7.02 6.90 6.82 7.23 7.04 9.34
32.39 31.40 29.94 28.26 27.08 27.02 26.55 25.11 23.37 22.29 22.46 20.24 19.48 17.26 17.19 17.34 16.44 14.49 15.51 16.94 17.72 17.85 18.64 15.06 14.61 13.66 13.29 10.07 10.99 4.80 0.38 -1.38 -1.80 1.81 -0.84 0.89 1.80 1.67 3.81 2.55 3.03 4.27 4.27 5.68
30.72 29.40 27.77 26.72 25.57 24.83 25.23 24.66 22.39 20.26 19.04 16.12 13.66 14.15 15.37 17.11 14.40 14.65 10.43 16.45 18.08 10.16 15.98 15.35 14.22 4.66 8.48 3.69 9.20 -2.10 4.32 1.11 -1.80 -3.21 -2.64 -2.83 -2.41 -2.29 0.53 -0.64 -0.29 1.98 2.47 3.01
29.57 28.89 27.76 25.99 24.41 24.12 23.96 22.18 19.95 18.68 16.75 15.38 15.04 15.69 17.28 18.74 17.19 12.67 12.89 17.68 17.65 10.13 15.36 9.40 4.57 0.62 -1.21 -5.90 -7.53 -10.25 -9.17 -8.26 -9.89 -9.53 -7.35 -11.89 -10.80 -7.02 -2.04 -2.89 -2.57 -0.95 -0.30 1.26
28.12 27.32 26.44 25.89 23.63 22.51 21.04 21.48 21.83 19.72 16.62 16.61 12.42 9.94 16.90 12.34 8.73 16.73 15.65 7.31 2.76 -0.10 0.96 0.40 -1.37 0.44 -5.18 -10.62 -12.25 -12.43 -12.07 -12.43 -14.06 -15.87 -4.82 -10.07 -15.87 -11.18 -7.27 -6.76 -5.34 -3.68 -2.97 -1.10
27.04 25.91 25.53 24.12 23.74 22.53 22.82 22.29 20.32 19.88 19.29 18.44 17.67 18.47 17.69 15.52 8.86 9.80 3.94 4.00 6.61 4.14 0.36 -3.37 -1.91 -3.91 -11.89 -12.07 -13.70 -12.43 -13.52 -13.88 -15.51 -16.24 -13.70 -17.51 -14.97 -12.81 -12.11 -11.39 -8.77 -7.00 -5.56 -3.50
25.57 24.17 23.27 23.04 22.46 22.09 20.57 20.17 18.66 17.77 15.16 10.24 10.09 2.44 8.52 8.29 9.70 9.03 3.96 0.74 2.33 0.57 -2.31 -8.99 -11.34 -12.07 -12.61 -10.62 -11.34 -10.44 -9.53 -7.40 -14.06 -14.61 -15.69 -17.87 -15.53 -13.57 -12.87 -10.45 -10.61 -9.01 -7.03 -4.73
21.97 21.50 20.64 19.85 19.93 18.77 17.87 16.86 14.96 13.59 11.97 5.88 6.67 2.83 7.64 6.81 4.63 4.73 -5.00 -7.72 -8.80 -8.80 -10.25 -10.07 -11.89 -10.07 -9.89 -13.15 -12.43 -8.99 -7.90 -11.52 -15.69 -13.34 -19.14 -20.59 -17.01 -17.88 -16.29 -13.80 -11.85 -10.48 -8.02 -6.22

GFSNGP_sfc_wetblb_063.txt.gz
Wetbulb
39.10 39.23 40.49 40.83 40.81 39.86 39.27 40.88 37.76 40.38 38.06 42.99 44.79 45.83 45.64 44.63 45.06 46.16 47.86 48.56 52.07 53.06 54.61 55.13 53.87 52.15 51.46 51.40 51.02 50.51 49.38 48.38 47.78 47.78 47.62 45.71 44.62 43.98 44.97 43.76 43.64 43.69 42.05 41.76
37.49 39.03 39.04 38.58 40.16 39.84 40.26 39.94 39.42 39.26 38.64 44.47 44.99 44.01 43.83 43.74 45.96 47.60 48.03 49.01 50.20 50.74 52.14 51.65 50.41 49.79 49.04 49.43 49.81 50.34 49.20 46.94 46.36 45.54 44.80 43.06 43.68 42.60 42.00 41.71 40.63 41.07 40.38 39.66
34.34 36.41 37.43 33.30 38.26 39.56 40.35 41.33 41.70 37.85 42.86 42.91 42.36 42.68 43.15 44.30 46.55 45.95 45.43 46.65 46.91 47.62 48.67 48.91 48.72 48.74 47.97 47.59 48.21 47.66 46.83 45.58 44.25 42.92 41.52 41.07 40.04 40.72 41.16 42.34 42.00 41.28 41.37 42.67
33.17 32.21 28.83 40.55 41.62 42.50 41.43 41.91 42.01 40.65 41.49 42.68 42.93 42.15 41.56 42.08 45.22 43.35 43.15 43.52 43.57 43.93 43.99 44.57 45.26 45.38 45.63 45.57 44.99 43.43 41.52 40.40 40.11 40.34 41.25 41.98 42.25 42.36 42.15 42.01 42.03 41.83 40.46 39.76
32.96 32.43 35.46 38.19 39.75 40.30 39.85 40.81 42.87 42.19 41.98 41.79 42.43 42.89 40.35 38.68 39.80 39.99 39.61 39.72 40.11 41.49 41.62 42.46 43.22 43.92 43.25 42.42 41.23 40.63 40.56 41.17 41.72 41.67 42.03 42.24 41.59 41.68 41.48 40.14 39.49 38.72 38.02 38.13
30.99 30.70 29.27 38.54 41.65 42.63 43.33 36.28 43.33 42.64 41.94 42.03 42.13 40.91 42.83 38.30 37.90 37.43 38.20 38.96 38.87 39.62 40.50 40.56 41.23 42.68 42.02 40.84 40.90 40.82 40.96 41.21 42.51 42.08 41.83 40.91 39.74 39.00 39.34 38.78 37.41 37.31 36.78 37.50
30.17 33.51 35.59 40.57 41.84 43.10 36.12 39.45 42.83 43.44 43.59 43.54 41.71 42.23 40.14 37.17 36.24 37.40 37.49 37.31 38.40 38.98 38.39 38.95 41.28 41.97 40.72 40.88 40.00 41.64 42.01 39.13 37.92 38.96 37.91 37.52 37.43 37.25 36.72 36.51 36.06 35.76 34.67 36.28
31.42 31.94 32.11 42.31 40.26 39.07 44.05 42.44 43.44 43.60 43.90 43.36 37.86 36.17 36.14 35.84 35.55 35.95 36.23 36.87 37.80 37.29 37.37 38.93 40.48 40.03 38.36 37.20 38.09 36.99 37.05 36.55 36.11 36.06 35.46 35.62 35.90 36.05 35.72 35.25 34.32 33.67 33.71 33.33
37.79 39.35 44.33 42.96 45.24 44.18 43.49 44.80 43.62 44.34 43.88 40.30 36.97 35.66 35.15 34.41 34.93 35.49 36.17 36.62 37.31 36.64 35.69 36.10 37.18 37.97 35.62 35.41 36.16 35.98 35.33 34.32 34.00 33.54 32.88 32.84 32.49 32.09 31.58 31.53 30.53 29.99 30.02 30.42
40.26 42.41 42.38 43.69 44.53 44.42 44.55 44.42 44.69 45.33 42.84 40.76 37.69 35.72 34.58 34.57 34.88 35.44 35.98 35.76 35.63 34.86 33.87 33.00 34.32 34.07 34.18 34.58 34.62 33.57 32.07 31.34 31.18 30.44 29.81 30.24 30.39 30.02 29.41 29.09 28.63 28.44 28.19 27.73
39.92 41.87 42.49 43.89 44.23 44.15 42.75 42.69 41.87 41.95 41.30 39.78 37.25 35.43 35.09 34.21 35.04 35.19 35.14 34.32 34.61 33.45 32.22 31.36 31.66 30.39 30.57 30.95 31.72 30.31 29.63 28.72 28.27 28.12 27.62 27.39 27.83 27.90 27.76 28.84 28.44 27.48 27.89 27.81
39.38 44.42 44.61 45.83 46.03 43.06 41.65 41.27 41.02 38.84 37.33 38.05 37.44 35.27 35.09 34.91 35.56 34.66 33.24 33.67 33.24 32.24 29.53 28.03 28.18 27.81 28.12 29.19 29.29 28.54 26.92 26.57 25.48 25.83 25.73 26.07 25.82 25.94 26.64 26.96 27.41 27.47 26.53 26.39
43.85 43.76 40.41 39.84 39.19 40.79 39.70 39.48 39.00 38.65 37.13 35.24 35.57 35.93 35.23 34.17 33.58 32.42 32.60 32.76 31.00 27.91 26.63 26.75 26.59 25.32 26.44 27.12 26.57 25.22 24.19 24.06 24.53 24.01 24.24 23.71 23.59 23.52 22.86 25.15 24.83 24.32 24.49 23.93
40.73 41.09 39.23 39.45 38.64 37.94 37.30 36.45 36.13 35.52 35.67 35.63 35.66 35.34 33.70 31.87 31.67 31.42 31.15 30.02 27.73 26.23 26.10 26.14 24.99 22.97 24.28 25.24 24.78 23.95 23.26 21.57 23.02 23.44 22.59 22.30 21.73 21.28 21.66 20.86 19.95 21.58 22.35 21.43
37.37 38.69 39.06 36.46 35.81 34.64 35.18 35.17 33.96 33.41 33.54 33.20 33.77 32.49 31.72 30.30 29.71 28.71 28.11 26.92 26.24 25.85 25.01 24.29 22.59 22.00 23.86 24.35 23.12 22.41 22.27 21.68 21.83 21.44 20.76 19.79 19.69 19.54 19.70 19.19 18.49 18.42 18.86 18.85
35.87 36.23 36.06 34.58 33.76 34.01 34.31 33.83 32.63 31.99 32.07 31.45 30.99 30.53 30.00 29.39 27.78 26.12 25.65 26.31 24.78 22.49 21.80 19.98 20.12 21.69 22.51 22.54 22.07 21.14 20.85 19.23 18.19 19.07 18.23 17.06 16.81 16.84 16.40 16.13 16.15 15.22 14.95 14.61
33.73 32.37 33.06 32.71 32.54 32.77 33.11 33.58 32.90 31.84 30.51 29.44 28.47 28.31 28.17 27.14 25.49 24.15 23.52 23.06 21.49 20.75 20.05 19.64 19.84 21.26 20.88 21.08 19.62 19.09 18.84 18.15 15.01 16.57 15.50 14.42 14.22 14.12 13.61 13.54 13.37 12.35 12.63 13.13
40.04 37.56 37.21 35.60 33.34 31.78 31.55 32.13 31.19 30.24 28.27 28.31 27.60 26.37 26.14 25.81 23.42 21.86 21.61 21.29 20.02 19.29 19.22 19.22 19.65 19.46 18.41 18.22 17.42 16.29 15.42 14.15 14.25 13.63 12.98 11.77 10.92 11.69 10.84 10.42 10.76 9.75 10.15 10.97
36.77 35.36 34.43 33.32 32.99 32.33 31.42 30.62 29.51 28.46 27.21 27.15 26.54 25.38 24.78 24.21 22.97 21.56 21.15 19.95 18.71 17.96 17.68 19.03 18.49 17.39 16.56 16.19 15.34 14.10 12.77 11.14 11.49 11.35 10.33 8.29 9.00 8.23 7.67 8.10 8.56 8.01 7.64 7.89
33.65 33.21 32.43 31.71 32.00 30.43 28.53 28.81 28.56 27.25 26.39 25.42 24.66 23.48 22.08 21.45 20.54 19.44 20.06 19.30 20.33 20.08 19.30 17.66 16.86 15.59 14.99 13.79 12.79 13.08 11.20 10.11 9.17 9.15 8.86 7.68 6.76 5.81 5.78 4.37 4.96 5.50 5.57 5.90
31.32 30.82 29.87 29.15 27.88 27.75 27.80 27.75 26.49 24.57 24.05 24.88 24.10 22.45 21.26 19.59 19.02 18.37 18.24 17.56 18.66 19.25 18.21 16.51 16.06 15.35 14.64 13.26 13.48 12.50 11.26 9.99 8.41 7.50 6.43 5.67 4.61 4.48 3.97 3.44 3.62 3.50 3.59 4.06
28.83 27.67 27.19 26.87 26.39 25.69 26.08 25.75 24.39 23.23 22.21 20.55 20.51 20.29 19.21 18.34 17.92 17.51 17.81 18.80 19.37 17.85 17.80 17.07 15.99 10.23 12.05 8.81 13.09 11.70 10.99 9.77 8.18 6.73 5.96 5.18 4.21 2.50 2.03 1.79 1.11 1.51 2.03 2.21
28.00 27.62 26.81 25.44 24.33 23.18 22.96 22.17 21.48 21.16 20.16 19.86 19.67 20.17 20.18 19.57 19.26 17.76 16.75 18.12 18.57 15.94 17.41 16.26 10.02 6.50 3.92 11.19 10.73 9.40 8.44 7.06 6.44 5.35 4.47 3.66 2.62 1.37 0.40 -0.17 -0.88 -0.57 -0.33 0.13
27.03 26.06 24.79 24.23 23.54 22.49 20.54 21.11 21.14 20.07 19.54 19.05 17.53 18.32 19.49 17.85 17.62 18.72 18.31 12.49 10.11 13.83 14.58 12.65 9.51 4.95 2.89 8.92 8.07 7.75 6.83 6.48 5.45 4.59 3.99 -2.26 1.67 -0.15 -0.04 -1.66 -2.95 -1.74 -2.13 -2.13
25.46 25.23 24.53 23.58 22.26 21.22 20.79 20.50 20.25 20.09 19.54 18.97 18.88 18.91 18.85 17.98 18.56 16.71 15.88 14.25 12.39 12.45 13.13 3.57 3.12 1.39 7.75 7.43 6.69 5.94 5.78 5.46 4.93 3.52 2.92 1.77 0.48 -1.33 -1.36 -2.02 -4.11 -3.77 -4.01 -3.29
23.08 22.50 22.54 22.76 22.40 21.73 21.43 20.63 18.24 17.70 17.46 16.83 16.57 16.22 15.66 16.05 15.02 14.30 13.02 11.01 11.26 8.61 10.53 8.58 6.94 6.33 6.61 6.13 5.07 3.99 4.16 4.81 4.27 3.03 0.60 0.34 -1.11 -2.43 -3.25 -4.60 -5.63 -5.32 -5.05 -4.47
21.23 20.94 19.93 18.84 18.94 19.12 19.66 19.60 18.42 16.59 16.39 16.69 16.41 16.29 15.54 14.14 12.75 12.13 9.45 10.20 8.78 7.47 6.90 6.41 6.14 5.04 5.06 4.28 3.61 3.54 2.57 3.04 -0.08 0.31 0.35 -1.21 -3.19 -3.75 -5.44 -6.60 -6.80 -6.66 -6.81 -6.40

GFSNGP_sfc_wetblb_066.txt.gz
Wetbulb
44.45 44.79 44.72 44.01 43.44 44.34 43.36 43.96 40.77 43.57 43.89 46.71 49.38 50.83 52.11 51.80 50.82 50.91 51.99 52.61 55.73 58.72 60.07 60.73 60.53 60.12 59.97 56.39 52.98 52.32 50.78 50.14 49.47 49.08 48.44 47.13 46.71 45.40 45.68 44.29 44.25 44.28 44.21 43.53
42.14 44.59 44.05 42.24 44.24 44.79 45.21 45.35 45.42 45.69 44.82 50.05 51.40 51.08 50.34 50.12 49.84 51.46 52.49 53.76 54.70 56.73 58.28 57.46 56.91 56.77 55.97 54.95 52.47 51.94 49.91 48.29 47.92 47.17 47.25 47.34 44.64 43.95 44.57 43.72 42.55 42.04 41.23 41.42
38.73 42.63 42.27 37.32 42.31 44.55 45.74 47.03 46.53 43.19 47.12 50.40 49.82 49.77 50.18 49.93 50.65 50.98 51.67 52.70 53.71 54.90 55.36 54.99 54.72 55.09 53.96 53.23 52.97 50.98 48.77 48.01 47.69 47.99 45.54 43.96 42.57 40.95 41.27 41.69 42.29 42.05 43.52 44.07
39.50 37.54 33.03 43.66 46.98 48.31 46.66 47.56 48.92 48.31 49.01 49.88 49.88 50.28 49.51 49.72 51.83 50.65 50.71 50.48 50.98 52.01 52.28 52.90 53.36 52.81 52.54 52.29 51.25 50.07 48.68 47.85 47.19 45.00 42.86 42.56 42.77 42.52 43.27 44.34 43.97 45.89 44.91 43.58
38.35 37.41 41.58 43.34 42.64 45.06 44.83 45.40 49.95 48.69 49.71 49.76 48.89 48.17 47.26 47.73 50.61 50.24 49.61 49.57 50.12 50.98 51.14 51.68 51.24 51.13 50.11 48.35 46.76 45.56 44.66 43.49 43.18 43.17 42.37 42.87 42.61 42.85 43.70 45.19 44.75 43.40 42.51 41.61
38.10 36.03 34.30 43.36 47.46 49.68 48.80 41.18 49.96 49.74 49.20 48.91 47.66 44.61 48.88 46.70 46.63 46.45 47.41 47.95 48.18 49.05 49.70 49.42 49.46 49.19 47.31 45.81 44.78 43.50 43.48 43.05 44.19 45.27 44.18 43.04 43.68 42.88 43.44 43.52 41.57 41.39 40.17 40.89
38.98 38.78 42.04 47.13 46.18 48.55 39.64 43.55 50.82 50.67 50.37 49.31 47.53 49.41 48.72 46.29 45.39 46.22 46.13 46.23 47.34 47.77 47.48 47.85 48.43 47.84 46.31 45.83 44.64 45.29 44.80 42.94 42.26 42.14 41.90 41.77 41.18 41.40 42.00 41.70 40.59 40.02 38.47 39.20
38.92 37.81 35.91 46.07 44.51 43.69 50.08 51.02 51.60 50.97 51.28 50.21 48.97 45.62 44.78 44.45 43.55 43.92 43.94 44.36 45.23 45.15 45.62 46.82 47.47 46.61 44.92 43.44 43.81 42.78 40.92 39.83 40.19 40.14 39.45 40.01 40.30 40.62 40.01 38.65 36.62 35.53 36.33 34.68
42.69 44.06 49.03 48.87 50.54 51.73 51.43 51.87 50.20 51.41 51.25 51.32 45.49 43.98 43.86 43.21 43.26 43.59 43.83 44.08 44.36 43.78 43.10 43.85 44.47 44.17 41.69 41.14 41.60 40.70 39.94 38.98 38.37 37.64 37.23 36.65 36.55 35.72 35.73 35.07 34.01 33.12 32.33 32.56
43.14 48.22 47.99 49.54 50.89 49.77 50.56 50.36 50.28 50.87 50.80 48.83 45.82 44.22 43.50 43.14 42.83 42.74 42.92 42.39 42.39 41.54 40.15 39.72 41.00 40.80 40.32 39.77 39.84 38.85 37.12 36.07 35.71 33.51 34.25 33.87 34.74 34.18 33.99 33.11 32.06 30.90 30.79 30.40
45.43 48.66 46.95 48.10 50.62 51.78 50.06 49.79 49.01 49.81 50.03 48.07 46.15 43.81 43.37 42.65 42.32 42.21 41.21 41.40 41.70 40.03 38.29 37.10 37.07 36.39 37.18 37.37 37.29 34.87 33.78 32.86 32.54 32.24 31.93 32.74 32.40 32.10 31.28 31.93 29.48 29.05 29.19 28.47
43.66 50.35 48.96 51.24 50.66 52.76 50.37 48.75 48.69 47.75 47.04 47.31 45.64 43.65 43.48 42.38 42.02 40.89 39.92 40.40 38.68 37.80 36.10 34.71 33.36 32.48 33.48 34.23 34.53 33.32 31.64 31.14 29.71 31.20 31.42 31.48 31.63 31.41 26.84 26.69 25.78 25.19 24.89 25.17
48.53 46.72 47.80 45.98 45.26 46.39 49.11 48.64 47.99 47.28 47.38 45.05 45.25 43.73 42.67 40.81 40.73 38.10 39.42 38.50 36.77 35.18 33.59 32.65 30.94 30.76 31.26 31.22 31.14 30.45 29.63 28.79 29.07 28.72 29.33 28.78 29.15 28.53 27.65 27.81 24.72 23.93 23.24 22.81
46.18 45.42 46.00 43.56 45.53 43.89 44.50 44.60 44.36 44.39 43.98 43.20 41.98 41.85 41.13 39.72 37.71 38.33 37.80 36.63 34.82 32.84 31.47 30.52 29.46 28.35 29.71 30.14 29.49 28.21 26.82 23.99 28.58 28.58 28.39 28.20 27.20 26.65 26.74 25.16 24.11 25.34 24.24 21.67
43.56 43.98 44.98 43.38 42.49 41.96 42.51 41.58 40.28 39.98 39.90 39.71 40.79 39.90 38.60 36.70 36.96 36.34 34.85 33.15 32.21 31.18 30.41 29.20 27.90 27.06 28.81 28.45 27.40 26.89 27.20 26.95 27.04 26.80 25.73 23.78 25.04 24.75 24.39 23.44 23.09 22.73 23.03 22.75
42.04 42.26 42.14 41.61 41.00 40.76 41.45 41.14 39.24 38.25 39.03 38.17 37.63 37.50 37.52 36.86 34.35 32.31 30.55 29.51 27.79 27.00 27.57 24.15 24.39 25.81 26.86 27.01 26.31 26.37 24.88 20.51 21.51 24.67 24.16 23.29 23.05 22.28 21.95 21.31 21.30 21.12 20.48 19.94
40.81 38.95 38.81 38.74 37.99 38.57 39.46 39.83 38.71 37.52 36.51 36.12 35.80 35.23 33.23 30.07 27.53 26.22 25.73 24.53 23.37 22.69 22.77 23.03 23.20 24.83 24.68 24.69 24.47 25.10 25.34 23.05 17.94 22.67 21.99 20.72 20.45 20.26 19.77 19.23 19.06 18.83 18.55 18.60
43.45 41.63 41.14 40.56 39.13 36.80 36.02 36.57 34.87 33.93 32.49 31.63 28.69 27.98 27.51 26.91 24.64 24.08 22.93 22.40 21.35 20.79 21.27 21.76 22.06 21.65 21.75 21.72 21.74 21.54 21.17 20.94 20.62 20.15 19.58 19.19 17.42 18.27 17.88 16.83 16.92 16.51 16.71 16.74
41.66 40.69 37.51 36.84 34.37 33.02 32.03 30.99 30.48 29.69 29.17 29.36 29.37 27.99 26.91 25.65 24.36 23.04 22.38 21.41 20.30 19.24 19.36 20.98 19.87 20.27 19.72 18.18 19.73 20.18 19.34 18.52 18.64 18.76 17.24 13.95 16.98 16.51 15.88 15.21 14.85 14.89 14.74 14.47
35.17 34.19 32.94 31.89 31.82 30.34 28.82 29.80 29.66 28.74 28.78 27.93 27.23 26.00 23.78 23.25 23.37 22.54 23.20 22.57 22.94 21.82 21.76 20.49 19.75 19.01 18.43 16.69 15.85 19.08 18.04 17.85 16.56 16.69 16.74 14.44 15.52 14.11 14.38 11.78 11.67 12.77 13.49 13.44
30.34 29.78 29.24 28.87 29.27 30.22 30.11 30.21 29.02 27.75 28.13 27.85 26.12 24.47 22.86 22.34 22.46 21.99 21.65 20.87 19.94 21.07 20.28 19.34 20.07 20.08 19.30 18.45 18.51 18.92 18.05 17.01 16.35 15.31 14.62 14.04 13.26 13.42 12.36 11.84 11.52 11.63 11.71 11.68
28.87 28.67 29.08 29.64 29.10 28.48 28.80 28.47 27.22 26.25 25.22 24.33 23.72 22.84 21.60 21.24 21.40 20.83 21.96 22.21 21.95 20.04 20.99 21.06 20.15 14.56 16.40 13.38 18.29 17.65 16.48 15.56 14.88 14.46 13.85 12.92 12.15 11.21 10.58 10.18 9.39 9.59 9.58 9.99
29.85 29.12 28.20 27.10 26.67 26.25 26.23 25.20 24.82 24.46 23.44 23.46 23.21 23.87 23.50 23.16 23.39 22.55 20.36 20.72 22.09 19.58 21.14 20.03 14.46 11.83 10.09 16.20 16.45 15.43 14.67 13.23 12.98 12.82 12.09 11.54 10.85 10.14 9.02 8.47 7.98 7.36 7.66 7.81
28.16 27.48 26.98 27.09 27.05 25.05 22.85 23.39 23.27 22.51 21.72 21.64 21.87 22.64 23.46 23.14 22.64 22.69 21.50 18.55 18.00 19.36 18.65 17.25 14.94 8.92 9.03 15.30 14.36 13.49 12.58 12.90 12.23 12.01 11.42 8.34 10.27 9.46 8.72 7.46 6.24 6.72 5.88 5.49
27.27 27.24 26.78 25.73 24.43 23.45 23.60 23.62 23.36 22.87 22.46 22.02 21.94 22.13 22.34 22.78 23.28 21.89 21.67 19.16 16.24 16.75 18.35 11.08 8.27 7.87 13.71 13.76 13.04 11.84 11.83 11.83 11.20 9.83 9.90 9.58 8.65 8.00 7.65 7.09 5.42 4.95 3.77 3.44
25.45 24.63 24.86 25.08 24.95 25.31 24.67 24.45 22.68 23.13 23.07 22.36 21.89 22.35 22.20 21.70 20.71 20.16 18.77 16.67 16.08 13.67 15.61 15.21 13.85 12.90 13.32 12.50 11.42 10.72 10.39 10.46 9.95 9.24 7.76 7.59 7.55 7.02 5.91 5.00 3.75 3.41 3.29 3.28
23.54 23.51 23.16 22.09 22.12 22.49 22.96 22.76 22.01 20.66 20.93 21.51 20.77 21.08 20.71 20.41 18.74 17.81 15.54 17.00 15.79 14.40 14.36 13.87 13.29 11.66 10.89 10.64 10.46 10.08 9.40 9.37 7.63 6.50 5.46 5.95 5.71 5.46 4.28 3.30 2.48 1.78 1.08 0.41

GFSNGP_sfc_wetblb_069.txt.gz
Wetbulb
45.03 46.24 46.17 45.21 44.99 45.39 44.57 45.35 42.36 44.28 44.67 46.89 49.30 50.07 51.55 53.65 53.87 53.42 53.56 54.33 56.33 58.61 60.38 61.70 62.59 62.55 59.57 56.17 55.03 54.16 51.91 50.70 49.63 49.22 48.61 48.56 46.90 46.72 46.12 45.94 45.44 44.95 43.93 44.20
42.81 45.59 45.57 43.62 44.93 45.52 45.27 45.19 45.00 45.17 44.84 50.39 51.80 51.80 51.40 52.23 52.74 52.51 53.78 54.98 55.32 57.62 60.85 61.17 60.88 60.70 55.77 53.91 52.49 51.96 50.92 49.55 49.32 48.03 47.30 46.65 46.46 46.09 45.58 45.14 44.72 44.29 43.29 43.19
39.36 44.50 44.49 40.55 43.68 44.99 45.73 47.08 46.67 43.44 47.62 50.78 50.04 50.37 51.20 51.90 52.71 53.12 54.30 55.03 55.69 57.96 59.64 59.51 58.94 57.00 53.75 52.41 51.40 49.62 48.88 48.85 48.76 48.21 46.59 45.41 44.94 43.98 42.76 42.34 42.46 42.82 44.48 44.62
40.88 40.01 33.89 44.44 48.93 48.47 46.61 47.55 48.87 48.82 49.36 50.08 50.73 52.11 52.87 53.93 53.60 53.80 54.17 54.93 56.13 57.19 57.20 57.58 57.77 56.09 54.01 52.59 50.90 50.22 49.18 48.73 47.75 46.28 44.41 43.94 43.29 42.12 42.28 44.20 45.46 46.40 46.55 45.93
39.05 39.27 42.13 44.44 46.13 45.85 45.65 45.43 49.63 48.96 49.89 50.89 51.88 51.93 51.48 52.65 54.23 54.77 54.47 54.82 55.33 55.98 55.79 55.70 55.29 55.25 54.22 52.92 51.87 50.44 48.76 47.31 46.84 46.40 43.94 43.54 42.45 43.12 44.78 44.88 46.33 45.36 44.60 43.13
41.70 36.08 33.46 43.74 48.10 50.42 50.40 42.67 50.71 50.95 50.61 50.78 50.91 46.73 48.74 52.24 53.75 52.85 53.04 53.48 53.47 54.08 54.30 53.63 53.03 52.72 51.22 50.23 49.39 47.22 46.29 46.04 45.65 44.88 45.36 45.72 45.45 46.30 45.67 44.84 43.56 42.79 41.41 41.85
40.27 38.89 42.26 48.15 49.76 51.51 41.26 43.18 51.54 52.01 51.97 51.38 49.85 50.82 52.63 51.78 51.39 51.95 51.95 51.99 52.90 52.92 52.03 51.93 51.92 51.35 49.31 48.56 46.94 46.78 46.78 46.14 45.20 45.53 46.06 45.21 44.13 43.46 42.41 42.12 41.70 41.23 39.59 39.99
41.90 39.42 36.60 50.28 47.54 44.55 50.37 53.44 53.26 53.37 53.29 52.89 53.42 51.53 50.78 50.61 50.10 49.89 49.86 50.09 51.41 50.97 50.61 51.13 51.28 50.21 48.56 47.11 47.40 46.78 45.49 44.15 43.98 43.25 42.02 42.26 42.23 41.51 40.76 40.24 38.42 37.33 36.16 36.14
44.17 44.28 51.75 51.29 51.35 52.62 53.64 53.19 54.03 54.07 54.26 54.14 52.21 49.99 49.52 48.93 48.88 48.92 48.83 49.15 49.96 49.46 49.02 49.80 49.97 49.28 46.58 45.34 44.85 44.32 43.61 42.28 41.35 40.61 39.90 39.65 38.68 37.85 37.57 37.45 36.43 35.32 33.91 33.99
45.66 48.32 50.40 51.55 52.63 53.31 53.87 53.20 54.41 54.14 54.45 54.27 51.95 50.06 48.64 48.34 48.27 48.00 48.20 47.71 48.50 48.04 46.69 45.85 46.65 45.80 44.62 44.20 43.92 42.57 40.63 39.47 38.62 37.98 36.61 36.64 37.12 36.35 36.35 35.68 34.56 32.64 32.33 31.93
45.22 47.60 49.05 51.42 51.79 53.56 53.78 54.05 53.16 53.57 53.31 53.34 51.81 49.27 48.63 47.95 47.59 47.66 46.73 46.66 46.67 45.40 44.26 42.98 43.28 42.56 42.59 42.24 41.73 39.23 37.80 36.58 35.92 35.39 35.33 34.67 34.84 33.72 33.35 32.11 29.84 29.85 30.58 29.46
43.77 49.17 49.96 50.23 52.29 52.91 53.93 53.98 53.62 52.21 51.73 52.78 51.78 49.41 48.98 47.81 47.62 46.69 45.72 45.33 44.09 43.03 41.70 40.56 39.99 39.21 39.54 39.92 39.06 36.71 34.79 34.25 33.74 33.89 33.52 34.02 33.74 32.15 27.37 27.52 26.02 25.07 24.43 25.01
48.99 50.44 50.56 50.76 48.72 49.55 50.34 53.14 53.85 52.71 52.28 51.21 51.20 49.86 48.42 46.99 46.57 42.50 44.29 42.96 41.94 40.21 38.77 38.00 36.59 35.31 35.44 35.47 35.73 34.67 33.30 32.06 30.33 31.51 31.78 31.45 31.14 30.71 29.81 26.79 25.99 25.46 24.67 22.90
50.93 48.81 48.23 49.75 48.77 47.69 48.05 49.49 48.25 50.61 50.96 50.90 49.39 48.58 47.30 44.99 42.40 42.74 41.77 41.64 40.43 38.24 36.49 35.03 32.89 31.07 32.39 32.69 31.78 30.36 29.34 26.89 31.07 30.83 30.42 29.91 29.63 28.23 28.31 27.35 26.24 27.25 25.04 23.49
49.58 49.07 48.99 48.47 47.59 46.46 46.66 46.06 46.06 46.04 46.71 46.38 46.74 45.63 44.63 42.54 41.59 41.42 40.56 38.63 36.97 34.58 32.34 30.72 29.62 29.04 30.61 30.41 30.00 29.72 29.49 28.92 29.06 28.32 27.10 25.44 26.60 26.36 26.37 25.69 25.11 25.43 25.98 25.70
48.11 47.29 47.14 46.43 45.84 45.12 45.11 44.90 44.24 43.18 43.95 43.89 43.65 43.27 42.23 42.01 39.17 36.79 35.97 34.04 31.10 28.01 25.27 25.41 25.37 26.81 28.36 28.20 27.54 26.78 24.11 22.39 22.94 25.87 25.50 25.03 24.54 24.03 24.23 23.77 23.23 23.62 23.50 23.42
45.89 44.67 44.47 44.25 44.26 44.05 44.50 44.68 43.77 42.99 42.40 41.15 40.37 40.63 36.72 33.55 30.26 28.09 26.84 26.44 25.35 24.50 24.60 24.19 23.26 24.87 25.34 25.71 25.87 25.68 25.89 24.18 18.71 23.83 23.47 22.88 22.62 22.66 22.31 21.95 21.38 21.63 21.97 22.44
47.32 46.93 46.35 45.86 43.93 42.25 41.22 40.94 40.19 37.95 35.15 31.35 30.23 28.95 28.00 26.83 23.95 23.41 23.61 23.59 23.02 22.59 22.52 22.28 22.39 22.58 22.63 23.01 23.47 23.12 23.05 22.52 22.29 21.92 21.46 21.57 20.96 20.44 20.75 20.27 19.76 19.74 20.41 20.55
43.07 40.82 41.49 40.00 38.07 36.00 33.14 30.61 29.84 29.59 29.78 29.41 27.49 25.99 26.32 25.56 24.56 23.29 23.48 22.30 21.19 19.90 19.74 21.31 21.21 21.87 20.81 19.33 21.62 22.15 21.36 20.83 20.99 20.98 20.19 18.76 19.52 20.27 19.45 19.37 18.59 18.11 17.95 17.67
34.15 32.70 31.67 30.88 30.97 30.07 29.08 30.06 29.96 29.17 29.02 28.27 27.02 25.58 24.27 24.15 24.01 23.82 25.04 23.62 23.68 22.19 22.40 21.28 21.41 20.87 20.30 18.65 18.47 21.37 20.48 20.45 19.54 19.22 19.38 17.12 18.31 18.47 17.81 16.70 16.39 16.48 16.52 16.50
29.41 29.89 29.65 29.89 29.85 30.57 31.25 31.48 30.65 29.40 29.59 29.02 27.20 24.88 24.10 25.04 25.49 24.46 22.90 20.92 20.92 22.46 21.70 21.21 21.92 21.45 21.00 19.90 19.89 21.25 20.54 19.49 19.01 18.68 17.71 17.47 17.20 16.77 16.38 15.88 15.58 15.04 14.76 14.68
31.01 30.76 30.50 30.66 30.06 29.85 30.29 30.07 28.96 28.12 26.78 25.83 25.11 24.62 24.15 23.61 23.36 23.05 24.97 23.07 22.12 22.17 22.86 22.74 21.47 16.96 18.08 15.77 20.41 19.87 18.92 18.28 17.79 17.25 16.74 16.40 15.40 14.63 14.10 14.04 13.29 13.21 12.98 12.63
30.54 30.08 29.56 28.79 27.94 27.37 27.85 27.24 27.37 26.81 26.05 25.60 25.41 25.56 25.34 25.60 25.99 24.71 21.40 23.03 23.41 21.44 23.54 20.74 16.71 14.94 14.91 18.64 18.90 18.13 17.46 16.39 15.99 15.59 15.23 14.81 14.20 13.14 12.75 12.11 11.80 11.43 10.97 10.90
29.86 29.36 28.70 28.84 28.66 26.90 24.29 24.71 24.55 24.30 24.12 24.18 24.21 25.52 26.15 25.07 24.35 24.18 23.13 21.33 20.67 21.41 20.67 18.34 16.64 14.27 12.85 17.58 17.22 16.40 15.55 15.29 14.66 14.77 14.13 12.95 13.22 13.07 12.08 11.40 10.25 10.82 9.98 9.11
28.94 28.76 28.22 27.57 26.28 25.34 25.62 25.70 25.33 25.17 24.67 24.30 24.19 24.51 24.46 24.72 24.58 23.70 22.60 20.27 18.49 20.15 20.24 13.91 13.51 13.33 16.17 16.13 15.46 14.48 14.12 13.80 13.96 12.77 11.56 11.48 11.26 10.76 10.69 10.45 9.57 9.23 8.02 7.20
26.72 26.43 26.83 26.81 26.64 26.95 26.75 26.15 24.21 24.99 24.74 23.04 22.80 23.62 23.19 22.86 22.37 21.62 20.08 18.61 17.97 17.26 17.55 17.00 16.06 14.85 14.88 15.07 14.04 13.09 12.90 12.52 11.98 11.74 10.21 9.61 9.46 9.22 9.05 8.77 8.14 7.31 6.72 6.43
25.59 25.32 24.52 23.09 23.69 23.56 23.61 23.28 22.10 20.67 21.73 23.48 21.05 22.24 21.77 21.64 20.49 19.44 18.43 18.72 17.69 17.07 16.52 16.20 15.74 14.44 13.10 12.08 11.20 11.96 11.71 11.27 10.53 9.64 8.46 8.07 7.90 7.41 7.26 6.92 6.25 5.59 4.39 3.56

GFSNGP_sfc_wetblb_072.txt.gz
Wetbulb
45.03 45.41 45.61 44.74 44.52 45.07 43.86 44.94 41.94 44.87 44.31 47.02 49.16 50.24 51.72 52.99 54.09 53.17 53.43 53.89 54.66 55.88 59.00 60.26 60.87 59.44 58.42 57.64 56.44 55.41 52.97 50.92 49.21 49.08 47.82 47.68 48.18 47.86 46.91 46.24 46.16 44.96 43.99 43.72
42.63 45.21 45.43 43.25 45.63 45.73 45.12 44.98 44.72 45.37 44.78 49.67 50.32 50.98 51.57 51.58 51.89 52.58 53.61 55.13 55.35 56.34 59.82 60.48 58.93 56.02 54.18 52.84 52.25 51.84 49.66 48.47 48.47 47.32 47.48 46.67 46.28 45.49 45.23 44.94 44.15 43.61 43.14 43.44
37.49 44.09 43.11 37.46 43.47 44.72 45.09 46.40 45.81 42.33 46.98 49.88 49.79 50.05 51.35 52.61 52.37 52.43 53.98 55.39 55.93 57.17 60.22 59.44 56.06 54.46 52.03 50.71 50.51 49.11 48.07 47.73 47.77 47.26 46.23 46.01 45.47 44.98 44.13 43.35 43.43 42.63 42.67 43.20
37.83 38.26 31.69 43.57 48.80 47.78 46.10 46.40 47.71 47.63 48.51 49.73 49.98 51.33 52.99 53.91 54.41 53.75 54.95 55.46 56.72 58.81 58.77 56.61 54.96 53.32 51.65 50.12 49.19 48.75 48.19 47.98 47.49 46.07 44.68 44.01 43.29 42.34 42.02 42.09 42.30 43.32 44.15 44.31
35.94 36.40 41.27 43.84 46.43 46.24 44.95 44.56 49.15 47.96 49.18 50.30 51.15 52.83 52.09 53.64 54.28 55.13 55.31 55.83 56.69 57.62 57.42 55.73 53.77 52.82 51.15 50.00 49.31 48.84 47.11 46.42 45.73 44.72 43.16 42.71 41.86 42.02 42.82 43.75 44.62 45.06 43.99 41.08
38.60 34.34 31.61 43.26 48.25 50.95 49.86 39.97 49.64 49.92 50.23 50.55 51.54 45.94 49.73 52.44 54.22 54.73 55.03 55.41 55.55 55.98 55.66 55.01 54.57 53.52 51.54 49.94 48.80 47.28 46.65 46.00 45.80 44.97 43.73 43.07 43.54 44.26 44.53 44.70 43.99 40.95 39.86 39.67
36.69 35.14 41.03 47.85 48.94 50.24 38.99 41.52 50.51 51.63 51.61 52.19 49.99 52.00 52.32 53.71 53.84 54.15 53.79 53.85 54.61 54.00 52.68 52.54 52.77 52.08 50.12 48.57 46.62 47.14 46.78 45.53 44.69 45.05 45.44 45.69 44.99 43.26 41.34 39.82 39.64 36.40 35.09 34.57
38.53 35.53 34.12 50.25 48.84 42.81 47.30 52.46 53.20 53.56 53.84 53.53 52.18 51.70 51.76 52.18 51.73 51.67 51.62 52.24 52.87 51.54 50.78 50.86 51.14 50.21 48.02 46.53 46.95 46.77 46.18 45.22 44.80 44.22 42.86 42.04 40.41 39.65 39.26 38.14 34.65 32.78 31.32 31.24
42.03 42.33 51.35 52.37 50.48 51.85 52.69 52.98 53.89 54.75 54.77 54.69 51.76 51.43 51.21 50.53 50.75 50.89 51.03 50.82 51.85 50.69 49.66 50.13 50.11 49.55 47.02 46.29 46.58 45.28 43.86 42.25 41.04 40.86 40.66 40.37 38.30 36.15 35.01 34.50 31.67 30.69 29.66 30.00
41.07 46.26 48.63 51.16 52.96 54.08 53.12 53.11 54.35 55.34 54.58 54.55 52.14 51.29 50.38 50.30 49.63 49.43 49.79 49.58 49.87 49.16 48.18 47.87 48.95 48.38 46.01 44.87 44.26 43.27 40.99 39.63 38.57 36.63 35.87 35.54 35.57 34.89 33.82 31.24 30.19 29.34 29.12 28.40
42.85 45.90 47.04 48.12 50.70 52.56 53.11 54.42 54.15 54.19 54.33 53.25 53.73 51.17 49.94 49.39 48.86 48.98 48.63 48.69 48.88 47.79 46.80 45.69 44.95 43.61 43.84 43.59 42.90 40.26 38.56 36.62 34.78 33.97 34.37 33.24 30.93 29.92 29.50 27.34 27.14 26.85 26.55 26.75
43.56 48.32 48.59 49.15 51.21 51.52 52.65 53.29 54.65 53.53 52.86 53.07 54.05 51.79 50.53 49.06 49.18 48.71 47.37 47.52 46.73 45.58 43.70 41.77 41.48 40.84 40.97 41.32 39.78 36.96 34.74 33.52 32.12 32.31 30.79 31.85 31.01 28.56 28.64 27.12 26.65 25.89 25.15 24.99
48.43 51.30 50.95 51.77 50.40 50.76 49.74 51.32 52.60 53.48 54.00 52.06 53.19 51.87 50.24 48.86 48.36 44.15 46.39 45.14 43.24 41.52 40.28 39.01 37.99 36.06 35.25 35.60 35.44 33.90 30.71 30.69 29.63 30.41 29.93 28.83 28.67 28.68 26.36 25.69 26.27 25.83 25.27 24.33
50.63 51.12 49.54 50.80 48.71 48.67 48.92 48.94 49.26 51.06 51.25 51.32 50.75 50.18 48.99 46.80 44.44 44.44 43.44 42.47 41.38 39.12 37.08 34.52 32.09 30.87 32.02 31.56 29.90 28.81 28.65 29.49 29.47 28.97 28.53 28.71 27.33 27.00 27.21 26.58 25.28 25.10 25.55 24.41
51.12 50.89 49.93 49.44 48.56 47.31 47.36 47.55 46.92 46.99 47.62 47.45 48.00 46.44 44.08 42.85 42.06 41.91 41.28 39.51 37.30 34.21 31.53 29.89 28.09 27.73 29.97 29.90 28.29 27.41 26.62 26.43 27.15 26.90 24.55 24.21 25.96 25.76 25.73 25.33 24.60 24.14 24.88 24.15
50.37 48.64 48.28 47.53 46.90 45.92 46.07 45.86 43.66 43.77 44.87 44.50 43.89 43.32 41.52 37.83 32.98 29.54 30.27 30.68 26.95 24.70 25.30 24.35 24.67 25.10 27.78 28.51 25.74 24.49 23.21 23.53 23.62 25.26 25.08 24.63 24.22 23.72 23.28 23.31 22.79 22.35 22.03 21.95
46.13 44.82 46.25 45.12 44.56 44.93 44.24 44.33 43.94 42.95 42.03 36.89 31.85 31.03 30.09 28.07 26.33 24.87 24.50 25.03 24.53 23.97 24.27 24.08 23.95 24.37 25.12 25.36 25.46 24.88 24.42 21.83 19.57 23.79 23.09 22.40 21.95 21.63 21.69 21.18 20.21 19.62 19.39 17.46
47.58 47.52 47.83 46.20 43.71 41.53 35.78 34.48 33.60 31.71 30.03 29.67 27.82 26.24 24.35 23.24 22.10 22.19 22.78 23.28 22.56 21.85 22.63 22.75 22.36 22.56 22.26 22.41 22.82 22.54 22.30 22.00 21.71 21.22 20.90 21.26 19.91 18.94 18.94 18.79 18.41 17.82 18.30 18.55
40.49 38.32 36.75 35.51 35.03 32.72 31.03 30.36 29.76 29.35 28.64 27.76 26.09 24.56 24.74 24.19 23.86 23.34 23.04 21.60 20.55 19.60 20.39 21.93 22.34 20.91 19.27 19.61 21.35 21.89 20.91 20.45 20.48 20.49 20.03 18.73 18.50 19.15 19.07 18.16 17.94 16.18 15.87 15.55
33.25 32.77 31.50 30.60 31.02 29.44 28.01 28.46 28.32 27.63 27.69 26.35 25.11 23.82 22.83 23.12 24.01 23.86 23.63 22.10 22.09 21.09 21.41 21.81 21.61 20.62 20.10 19.50 18.49 20.86 20.83 20.40 19.54 19.13 19.58 17.92 16.37 17.53 16.52 14.77 16.51 15.51 14.92 14.44
29.29 29.64 29.44 29.11 28.96 29.59 29.59 29.33 28.19 27.40 27.44 25.89 24.64 23.93 23.69 24.15 23.81 23.85 21.86 18.97 20.75 22.15 21.72 21.48 21.18 20.91 19.47 17.47 18.99 21.00 20.35 19.20 18.42 18.08 17.52 17.02 16.54 16.31 15.75 15.21 15.00 14.17 13.04 13.11
29.95 29.32 28.85 28.72 28.48 28.13 28.28 27.62 26.67 25.27 24.61 24.23 24.18 23.72 23.21 22.91 22.57 22.07 23.10 20.64 21.33 21.05 22.61 21.44 18.26 15.21 15.63 14.44 19.66 19.41 18.49 17.75 17.20 16.52 16.13 15.97 15.30 14.04 13.08 12.88 12.13 11.56 11.43 10.20
29.25 28.75 27.91 26.75 26.37 26.67 27.02 26.78 26.27 25.82 25.14 24.78 24.11 24.24 24.32 24.30 25.09 22.83 19.58 22.46 22.68 21.60 20.21 17.31 14.10 12.77 11.18 16.37 18.35 17.60 16.59 15.45 14.87 14.85 14.21 13.77 13.37 12.69 11.26 10.98 11.29 10.28 9.41 9.39
28.65 28.11 27.41 27.25 26.39 24.96 22.90 23.60 24.05 23.95 22.78 22.59 21.73 23.36 25.27 23.15 22.31 22.85 22.07 19.42 18.12 18.67 16.60 15.37 13.51 11.91 8.08 16.36 16.37 15.31 14.49 13.77 13.24 13.66 12.65 8.99 10.63 11.41 10.90 10.04 9.68 9.56 8.67 7.75
27.72 27.50 26.84 25.87 24.77 24.16 24.74 25.09 24.98 24.69 23.76 23.01 22.61 22.60 22.08 22.42 21.38 21.74 20.94 18.93 16.86 17.89 15.89 12.05 12.61 10.25 14.27 14.81 14.10 12.67 12.34 12.43 12.29 10.70 10.72 10.45 8.71 8.51 8.70 9.08 8.61 7.99 6.22 4.51
25.63 25.42 25.59 26.09 25.74 25.55 25.20 25.01 23.62 24.12 22.69 21.44 21.96 22.27 22.08 22.22 21.39 20.54 19.06 18.13 17.09 15.72 16.59 16.78 15.10 14.52 13.09 12.36 10.43 10.15 11.00 10.98 10.48 10.02 8.71 7.64 6.95 6.83 6.80 6.35 6.01 5.40 4.76 3.72
24.41 23.94 22.89 21.98 22.29 22.42 22.40 21.51 20.17 19.75 21.98 21.17 19.16 20.17 20.10 20.15 18.80 18.12 17.02 16.59 16.09 14.96 14.16 14.01 13.69 11.86 11.75 10.48 10.91 10.32 9.36 9.19 8.58 7.88 7.00 6.31 5.57 5.32 4.72 4.13 3.30 2.55 1.87 1.38

GFSNGP_sfc_wetblb_075.txt.gz
Wetbulb
41.77 43.44 44.75 43.07 42.35 42.11 40.51 41.72 38.93 40.37 41.46 44.72 45.22 45.40 47.01 48.74 49.12 49.87 50.11 49.72 49.68 52.45 53.01 56.47 55.61 54.45 53.32 52.48 51.81 51.80 50.84 49.67 48.43 49.15 48.70 48.14 47.69 47.09 46.66 46.14 45.82 45.09 44.52 43.97
38.46 42.89 43.08 41.59 42.88 42.79 42.66 43.20 42.17 41.95 42.61 47.67 47.21 46.25 47.22 48.24 49.65 49.59 50.01 51.79 51.76 53.67 57.11 56.25 54.49 52.36 51.22 50.15 50.25 50.05 49.09 48.36 48.14 47.92 46.73 46.17 45.97 45.94 46.25 44.92 44.29 43.96 43.28 42.95
33.68 40.75 40.60 33.19 39.21 42.72 43.10 44.75 43.10 38.78 42.41 45.56 44.73 46.18 45.59 47.36 47.74 48.51 50.76 51.57 52.65 56.99 56.81 54.64 52.40 51.05 49.52 49.65 49.21 48.40 47.70 47.67 47.51 46.64 46.25 45.94 45.55 44.75 43.73 42.94 43.11 42.72 42.81 42.88
32.64 34.73 29.11 40.14 45.03 44.75 43.32 45.03 44.73 44.47 44.51 45.00 45.62 45.63 47.42 48.33 48.57 50.53 51.56 51.84 54.95 54.98 53.39 51.76 50.21 49.13 48.97 48.85 48.68 47.78 47.22 46.91 46.81 45.68 44.88 44.60 44.09 43.27 42.74 42.90 42.25 41.43 40.89 41.18
32.33 32.62 37.44 41.46 43.68 42.48 41.69 40.81 46.14 44.25 45.11 45.90 47.23 47.34 45.60 49.60 49.43 49.94 50.85 51.94 53.51 53.38 51.91 50.55 49.52 49.16 48.53 47.99 48.04 47.70 46.50 45.51 45.20 44.39 43.34 42.65 41.86 41.72 40.56 40.35 40.90 41.54 43.30 36.69
33.46 29.42 27.18 38.99 45.58 47.29 46.48 35.17 46.29 46.31 45.78 46.06 46.34 39.20 42.70 47.84 50.95 50.73 51.51 52.35 52.75 52.52 51.37 50.14 49.44 49.15 48.03 48.11 47.19 45.80 45.26 44.83 44.44 43.70 42.95 41.66 41.21 40.41 41.52 42.93 43.17 39.11 36.46 34.50
29.56 31.00 35.20 45.05 47.29 47.65 34.97 35.08 47.19 48.02 46.60 45.93 43.84 44.99 47.26 49.70 49.71 50.51 50.64 51.30 51.37 51.92 50.83 50.19 49.75 49.05 47.46 46.98 45.90 46.32 45.94 44.81 43.60 43.02 42.15 41.77 42.17 42.42 41.21 37.28 35.26 31.73 30.68 31.81
33.71 31.78 30.78 47.23 45.93 40.90 42.93 46.35 48.52 48.06 46.60 46.90 47.37 46.98 48.41 49.12 48.88 49.27 49.41 49.80 49.66 48.10 47.03 48.09 49.17 48.06 45.50 44.31 46.37 45.90 44.33 42.67 42.63 43.18 44.23 41.96 37.99 36.11 36.76 34.77 31.06 29.44 29.14 28.64
38.76 35.95 44.91 47.85 46.64 48.96 48.93 48.35 48.72 47.94 49.68 49.70 47.29 47.32 48.07 47.42 47.36 47.55 48.15 47.78 48.09 46.77 46.17 46.42 46.26 46.09 43.82 43.54 44.62 44.84 43.80 41.92 38.45 39.74 39.00 37.91 34.31 32.85 32.06 31.01 28.98 27.83 28.24 28.02
37.82 41.58 43.21 47.41 47.95 48.87 50.17 49.63 50.54 50.53 49.60 49.92 47.22 47.23 46.74 46.87 46.27 46.21 46.63 46.10 46.48 45.96 44.97 44.55 45.21 44.80 43.80 43.91 43.29 41.28 38.55 36.08 34.84 32.71 31.94 31.59 32.27 32.15 30.00 27.67 26.84 27.77 27.91 26.91
39.11 42.03 44.11 46.67 46.95 47.73 48.27 49.57 50.97 51.36 49.77 49.51 48.65 46.82 46.48 45.68 45.14 45.03 44.89 45.14 45.61 44.14 41.24 40.38 42.05 41.82 42.32 41.64 39.68 36.46 34.20 32.87 32.09 32.32 30.10 27.91 28.94 29.76 27.10 26.60 28.10 26.43 24.75 25.55
35.81 43.71 43.59 45.09 47.04 49.51 48.86 49.72 50.23 50.15 48.93 49.49 49.45 47.16 46.52 45.17 44.75 44.15 43.58 44.27 40.89 39.02 38.07 36.88 33.16 32.28 35.31 37.95 35.69 32.82 31.45 31.06 30.29 29.36 29.18 29.37 27.60 26.49 27.95 27.40 27.42 27.01 26.81 24.54
43.72 47.05 48.11 48.15 47.52 47.85 47.66 47.72 48.23 48.48 48.87 48.65 48.97 47.05 45.57 44.54 43.75 40.54 40.59 39.08 37.28 33.49 31.22 29.94 28.97 28.63 30.56 32.01 31.96 30.56 29.18 29.68 28.74 28.14 28.03 27.82 28.25 27.49 24.31 25.82 26.40 26.23 25.60 25.12
44.88 47.22 44.74 45.72 44.36 46.16 45.69 46.07 46.78 46.65 45.96 46.64 45.78 44.59 43.32 42.20 40.77 39.17 36.86 34.45 31.00 29.19 27.86 27.79 27.76 27.69 29.42 29.95 29.20 28.26 27.87 28.21 27.02 26.41 26.28 25.63 25.27 25.37 25.86 26.04 23.67 23.95 26.21 25.26
47.12 46.74 46.39 45.98 44.80 44.11 44.89 44.26 42.93 42.03 41.88 40.86 41.40 40.75 40.13 38.36 36.42 33.59 30.35 28.80 27.49 26.92 26.34 25.90 25.59 26.02 27.73 27.51 26.78 26.26 26.22 26.62 26.50 24.72 23.81 24.12 25.02 24.61 24.78 24.45 23.92 23.43 24.11 24.16
46.10 45.66 45.48 43.61 43.38 43.57 42.59 42.11 40.44 37.67 31.84 31.69 30.00 28.62 27.73 26.74 26.20 25.95 26.42 26.62 24.58 22.98 23.68 23.52 23.87 25.24 26.89 26.68 25.05 23.67 23.32 24.13 24.06 24.55 24.56 23.76 23.43 22.79 22.75 22.22 21.64 21.21 20.59 20.11
42.57 41.56 41.81 41.33 40.39 38.80 34.87 34.41 32.69 31.45 30.00 28.20 27.21 26.58 25.81 24.85 24.27 23.65 23.73 23.94 23.22 22.27 22.50 21.68 21.67 24.01 24.97 25.45 24.72 24.60 23.41 22.31 22.13 22.99 22.33 21.95 21.81 20.66 19.89 19.51 18.80 18.31 16.96 13.15
38.72 41.76 43.02 38.91 35.29 32.23 30.48 30.15 28.83 27.35 25.52 25.69 25.60 25.07 24.26 22.97 21.31 20.86 20.87 21.33 20.71 20.23 21.32 22.20 22.36 22.34 22.51 22.64 22.62 22.23 21.80 21.75 21.71 21.16 20.99 19.31 18.18 18.43 16.93 16.86 16.72 15.86 14.30 15.66
33.88 32.81 32.48 31.79 30.99 29.58 28.37 27.32 26.73 26.84 26.44 25.55 23.85 22.36 22.40 22.07 21.81 21.52 21.51 20.18 18.92 18.18 20.27 22.28 21.72 19.96 19.77 20.78 21.51 21.04 20.16 18.75 18.66 19.30 17.85 15.49 13.26 14.63 13.10 11.92 11.23 9.80 10.93 11.67
30.48 30.08 29.55 28.82 28.93 28.01 26.57 26.76 26.10 25.00 25.03 24.04 23.20 22.64 21.65 21.42 21.55 20.81 20.82 19.50 20.14 20.22 21.65 21.38 21.11 19.05 18.34 18.01 15.67 19.67 18.00 14.94 16.45 14.10 12.32 11.48 7.94 9.64 9.37 11.76 14.12 12.24 8.52 7.62
28.56 28.73 28.16 27.56 27.22 27.37 26.75 26.39 25.17 24.30 24.64 24.01 22.23 21.22 21.07 21.52 21.01 20.35 18.52 17.01 19.82 21.20 19.12 17.19 16.62 16.60 15.29 13.80 16.79 14.58 13.11 10.74 8.86 9.38 6.42 5.08 10.66 10.82 8.33 6.55 6.25 6.06 5.54 4.31
27.40 26.44 25.78 25.69 25.17 24.60 25.50 25.52 24.81 23.62 23.11 22.72 22.57 22.19 21.27 20.27 19.73 19.04 18.57 18.44 20.52 18.08 16.97 15.51 14.09 8.79 10.84 10.43 16.71 10.44 12.66 10.97 8.56 7.97 10.10 9.19 6.55 7.23 5.46 1.03 -2.54 -1.44 -1.11 -4.88
26.10 25.84 25.25 24.50 23.92 24.01 24.61 24.34 23.69 23.05 22.22 21.97 21.01 20.19 19.98 21.92 20.97 18.14 16.39 19.98 18.44 14.79 14.85 11.80 8.14 6.39 5.98 7.76 8.82 7.47 5.82 4.44 3.62 3.58 7.36 3.36 0.76 -0.75 3.03 7.40 7.24 2.78 1.37 2.07
25.28 24.96 24.47 24.92 24.54 23.26 21.84 22.89 23.15 22.55 21.33 20.97 19.50 21.40 20.00 17.63 17.12 18.17 17.97 15.59 11.74 9.79 7.68 5.35 5.52 6.45 4.45 8.98 7.96 5.32 0.96 -0.02 0.56 1.61 1.14 -0.18 4.58 3.85 0.21 -1.66 4.44 4.91 3.21 1.15
25.38 25.24 24.70 23.57 22.57 22.10 22.99 22.84 21.87 21.09 20.39 19.81 19.79 19.69 18.83 19.11 16.18 16.10 14.22 12.41 13.89 12.66 11.28 10.88 7.10 3.93 -0.10 -4.17 -5.46 -2.58 -1.81 1.33 4.29 6.16 4.93 1.21 -5.79 -7.97 -6.33 1.10 2.53 2.25 1.48 0.60
23.45 22.80 23.44 23.66 23.00 22.93 23.03 22.32 19.97 19.91 18.86 17.09 17.32 16.88 17.05 16.45 16.46 15.37 12.94 9.67 10.11 7.17 5.72 0.55 2.28 2.64 1.83 1.31 -0.59 1.86 -1.88 -1.93 -3.08 1.02 -2.01 -4.88 -6.88 -3.16 -5.25 -2.92 -3.84 -3.05 -5.87 -11.05
21.78 21.15 20.03 19.21 19.71 19.32 18.41 17.23 17.02 17.19 16.39 14.37 13.35 14.49 14.27 12.44 10.36 10.14 5.81 5.85 3.29 2.02 1.71 1.52 0.48 0.18 -3.18 -6.70 -4.35 -5.06 -6.18 -6.70 -2.39 -3.46 -9.23 -11.95 -12.13 -8.87 -4.19 -8.71 -11.80 -13.77 -11.77 -10.87

GFSNGP_sfc_wetblb_081.txt.gz
Wetbulb
37.79 39.16 40.38 39.49 38.68 39.30 37.80 37.79 34.61 36.55 39.00 42.98 44.15 44.25 45.48 46.21 45.18 45.08 45.86 47.20 48.17 48.85 49.66 50.55 51.78 53.08 55.38 56.06 56.43 56.68 56.23 54.82 54.97 53.34 52.81 53.05 52.83 52.30 51.74 52.19 51.67 51.93 49.26 47.31
34.10 38.31 39.66 38.44 40.51 40.71 39.36 39.34 39.73 39.31 39.66 44.66 45.49 45.05 44.54 45.96 45.30 45.78 46.51 46.77 48.31 49.62 50.05 53.00 52.77 52.26 51.43 51.11 51.54 51.29 53.06 50.36 49.84 49.86 50.04 49.91 49.33 48.97 49.10 47.85 48.01 47.43 46.02 45.05
29.72 36.91 38.08 32.40 37.42 40.12 40.86 40.30 39.66 36.26 41.13 45.17 44.43 44.31 44.68 45.17 44.92 45.42 46.12 46.39 47.20 49.54 51.53 53.00 50.75 51.75 51.98 51.19 51.39 50.51 49.17 49.35 49.02 49.04 48.34 47.83 47.45 46.37 45.34 44.79 44.94 44.05 43.77 43.81
28.23 30.75 27.10 36.68 42.63 43.13 41.70 42.43 43.57 42.70 43.26 44.52 44.52 46.04 45.71 45.02 44.89 45.84 45.85 46.66 48.27 50.57 50.27 50.63 51.20 50.09 49.97 50.07 49.85 49.71 48.99 48.97 48.63 48.14 46.87 46.35 45.61 44.56 43.89 44.06 43.78 43.72 43.82 44.03
29.70 28.36 32.58 36.80 39.99 39.86 39.78 39.17 44.74 42.20 43.95 43.78 44.13 43.41 42.90 45.11 44.72 46.00 46.63 48.17 51.10 49.64 50.18 51.14 50.10 50.18 49.53 49.13 48.86 48.33 47.54 47.60 47.40 47.00 45.23 44.44 43.31 43.30 43.38 43.29 43.09 42.55 41.31 39.50
31.88 28.81 23.44 33.46 41.36 45.39 45.01 34.50 44.54 44.84 43.79 44.02 44.01 38.26 41.62 45.55 46.72 47.06 49.62 51.62 49.75 48.36 48.74 48.71 49.20 49.70 48.86 47.97 47.75 46.66 46.27 45.59 45.47 45.22 44.28 43.46 43.50 43.18 43.41 43.07 41.47 37.93 34.47 34.77
31.79 30.83 31.46 39.43 43.69 46.00 34.07 34.17 45.36 45.94 45.37 44.50 42.40 44.02 45.23 45.84 47.50 48.90 51.32 50.08 49.50 48.87 47.92 47.58 48.09 48.37 47.48 47.05 46.11 46.49 45.87 44.81 44.34 44.64 44.03 43.51 42.83 42.43 40.00 37.77 35.00 32.18 30.65 30.80
32.36 30.01 26.98 42.55 43.69 37.85 41.16 44.87 44.95 46.59 46.77 44.43 44.22 45.21 45.63 46.34 48.08 49.97 49.49 49.53 49.14 47.70 46.87 47.11 46.72 46.23 46.01 44.74 45.14 44.88 43.89 43.25 42.84 42.93 42.76 41.98 39.25 37.10 35.77 34.42 31.84 30.06 28.73 27.66
35.31 33.97 41.71 43.55 43.78 46.95 46.92 45.18 46.30 46.93 48.15 48.29 45.31 45.15 46.13 46.80 48.01 48.90 49.09 48.53 48.56 47.24 46.15 46.07 46.10 45.68 42.74 42.71 43.87 43.46 42.60 39.49 37.76 37.31 37.39 37.87 36.46 34.48 32.93 32.42 30.95 29.38 28.32 26.59
36.95 40.08 41.42 44.02 45.32 45.42 47.60 46.88 47.73 48.63 48.04 46.87 44.17 45.76 44.79 46.27 46.11 45.52 46.08 46.27 46.31 45.51 43.93 42.92 43.56 43.14 42.32 42.00 39.69 37.08 34.39 33.71 33.68 32.37 31.41 31.58 31.23 31.70 31.03 30.31 30.22 29.61 28.10 26.10
37.50 40.32 41.94 42.83 43.47 45.41 46.37 48.03 48.28 49.71 48.59 47.67 47.09 46.51 46.11 45.14 44.31 43.86 42.70 41.28 40.53 39.16 39.38 40.01 40.83 39.72 38.75 36.77 35.60 32.88 32.09 31.57 30.94 29.85 28.37 26.89 26.93 26.80 26.99 28.41 29.79 28.72 27.77 26.88
34.17 41.39 40.17 41.18 43.65 45.26 44.81 46.36 47.97 47.84 47.38 48.77 47.95 44.84 44.01 42.82 42.27 39.26 35.81 34.48 33.18 32.77 31.98 31.79 32.60 32.79 33.54 34.28 33.60 31.44 29.54 29.05 28.74 28.29 27.60 27.12 26.50 26.64 28.83 27.99 28.26 28.37 27.89 26.46
38.51 42.01 42.16 43.38 44.77 45.38 45.25 45.18 44.65 44.60 46.35 47.08 45.75 44.83 42.40 34.83 32.55 31.43 30.65 30.05 29.46 29.08 29.49 29.06 28.86 28.91 30.04 30.44 30.22 29.04 27.82 28.00 28.00 28.14 27.94 27.70 27.85 27.94 25.82 27.33 28.74 28.54 27.87 27.04
42.24 40.92 41.46 43.62 42.92 44.48 43.27 40.16 38.99 40.09 40.08 39.82 38.51 36.48 33.51 30.71 29.70 28.20 27.28 27.77 28.18 27.76 27.41 27.68 28.16 28.24 29.87 30.23 29.43 28.27 27.43 27.10 26.78 26.06 25.77 25.48 25.34 25.48 25.48 24.56 23.52 24.93 27.38 27.41
41.27 41.66 42.43 43.42 42.45 40.77 39.28 37.34 33.04 30.35 30.09 30.05 31.47 30.04 28.80 26.42 25.63 25.66 26.73 27.25 27.25 26.56 26.52 26.49 25.56 25.33 27.30 27.68 26.82 26.06 24.68 24.34 24.57 24.25 24.05 23.64 23.46 23.12 22.74 22.37 22.07 21.42 22.20 22.35
38.67 40.78 41.88 40.61 38.91 36.99 35.70 33.17 29.74 27.18 27.00 26.39 25.76 25.55 25.42 25.22 24.65 24.32 25.13 25.57 23.59 22.21 23.12 22.71 23.18 24.59 25.20 24.66 23.72 23.58 23.72 24.07 23.44 23.00 21.97 21.33 20.72 19.43 18.99 18.74 18.98 18.56 17.36 17.13
37.75 37.21 37.42 36.21 35.22 33.07 31.06 29.95 28.11 26.33 25.91 25.20 24.55 24.54 24.16 22.94 21.99 20.90 20.85 21.54 21.15 20.77 21.43 21.66 21.89 23.85 23.92 23.57 23.06 21.93 21.41 21.21 20.23 19.85 18.60 17.99 16.68 16.33 16.47 14.50 14.37 14.27 12.06 10.60
35.31 36.38 35.24 33.52 29.24 27.67 26.79 27.11 26.61 25.98 24.51 24.40 23.34 21.96 20.81 19.63 18.19 18.38 18.65 18.98 18.31 18.16 19.49 20.59 21.50 21.56 21.49 21.48 20.68 19.76 19.02 18.56 17.84 16.99 15.87 14.11 14.67 15.01 12.66 11.83 12.39 12.02 12.28 13.24
32.30 30.44 29.54 28.74 27.80 26.75 25.60 24.39 24.14 23.86 23.20 22.75 21.31 19.56 19.33 19.56 19.53 19.18 19.14 17.61 15.96 14.66 16.43 19.72 21.21 19.94 19.07 19.04 17.95 16.62 15.33 14.23 14.11 13.03 12.70 9.81 8.85 9.70 8.78 8.26 7.12 4.52 6.10 6.42
28.25 28.21 27.58 26.65 26.62 25.89 23.89 24.16 24.09 23.17 23.29 22.25 21.14 19.66 18.48 18.31 18.06 16.77 16.15 14.60 15.62 15.62 17.66 18.11 17.98 16.62 15.64 15.02 14.81 13.22 11.27 9.70 9.98 7.87 5.75 4.94 1.01 -0.18 0.13 1.70 2.87 1.39 0.50 2.48
25.69 25.63 25.32 24.54 23.88 24.17 23.89 23.71 22.78 21.85 21.73 20.91 18.96 17.79 17.46 17.95 17.70 16.49 14.11 12.17 14.18 15.72 15.66 15.33 14.85 13.54 12.57 12.01 11.18 9.05 7.74 6.23 4.58 1.93 -0.92 -6.66 -6.13 -5.94 -7.93 -10.65 -7.93 -8.66 -4.31 -2.71
24.23 23.65 23.37 23.27 22.90 22.38 23.38 23.34 22.16 20.40 19.28 18.60 18.60 17.97 16.24 15.07 14.39 13.81 14.16 12.50 13.99 13.73 13.06 11.31 9.91 7.24 8.04 8.25 7.66 5.19 5.05 2.90 0.03 -0.51 -4.50 -8.11 -12.46 -14.09 -13.37 -11.92 -9.56 -9.20 -9.56 -9.20
23.03 22.91 22.31 21.57 20.72 20.60 21.28 20.90 20.82 20.20 18.99 18.81 18.45 18.44 17.51 17.16 16.04 11.67 8.99 12.74 12.65 10.34 9.43 7.51 5.19 3.58 2.36 2.21 -0.51 -1.89 -2.42 -3.79 -5.39 -8.47 -13.01 -17.18 -17.90 -18.45 -17.36 -17.36 -14.46 -14.64 -15.18 -13.19
22.41 22.51 22.21 22.71 22.31 20.67 18.56 19.30 19.41 18.58 17.33 17.32 16.86 16.67 14.76 11.65 11.11 12.65 11.80 10.07 8.02 6.71 5.61 4.64 3.01 1.25 -2.12 -3.66 -5.79 -7.57 -8.47 -10.11 -13.73 -16.99 -13.73 -15.91 -22.25 -20.98 -19.35 -19.90 -16.81 -17.72 -17.18 -15.54
22.73 22.55 22.01 20.95 19.28 18.44 18.69 18.77 17.97 17.50 16.72 15.82 15.37 15.20 14.96 14.67 11.48 11.71 10.58 8.82 8.39 4.42 1.60 -0.12 -0.18 -2.72 -6.92 -10.48 -10.47 -11.01 -14.64 -16.63 -17.90 -18.99 -20.80 -21.71 -20.80 -21.35 -21.35 -21.16 -22.25 -21.16 -19.53 -19.35
22.04 21.04 21.11 21.10 19.91 19.23 18.54 17.65 14.97 14.89 13.97 11.98 12.05 11.43 10.71 10.67 9.74 8.52 6.86 5.16 3.72 1.26 -0.58 -4.04 -6.98 -10.74 -13.02 -11.92 -16.09 -17.36 -15.91 -12.16 -16.99 -17.54 -20.98 -20.98 -21.35 -18.81 -22.07 -19.90 -22.43 -21.71 -22.25 -20.98
19.35 19.09 18.00 17.54 17.85 17.29 16.52 15.16 13.15 11.82 12.06 10.15 8.31 9.09 7.63 6.23 5.01 3.70 0.78 -0.86 -2.88 -5.30 -10.65 -15.54 -12.49 -8.73 -11.56 -16.99 -15.54 -16.27 -15.91 -17.18 -18.63 -18.08 -23.34 -23.16 -23.16 -24.79 -25.70 -24.07 -23.52 -23.16 -21.90 -21.17

GFSNGP_sfc_wetblb_084.txt.gz
Wetbulb
36.06 37.70 37.49 37.17 37.09 37.74 36.85 36.95 33.29 34.65 36.68 40.26 42.51 43.80 44.58 45.81 44.96 44.36 43.79 45.98 47.91 50.20 50.26 51.18 51.37 52.83 53.31 53.57 53.22 52.78 52.61 52.79 52.87 53.07 53.50 53.85 53.25 53.07 54.45 55.81 56.05 56.49 54.08 51.54
32.30 34.65 36.53 35.05 38.06 38.57 38.41 37.26 36.83 36.47 36.15 42.76 44.60 44.07 42.81 45.32 45.79 44.81 44.72 44.83 47.41 48.74 49.86 49.49 50.57 51.40 51.56 51.39 51.12 52.83 52.99 52.53 51.41 51.89 52.07 51.91 51.00 50.82 50.30 50.30 49.35 49.17 48.10 46.91
27.26 32.99 34.29 30.57 35.02 38.38 38.49 38.88 38.25 34.38 38.21 42.22 42.86 42.95 43.70 45.47 45.13 45.26 45.97 45.26 46.16 48.32 49.20 49.27 49.81 49.98 49.85 51.01 51.63 51.29 50.55 50.58 50.02 50.02 49.14 48.79 48.77 48.61 47.38 46.48 45.90 44.99 44.79 45.45
29.06 31.99 26.51 35.90 40.40 41.28 39.46 40.41 40.27 39.75 40.21 41.97 43.25 44.94 45.90 46.02 46.00 45.57 45.47 45.42 45.64 46.71 48.88 49.47 49.12 49.73 50.79 51.43 50.49 49.73 49.17 48.83 48.90 48.74 47.69 46.98 46.60 46.08 44.27 44.41 44.38 43.77 43.84 44.03
27.97 28.81 33.10 35.43 38.78 38.07 37.38 38.32 42.75 41.35 41.63 43.28 45.32 42.23 41.98 44.77 45.07 47.12 46.86 47.38 45.94 47.88 48.94 49.78 49.19 50.52 50.23 49.76 49.78 48.86 48.14 48.00 47.83 47.07 45.99 45.09 43.69 43.33 43.66 43.68 43.32 41.69 41.36 40.79
30.88 26.82 24.61 34.49 39.70 43.53 42.81 33.34 42.43 41.92 42.34 43.09 42.75 36.09 39.99 44.52 45.03 43.90 45.00 48.51 48.54 49.79 50.07 50.21 49.96 50.30 49.17 48.57 48.01 46.75 46.37 46.59 46.14 46.37 45.09 43.88 43.38 43.22 43.37 41.08 38.37 36.44 35.03 35.08
29.83 29.47 31.98 40.14 42.21 43.45 31.77 32.77 43.16 43.61 43.21 43.90 42.16 42.32 45.54 45.97 47.25 48.23 49.06 47.87 48.78 49.07 48.18 48.68 49.56 49.12 47.70 47.33 45.47 45.43 45.28 44.99 44.50 44.67 43.70 43.14 42.15 41.24 38.88 35.98 33.34 31.73 30.51 30.53
31.96 29.24 26.49 41.78 41.20 37.91 40.71 43.16 44.42 44.45 44.64 45.11 44.51 45.05 44.83 45.95 48.53 48.81 47.76 47.67 47.63 46.84 46.75 48.02 48.46 47.81 45.49 43.59 44.39 44.15 43.47 42.75 41.97 41.72 41.36 39.68 38.08 37.35 36.03 33.87 30.86 29.43 28.43 27.67
33.24 33.32 40.95 41.52 41.86 43.73 45.76 45.45 44.53 46.03 46.29 47.21 46.16 45.39 45.53 46.86 48.32 48.50 48.48 47.63 47.52 46.61 45.92 45.92 45.98 45.68 42.65 42.83 42.80 39.80 38.36 37.09 36.66 36.39 36.48 36.88 35.40 34.30 33.37 32.40 30.15 28.99 27.96 26.59
34.76 37.42 38.99 41.41 43.19 44.56 45.39 46.08 48.39 47.09 47.56 47.66 45.39 45.16 45.67 46.11 45.96 46.53 46.73 45.61 46.20 45.07 42.68 41.62 42.34 42.32 42.18 40.75 39.44 37.94 35.37 33.91 33.21 31.67 30.88 30.93 31.21 31.77 31.53 31.07 30.19 29.33 28.07 26.29
34.77 39.50 41.44 42.78 43.47 43.88 43.60 45.27 46.90 48.18 48.03 48.08 47.26 45.14 45.29 43.33 40.27 39.02 38.99 40.14 40.95 40.55 39.13 37.93 37.22 35.77 36.01 35.92 34.94 31.98 30.71 29.73 28.75 27.94 27.25 26.84 27.08 27.59 28.77 29.47 30.41 28.77 28.07 27.35
31.77 39.46 38.55 39.40 41.47 43.08 43.25 43.28 45.14 46.26 47.50 47.17 45.62 42.92 38.68 35.87 35.63 35.31 34.22 34.08 32.22 31.73 30.60 30.29 30.35 30.74 31.91 32.97 32.09 30.09 28.51 28.29 28.19 27.79 28.32 28.34 27.41 26.98 29.36 28.70 28.83 28.74 28.29 27.15
37.83 40.86 40.38 41.62 42.52 43.65 42.23 39.27 41.08 40.39 42.03 43.97 43.53 38.63 34.80 31.50 31.37 30.92 30.34 30.08 29.77 29.64 29.67 29.16 28.76 28.63 29.93 30.84 30.50 29.42 28.65 29.18 28.81 28.69 28.28 27.63 27.70 27.40 24.95 27.80 29.28 28.80 28.14 27.47
40.74 41.01 39.35 40.12 41.36 40.07 38.96 38.85 38.10 35.34 34.65 34.23 33.50 32.78 30.74 29.11 29.19 28.67 28.17 28.71 29.18 28.66 28.33 28.46 28.03 27.86 29.45 29.44 28.62 27.21 26.13 26.08 25.07 23.95 23.73 23.71 23.41 23.63 23.96 22.83 21.69 22.50 25.58 25.73
41.12 41.79 40.82 41.39 40.43 37.41 36.99 34.26 31.33 29.30 29.27 28.65 29.76 28.98 28.41 27.37 26.56 26.48 27.79 28.27 27.59 26.60 26.03 25.45 24.49 24.74 26.61 26.96 26.03 25.26 24.36 23.15 22.94 22.45 22.02 21.74 20.74 20.26 20.30 20.08 19.24 19.02 20.22 20.02
38.39 38.89 40.30 39.92 36.58 35.45 33.64 31.54 28.56 26.28 26.41 25.86 25.62 25.44 25.11 24.73 24.20 24.05 24.81 25.67 23.15 21.43 22.40 21.98 22.19 23.81 24.74 24.15 23.41 22.52 22.19 21.94 21.08 19.95 18.59 17.75 17.35 16.77 16.15 15.61 14.77 14.01 12.73 13.13
34.96 36.45 36.23 35.44 32.85 30.25 28.43 27.99 26.68 25.27 24.90 24.45 24.10 23.98 23.33 21.82 20.60 19.68 19.68 20.38 20.40 20.01 20.65 20.63 20.56 22.55 23.07 22.47 21.60 20.41 19.45 18.71 17.67 17.01 16.21 15.55 14.41 13.33 12.79 11.01 10.85 11.12 11.20 11.02
34.01 33.98 35.60 35.03 28.41 27.03 26.10 26.52 26.00 25.10 23.95 23.96 22.65 20.82 19.12 17.71 16.31 16.74 17.33 18.39 18.42 18.66 19.47 20.04 20.21 20.10 19.73 19.80 19.34 18.15 17.11 16.20 14.87 13.06 11.98 10.81 10.74 10.11 8.30 7.84 8.04 7.54 5.20 8.00
30.58 28.36 28.79 28.38 27.51 26.27 24.64 23.74 23.23 22.76 21.71 21.14 20.15 18.57 18.20 17.63 17.13 16.52 17.11 16.54 16.12 15.28 16.54 18.58 19.83 17.54 16.75 16.81 15.90 14.58 12.28 10.66 10.17 9.25 8.30 4.12 3.91 5.10 2.61 1.08 0.28 -1.11 1.38 2.23
27.71 27.49 26.81 25.88 25.75 24.52 22.90 23.22 22.54 21.41 21.05 20.15 18.53 16.34 15.03 14.98 15.08 14.57 15.04 14.24 16.33 16.86 17.07 16.02 15.23 13.98 13.10 12.53 12.10 10.42 8.50 7.55 6.63 2.31 1.81 0.40 -3.21 -6.90 -4.74 -2.10 -1.61 -5.61 -7.24 -4.88
25.32 25.28 24.57 23.92 23.24 23.58 23.13 22.51 20.99 19.64 19.33 18.32 16.57 14.99 14.52 15.01 15.14 14.90 13.33 11.66 14.18 14.88 13.75 13.09 12.36 11.55 11.03 9.83 8.64 6.18 3.96 1.54 -0.03 -2.21 -3.40 -8.72 -9.23 -7.24 -10.68 -13.40 -10.50 -12.68 -13.04 -13.77
23.57 22.90 22.38 22.41 21.82 20.83 21.28 21.47 19.98 18.84 17.75 16.33 15.28 14.17 12.80 12.03 12.02 12.01 13.32 11.68 12.20 11.49 11.00 9.74 8.22 6.84 6.78 6.90 5.97 3.54 2.49 0.48 -2.04 -3.41 -7.79 -9.61 -12.86 -16.67 -19.93 -18.84 -18.84 -18.84 -19.75 -19.93
22.14 21.95 21.57 20.41 19.46 19.41 20.23 19.74 19.25 18.43 17.26 16.69 15.61 14.92 13.95 13.87 13.37 9.93 7.36 10.50 10.46 8.90 8.02 5.94 4.21 2.72 1.49 1.19 -0.71 -2.08 -3.11 -6.79 -8.01 -10.87 -16.30 -21.02 -21.92 -22.65 -21.38 -20.66 -20.66 -21.74 -19.39 -17.21
21.31 21.12 20.45 20.77 20.14 18.44 15.88 16.80 17.28 16.75 15.43 15.09 14.26 14.04 12.61 9.53 9.25 10.56 9.46 7.23 6.06 5.40 4.43 2.95 1.40 -0.19 -2.49 -3.28 -3.96 -7.15 -9.49 -12.50 -18.30 -21.02 -17.94 -21.38 -25.91 -25.55 -23.01 -24.64 -21.38 -21.92 -22.65 -20.84
21.25 20.76 20.12 18.98 17.51 16.34 16.82 16.86 15.84 15.34 14.31 13.84 14.11 14.02 13.39 12.70 8.98 8.45 7.37 6.21 6.96 3.08 -0.18 -1.82 -2.17 -3.80 -6.77 -7.68 -8.57 -14.13 -19.75 -20.66 -21.56 -22.47 -23.92 -23.92 -23.92 -25.01 -25.73 -25.55 -26.64 -25.55 -24.10 -24.28
19.66 18.68 18.79 19.17 17.95 17.44 16.59 15.61 13.13 12.90 11.37 9.12 9.33 9.22 9.02 8.92 7.83 6.34 4.88 3.83 2.88 0.37 -2.50 -6.17 -8.75 -9.47 -9.45 -13.04 -18.30 -19.02 -18.12 -14.53 -20.29 -20.29 -23.92 -23.19 -24.64 -22.29 -26.09 -23.56 -26.46 -25.73 -25.37 -24.47
18.28 17.69 16.47 15.39 16.08 16.07 15.22 13.98 11.84 10.36 10.21 8.33 6.31 6.94 6.05 4.87 3.67 2.83 0.86 -0.42 -2.51 -4.77 -9.30 -11.60 -11.96 -9.78 -14.49 -19.02 -17.57 -19.39 -19.39 -20.47 -21.74 -20.47 -25.73 -26.64 -26.82 -28.81 -29.54 -29.54 -28.45 -26.82 -25.20 -24.29

GFSNGP_sfc_wetblb_087.txt.gz
Wetbulb
35.46 36.15 36.54 36.08 35.53 36.60 36.09 37.82 34.45 38.09 39.14 43.11 46.11 47.70 49.41 50.46 49.61 48.87 49.41 48.84 51.06 53.58 54.83 55.64 55.54 56.20 56.53 56.35 56.05 56.23 55.62 55.52 55.50 56.58 56.77 56.79 57.43 58.06 58.70 59.00 59.08 59.69 59.03 58.89
30.74 35.43 36.15 33.87 36.38 37.48 38.28 39.12 39.07 39.67 39.40 46.11 48.44 48.69 47.54 48.55 48.88 48.98 49.44 50.09 49.93 51.95 53.84 54.28 55.17 55.55 55.39 55.85 55.35 55.66 55.14 55.12 55.82 55.93 55.85 56.74 57.61 57.87 58.11 57.94 57.49 57.40 56.59 55.55
27.83 33.73 34.10 29.97 35.47 37.64 39.20 41.52 40.85 36.97 42.49 45.83 45.12 45.93 46.88 48.33 49.01 48.82 50.10 50.26 50.47 50.04 51.91 53.66 54.68 54.64 54.72 54.83 55.46 54.87 54.81 54.79 53.78 53.80 54.11 54.09 53.72 53.22 53.30 52.97 50.17 49.23 47.97 47.23
26.95 30.38 22.60 35.53 41.54 42.22 39.72 41.64 43.61 43.42 44.15 45.64 46.87 48.23 48.62 49.33 49.22 49.50 49.65 50.44 50.66 50.37 50.74 51.92 52.97 53.63 53.56 53.59 53.44 53.16 52.45 52.03 52.22 51.70 51.00 50.41 49.99 49.05 46.61 46.34 45.78 45.22 44.77 44.27
25.65 26.72 32.05 34.43 39.99 39.15 38.09 38.59 43.96 43.49 45.29 45.89 47.73 47.02 47.43 49.28 49.20 50.03 50.98 51.31 51.57 50.96 51.38 51.33 52.37 52.79 52.64 52.06 51.43 50.62 50.00 49.75 49.41 49.03 47.60 46.47 44.86 44.34 44.65 43.54 41.35 40.51 40.46 38.47
28.67 24.91 23.75 34.67 41.74 43.66 43.97 35.38 43.86 44.93 45.18 45.41 46.41 41.65 46.18 49.63 48.21 48.75 47.99 50.22 50.91 51.49 51.34 51.18 51.84 52.58 51.62 50.12 48.70 47.32 46.85 46.52 46.63 46.27 45.39 44.16 43.75 42.49 40.56 38.69 36.71 35.43 34.03 34.14
26.34 24.58 30.61 40.62 42.80 45.10 33.17 35.05 42.51 43.81 45.73 46.43 44.56 46.71 48.92 48.65 50.36 49.69 49.38 50.52 51.71 51.37 50.51 50.65 51.23 51.18 48.45 47.03 45.18 45.58 45.59 45.05 44.54 44.35 43.59 42.92 41.29 39.33 36.89 34.46 32.74 31.01 30.06 30.44
28.76 26.29 25.23 42.54 42.21 36.98 40.55 43.47 43.46 44.64 46.37 46.91 48.33 48.05 47.96 50.09 49.27 48.45 46.49 48.20 48.73 48.52 48.73 49.45 49.54 47.50 45.03 43.64 44.39 44.28 43.45 42.50 41.59 41.12 40.49 39.73 37.81 36.10 34.80 33.06 31.01 29.70 28.87 27.95
34.14 34.26 41.84 43.14 43.05 45.47 45.46 43.98 44.30 44.20 47.12 48.56 48.13 46.80 48.31 46.49 47.35 47.30 46.40 46.47 47.96 47.17 46.14 46.33 46.24 45.39 42.69 42.36 42.41 41.22 39.27 37.38 36.20 35.95 35.74 36.37 35.71 34.40 32.97 32.27 30.87 29.28 27.89 26.71
35.72 38.77 40.30 42.18 43.94 44.65 46.21 44.97 46.20 46.58 47.68 48.95 47.36 47.29 46.83 46.62 45.78 45.58 45.89 44.68 44.19 43.33 42.07 41.58 43.12 43.32 42.63 42.05 40.85 38.41 35.30 32.77 31.45 30.40 30.51 31.63 31.51 31.87 31.77 30.80 29.84 29.18 27.91 26.34
35.63 38.91 40.89 42.39 44.25 44.44 43.39 45.03 46.12 47.15 48.96 47.99 46.58 44.05 41.72 40.50 39.54 38.81 39.36 40.14 39.18 36.45 34.70 34.77 35.78 36.50 37.81 37.45 36.40 33.25 31.64 30.46 29.63 29.87 29.54 28.77 28.83 29.22 28.81 29.83 30.93 29.54 29.47 29.73
33.89 40.20 39.57 40.37 43.52 44.13 43.20 44.39 43.72 46.30 48.38 47.66 46.48 40.53 37.69 35.63 35.85 35.88 34.59 34.44 33.59 33.52 32.46 32.07 33.22 33.48 33.93 34.46 33.86 32.03 29.77 29.77 30.18 30.12 29.41 28.71 27.96 27.64 29.91 29.29 29.28 28.89 28.64 29.23
39.08 43.11 43.20 43.14 43.34 44.73 45.07 41.90 40.40 41.07 47.60 41.23 39.68 37.08 35.38 32.73 32.16 31.82 31.61 31.16 30.63 30.54 30.74 30.85 30.57 30.19 31.38 31.83 31.90 30.90 29.74 29.06 28.67 28.31 28.03 28.22 28.42 27.17 25.03 26.68 26.84 26.96 27.57 27.56
42.21 42.20 40.63 42.10 41.40 43.77 42.12 37.66 36.04 35.79 36.34 36.05 34.65 33.96 32.60 31.28 31.35 30.22 29.17 29.23 29.24 28.77 28.13 28.20 27.33 27.11 28.87 28.79 27.67 26.54 26.13 26.08 26.30 26.59 26.30 26.42 26.25 26.11 25.80 24.80 23.18 22.51 22.73 22.59
41.15 42.70 42.99 43.09 42.07 40.83 38.36 36.21 33.44 30.92 30.86 31.17 31.97 30.88 29.86 27.86 26.92 26.82 27.68 27.58 26.81 25.81 25.42 25.40 24.70 25.00 26.94 27.05 25.98 25.03 24.26 24.03 24.10 23.55 23.01 22.89 23.04 22.53 22.11 21.21 19.86 19.23 19.63 18.93
39.94 40.35 40.71 40.34 41.36 38.41 35.82 33.89 31.24 29.25 29.41 28.74 27.62 26.67 25.38 24.44 23.52 23.37 24.00 24.64 22.46 20.86 22.02 21.60 21.72 23.39 24.52 23.91 22.64 21.98 21.86 21.06 21.39 21.32 20.58 19.79 19.63 18.84 18.47 17.97 17.00 16.12 15.16 14.69
36.89 38.40 38.91 38.86 36.34 32.70 31.16 30.65 29.97 28.06 27.21 25.94 24.75 24.03 23.15 21.71 20.67 19.98 19.95 20.51 19.90 19.39 20.20 20.31 20.48 22.44 23.01 22.81 21.91 20.46 20.04 18.96 18.22 18.65 17.61 16.87 16.34 15.79 15.55 15.24 14.61 13.99 12.45 11.20
34.05 33.90 33.90 34.44 34.53 29.80 27.89 27.84 27.96 27.41 25.80 24.41 23.02 21.65 20.32 19.20 17.65 17.83 18.21 18.69 18.01 17.51 18.55 19.36 19.88 20.14 20.39 20.27 19.48 18.86 17.75 16.46 15.70 14.67 14.36 13.69 12.89 12.93 12.38 11.54 11.21 10.74 10.71 9.56
31.62 29.53 29.65 30.12 30.30 28.82 26.90 25.69 24.72 23.16 21.63 20.75 19.43 17.93 18.14 18.14 18.13 17.87 18.09 16.50 15.56 14.46 16.00 18.11 18.81 17.60 16.66 16.83 16.42 15.53 14.18 13.09 12.16 11.43 10.59 9.09 9.86 9.61 9.27 8.90 7.61 7.34 7.70 6.95
28.07 27.93 27.52 26.61 26.63 25.38 23.44 23.58 23.10 21.27 20.49 18.89 17.29 16.76 15.78 15.99 16.59 16.06 16.00 14.84 15.71 15.84 16.44 15.68 14.97 13.75 13.09 12.91 13.21 12.72 11.44 10.05 8.88 8.14 7.89 7.21 6.99 6.63 6.29 4.08 5.15 4.90 4.84 4.87
25.32 25.35 24.71 23.89 23.14 23.45 22.59 22.18 20.04 18.31 18.51 18.16 16.05 14.73 14.62 15.65 15.97 15.93 14.11 12.11 13.55 14.49 13.89 13.43 13.08 12.24 11.70 10.83 10.56 9.31 8.26 6.88 6.20 6.10 5.55 5.23 4.69 4.21 3.68 3.34 2.91 2.68 2.30 1.95
23.20 22.14 21.40 21.22 20.48 20.05 20.77 20.55 19.45 17.62 16.17 15.43 14.85 14.28 13.14 12.31 11.96 11.76 12.83 11.45 11.81 11.56 11.52 10.63 9.75 8.88 8.79 8.71 8.31 7.27 6.30 5.53 5.00 4.99 4.26 3.79 3.15 1.99 1.28 1.30 0.63 0.81 0.35 0.04
21.74 21.02 20.56 19.61 18.47 18.04 18.36 17.44 16.76 16.12 14.89 15.11 14.67 14.85 14.23 14.19 13.80 10.63 7.49 10.44 10.63 9.11 9.03 7.74 5.53 4.45 4.68 6.08 5.41 4.51 3.69 3.16 2.58 1.86 1.46 1.12 0.82 0.60 0.68 -0.20 -0.35 -1.32 -2.15 -2.53
19.99 19.74 18.88 19.21 18.39 16.60 13.93 15.01 15.42 15.06 14.15 14.01 13.31 13.31 11.89 9.57 9.32 10.20 9.78 8.05 7.03 7.39 6.71 5.68 4.12 3.06 3.70 3.94 3.28 2.57 2.32 1.80 0.92 0.67 -0.79 -3.62 -0.41 -0.38 -0.83 -2.79 -3.25 -3.24 -4.57 -5.45
20.28 19.62 18.98 17.65 16.02 15.04 15.28 15.50 14.81 14.29 13.57 13.00 12.70 12.81 12.19 11.71 9.08 8.83 8.36 7.27 6.69 5.66 4.60 2.14 1.77 1.57 3.12 2.95 1.97 1.24 1.12 0.60 0.30 0.23 -0.30 -0.50 -1.38 -2.42 -2.84 -3.90 -5.87 -5.38 -5.90 -5.90
19.00 18.12 18.20 18.18 17.27 16.74 15.70 14.65 11.93 11.89 10.65 8.85 9.15 9.39 9.22 9.09 8.32 7.54 6.26 4.87 4.43 3.09 3.22 2.62 2.16 2.12 1.94 1.21 0.29 -0.20 0.42 -0.06 -0.18 -0.86 -1.87 -1.80 -3.39 -3.64 -5.56 -6.12 -6.75 -6.57 -6.89 -6.89
17.38 16.81 15.53 14.65 15.52 15.32 14.63 13.39 11.21 10.11 10.09 8.90 6.95 7.62 6.83 6.18 5.27 4.30 3.03 2.58 1.69 1.21 1.18 1.70 2.29 1.01 1.07 0.75 -0.27 -0.90 -1.06 -1.27 -4.01 -1.30 -2.61 -3.85 -4.88 -5.31 -7.21 -7.54 -7.54 -7.73 -7.92 -7.93

GFSNGP_sfc_wetblb_090.txt.gz
Wetbulb
36.36 37.02 37.31 37.03 37.08 38.80 38.25 39.93 36.74 40.20 41.54 45.05 47.37 47.86 49.10 51.03 53.01 53.65 52.93 53.62 57.07 58.33 59.45 60.38 60.57 60.90 61.10 61.39 60.82 60.52 59.44 58.88 58.71 59.48 59.56 59.39 59.36 59.47 59.36 58.80 58.76 59.49 59.93 60.51
32.87 36.93 37.24 35.29 37.60 38.50 39.38 40.51 41.29 41.91 42.12 48.41 49.70 50.02 49.42 50.57 52.12 52.81 53.55 54.48 55.19 56.16 58.53 59.62 60.15 60.77 60.56 60.35 60.77 60.38 59.56 59.09 59.43 59.21 59.16 59.11 59.14 59.13 59.48 59.54 59.86 60.27 60.43 60.31
28.32 35.35 35.38 31.00 36.59 37.90 39.38 41.86 42.67 39.72 44.96 48.98 48.31 48.56 49.11 50.42 52.37 52.90 53.56 54.03 54.63 55.66 55.85 58.30 60.00 60.33 60.67 60.69 60.67 59.65 59.26 59.19 59.17 59.31 58.77 59.06 59.12 59.26 59.20 59.34 59.57 56.08 50.37 48.05
29.27 30.99 22.39 35.65 42.23 42.97 40.90 43.26 45.35 45.90 46.76 48.60 49.27 50.69 51.96 52.78 52.33 53.06 53.38 54.15 54.82 55.91 56.50 57.10 59.08 60.26 60.39 60.64 59.66 58.52 58.65 58.38 58.53 58.16 57.71 57.19 56.74 55.28 50.94 49.17 47.31 46.01 43.49 40.96
27.72 28.35 32.59 35.48 40.35 39.36 40.89 40.79 46.11 45.13 47.18 49.01 50.01 50.93 50.93 53.35 53.39 52.73 53.79 54.24 55.36 56.51 57.14 57.61 57.68 58.97 58.82 58.18 58.62 57.68 56.35 54.72 54.85 55.81 52.50 49.33 47.13 46.46 44.79 42.40 40.29 38.79 38.16 36.76
30.05 24.92 23.09 37.43 42.59 46.83 46.07 36.37 46.11 46.62 46.64 46.69 49.22 45.40 48.36 53.15 53.10 53.20 54.43 54.56 54.22 55.33 56.18 56.65 57.00 57.63 56.70 54.73 54.14 51.85 50.75 49.57 49.07 48.19 46.72 45.03 43.69 41.33 39.72 38.17 36.07 35.01 33.64 33.86
28.15 26.51 32.01 39.51 42.16 46.22 34.10 37.20 44.99 47.02 46.69 46.77 44.72 48.21 52.43 53.75 53.89 52.11 52.83 53.72 54.51 55.11 54.93 55.60 56.29 55.74 52.23 49.69 47.01 47.01 46.77 46.10 45.11 44.67 43.11 41.42 39.53 37.89 35.78 33.85 32.32 30.61 29.57 29.70
30.54 27.89 25.31 42.88 43.25 37.13 42.57 46.02 46.35 47.12 46.08 44.92 47.76 50.13 51.78 52.59 51.15 48.74 49.42 51.37 52.60 51.92 51.45 52.74 52.93 50.35 46.33 44.54 44.85 44.11 42.40 41.32 41.08 40.61 39.97 38.49 36.90 35.75 34.36 32.60 30.24 29.27 28.49 28.39
35.61 35.43 42.56 44.69 43.26 45.81 47.41 46.37 45.89 46.48 47.62 46.21 46.25 48.07 50.43 47.66 48.01 47.42 47.38 48.45 49.53 47.85 47.00 47.74 48.25 46.53 42.34 41.42 40.77 40.03 38.08 36.66 36.28 36.32 36.47 36.58 35.22 33.65 32.30 31.49 29.69 28.74 28.45 27.73
37.56 40.53 41.76 43.81 45.85 46.93 47.64 46.94 46.38 47.59 48.19 49.80 47.41 48.68 47.24 46.19 46.70 46.19 45.45 44.82 44.43 41.64 40.68 41.56 42.75 42.92 42.27 41.45 40.41 37.89 35.37 34.08 34.01 33.58 32.44 32.62 33.03 32.89 31.95 31.09 30.02 29.30 28.76 27.69
38.09 40.96 42.56 43.74 45.00 45.90 46.26 46.67 47.08 47.47 46.87 49.14 50.03 46.21 44.86 42.63 42.11 43.75 41.85 40.19 38.94 37.29 36.84 37.36 38.92 39.26 40.81 40.75 39.14 34.66 33.36 32.72 31.88 31.11 30.18 28.99 29.42 29.15 28.25 29.16 31.25 31.07 31.34 31.66
36.42 42.66 42.45 43.11 45.66 47.49 45.88 46.07 45.97 44.30 45.69 50.77 51.48 45.72 39.80 36.40 37.58 37.02 36.28 36.14 35.37 35.98 36.31 37.11 38.14 39.08 38.44 38.23 36.93 35.26 33.24 32.40 32.04 31.19 29.85 28.65 27.42 26.72 28.42 28.58 28.83 29.16 29.15 28.96
42.30 45.32 45.52 46.40 47.01 47.49 46.33 45.47 42.14 42.67 45.73 46.53 43.91 40.75 38.47 33.80 32.31 31.95 32.09 32.34 32.67 31.31 32.28 33.02 32.99 33.05 35.14 35.37 33.61 32.26 31.05 30.59 30.75 30.58 29.91 28.46 28.20 27.24 24.04 25.13 25.94 26.39 25.76 25.30
45.77 45.45 43.26 45.18 43.96 46.28 45.34 41.83 40.43 38.88 39.74 38.22 36.89 36.19 34.69 32.99 32.24 31.69 29.00 29.18 29.29 28.47 28.21 27.94 27.57 27.33 29.26 29.97 29.16 28.76 28.60 28.82 29.43 30.19 30.92 30.90 30.36 29.58 29.07 26.39 23.56 21.85 22.25 22.54
44.55 45.45 45.17 46.08 46.10 46.14 44.00 41.01 38.78 37.44 36.57 35.46 33.22 31.73 30.61 28.21 26.33 26.27 26.81 26.94 27.19 26.44 26.05 26.08 25.32 25.98 27.93 28.20 27.36 27.02 27.25 27.88 28.64 28.24 28.13 27.38 27.24 26.90 25.93 24.90 23.84 23.32 23.39 21.15
41.92 43.71 44.84 44.33 44.52 43.44 41.97 39.70 37.38 34.95 34.92 32.42 30.03 27.79 26.05 25.26 24.50 24.11 24.48 24.72 22.84 21.21 22.28 22.15 22.71 24.53 25.29 25.22 24.74 24.80 25.17 25.33 25.78 25.16 24.55 24.52 24.64 24.02 23.16 22.13 21.23 19.98 18.52 17.61
37.74 38.41 39.81 39.75 41.71 40.65 38.82 38.57 37.29 35.70 32.91 30.39 27.21 26.21 24.32 22.05 20.82 19.71 19.57 20.49 20.36 20.10 21.11 21.53 21.76 24.41 25.30 25.31 24.60 23.68 23.47 22.90 22.70 23.04 22.86 22.54 21.81 20.85 20.49 19.89 18.58 17.18 14.25 13.37
38.36 37.94 36.41 36.00 37.50 39.06 36.40 35.03 34.18 32.82 30.37 27.97 25.34 23.88 22.29 20.07 18.12 17.90 18.35 18.88 18.45 18.46 20.52 21.25 22.02 22.44 22.92 23.00 22.27 21.54 20.80 19.73 19.04 18.23 18.33 18.17 18.00 18.04 17.65 17.08 16.23 15.57 15.23 12.29
33.94 33.11 32.85 31.93 33.96 35.50 33.37 31.89 30.51 28.14 24.94 23.91 22.21 20.71 20.44 19.47 19.27 18.95 19.52 18.35 17.43 16.67 18.56 20.41 20.78 20.88 20.31 20.74 21.19 20.69 19.56 18.26 17.09 16.16 15.92 15.29 16.37 16.21 15.55 14.91 14.18 13.70 13.51 12.97
30.49 29.56 28.95 28.40 29.21 28.72 26.13 24.69 24.48 23.54 23.29 21.97 20.50 18.95 18.53 18.35 18.55 17.65 17.33 15.91 16.62 16.87 18.54 18.36 18.12 17.14 16.63 17.06 17.53 18.17 17.74 16.70 15.30 14.88 15.15 14.78 14.42 13.10 11.18 10.00 11.82 12.01 12.08 11.95
26.50 26.72 25.37 24.40 23.40 23.63 23.38 22.80 21.19 19.35 20.30 20.39 18.22 16.50 15.95 17.21 17.66 17.66 16.20 13.39 15.75 17.13 17.21 16.86 17.16 16.69 16.23 16.33 16.44 15.94 15.35 14.37 13.84 13.41 12.80 12.18 12.32 12.23 11.55 11.37 10.81 10.56 10.47 10.61
24.26 22.96 22.18 21.50 20.43 19.73 20.37 20.49 19.12 18.06 17.73 16.67 15.93 14.44 12.82 12.91 13.86 14.67 16.22 14.70 15.35 14.72 15.39 14.95 14.05 12.81 13.69 13.63 14.71 14.14 13.54 13.20 12.79 12.61 11.92 11.77 11.13 10.31 9.81 9.54 9.08 9.30 9.29 8.98
23.43 22.70 21.34 20.03 18.55 17.95 18.71 18.33 17.91 18.00 16.80 17.20 17.17 16.81 16.07 15.84 16.90 14.84 10.50 13.12 13.75 13.07 13.11 11.25 9.42 9.84 10.84 13.24 12.96 12.24 11.45 10.60 10.39 10.08 10.15 9.88 9.48 9.13 8.88 7.67 8.39 7.92 7.29 6.56
21.41 20.92 19.99 20.03 18.97 17.25 15.17 15.85 16.12 15.55 14.65 14.14 13.80 14.44 12.94 11.47 11.80 12.84 11.58 10.67 10.84 11.50 11.19 10.18 8.85 8.83 10.11 11.23 10.40 10.14 10.26 10.00 9.70 8.88 6.72 5.64 8.33 7.88 7.51 5.89 5.78 6.92 5.40 4.16
20.69 20.29 19.91 18.83 17.58 16.71 16.65 16.27 15.57 14.75 13.77 12.83 12.40 13.35 13.80 13.42 11.21 11.33 11.16 10.23 9.69 9.56 8.59 6.20 7.04 7.92 10.15 9.73 9.18 8.64 8.83 8.87 8.52 8.25 7.88 7.25 6.90 6.23 7.25 6.54 4.41 3.94 3.28 3.57
20.96 19.96 19.69 19.55 18.77 18.00 16.84 15.55 12.86 12.66 11.30 9.88 10.34 10.90 10.59 10.45 10.22 10.13 9.80 8.81 9.11 8.58 8.73 9.01 8.83 8.96 8.80 8.33 7.74 7.36 7.63 6.76 7.71 6.39 5.58 6.10 5.59 6.07 4.69 3.28 3.04 3.07 2.78 2.42
18.33 17.71 16.87 16.19 16.75 16.74 15.74 14.77 13.23 11.83 12.05 11.07 9.81 10.69 10.49 10.45 9.66 9.19 8.63 9.25 8.98 8.96 8.99 9.16 8.80 7.55 7.74 7.64 7.07 6.74 7.21 6.62 3.23 5.48 6.15 6.23 5.18 5.12 2.75 2.26 2.28 1.93 1.24 0.55

GFSNGP_sfc_wetblb_093.txt.gz
Wetbulb
37.05 37.72 38.79 38.44 38.64 40.08 39.19 40.40 37.60 40.84 42.03 45.79 48.50 49.28 49.96 51.42 52.30 52.25 53.96 54.74 56.12 58.76 60.26 61.53 61.95 62.49 62.66 62.39 61.81 61.21 60.31 60.40 61.09 61.61 61.89 61.58 62.03 62.35 62.08 62.12 61.67 61.26 61.32 61.27
33.64 37.23 37.70 35.98 38.25 38.96 39.27 40.35 41.34 41.94 41.25 47.37 49.34 50.26 49.56 50.36 50.86 51.56 52.49 53.80 56.12 57.18 59.31 60.49 61.50 62.25 62.42 62.68 63.12 62.89 61.31 60.84 60.97 61.25 60.65 60.99 61.51 61.44 61.36 60.76 60.59 60.23 59.83 59.59
29.84 36.26 36.26 32.68 37.42 38.83 39.45 40.71 40.97 38.52 43.30 47.17 48.36 49.19 50.28 50.39 50.83 50.98 52.46 54.34 55.51 56.22 57.46 59.07 61.03 62.31 62.50 62.76 63.37 62.28 61.56 61.08 60.69 60.48 59.85 60.77 60.05 59.78 59.63 59.72 59.35 52.89 48.57 46.02
30.46 32.56 23.53 36.51 41.89 41.89 39.94 42.39 43.58 42.49 45.11 48.66 49.23 50.87 51.61 52.38 51.97 51.99 53.70 55.10 55.94 56.75 57.40 58.39 59.65 62.04 62.91 63.22 62.63 62.01 61.40 61.13 60.82 60.52 59.85 59.96 59.87 58.90 53.85 51.20 46.95 42.94 40.35 38.38
29.02 29.85 34.02 36.73 40.69 41.84 39.55 39.62 47.10 46.51 47.83 48.99 50.56 51.80 51.94 53.53 54.04 54.92 55.31 56.03 56.00 56.70 57.16 58.06 58.98 60.41 61.94 62.12 61.92 61.34 60.52 60.52 60.59 60.57 59.57 56.04 50.00 46.62 43.75 40.02 37.78 36.65 35.81 34.55
30.92 26.32 25.12 39.04 42.52 44.82 45.03 36.44 46.06 46.41 46.91 46.64 48.63 43.91 48.90 53.52 54.95 55.38 56.11 56.47 56.85 57.60 57.53 57.80 59.32 60.46 60.57 60.05 59.91 59.11 59.82 57.74 56.10 52.03 49.05 45.33 42.39 39.63 37.77 36.04 34.19 33.10 31.97 32.32
30.86 28.13 33.31 41.33 43.28 44.81 34.36 37.45 45.87 46.23 45.81 47.11 45.37 46.16 50.37 51.78 52.93 55.73 54.85 54.98 56.31 57.11 57.02 58.04 59.13 59.58 59.02 57.29 50.62 49.11 47.65 46.29 44.93 43.72 41.44 39.50 37.36 35.83 34.07 32.37 31.26 30.45 30.29 31.02
31.28 28.26 26.17 43.71 43.82 38.34 43.43 46.42 46.91 47.55 47.28 46.18 48.52 49.81 49.55 49.67 52.46 51.54 50.53 52.39 54.97 55.93 56.21 57.35 57.45 52.98 47.54 44.62 44.30 43.49 41.98 40.48 39.25 38.61 37.70 36.36 34.82 34.41 33.19 31.13 29.87 29.46 29.12 28.48
35.73 35.13 43.64 46.29 45.48 47.37 47.49 46.26 46.86 47.25 47.55 48.41 47.35 48.56 48.62 47.16 51.66 48.16 47.90 48.85 49.92 49.86 49.56 49.07 47.87 45.24 41.08 39.91 39.38 38.10 36.95 36.31 36.25 35.95 35.46 35.06 33.75 32.38 31.53 31.33 29.95 28.91 28.28 27.51
38.58 41.82 43.18 45.40 46.34 47.22 47.11 47.30 47.71 47.68 48.39 48.27 46.64 49.81 48.26 49.24 49.30 46.62 45.13 44.43 44.75 44.16 42.93 42.34 42.49 41.11 39.85 38.71 37.83 36.23 34.28 33.49 33.15 32.11 31.77 31.97 32.64 32.79 31.62 30.76 30.09 29.22 28.39 28.26
39.39 42.29 43.72 45.10 45.99 46.62 46.92 48.50 48.07 48.42 46.98 47.52 49.49 49.41 47.93 44.41 41.99 39.65 39.76 39.95 40.42 39.82 39.05 39.59 39.57 38.66 38.71 37.39 36.34 33.68 32.85 32.50 31.24 30.26 29.10 28.27 28.71 28.72 28.95 30.85 32.23 30.79 30.97 29.87
37.59 43.42 43.44 44.42 46.77 48.16 47.04 47.08 47.89 45.53 44.62 49.55 47.33 45.81 43.15 39.35 38.73 35.12 34.22 35.49 37.31 37.54 38.17 39.30 39.73 39.21 39.29 39.24 37.08 35.27 32.62 32.06 30.18 29.13 28.52 27.84 26.78 26.52 29.21 28.74 29.16 28.67 27.98 26.88
42.64 45.85 46.23 47.04 47.85 48.55 47.26 47.55 45.83 44.60 45.65 45.56 40.91 39.73 36.97 35.35 32.94 31.58 30.05 29.30 29.59 30.04 30.96 32.18 33.14 33.78 37.00 38.58 36.87 34.11 32.13 30.91 29.80 29.03 28.41 27.28 26.25 25.05 22.98 24.79 26.00 25.47 24.90 24.08
46.75 46.05 44.08 45.92 45.30 47.77 47.75 47.28 43.96 42.31 41.40 38.45 37.28 35.66 34.33 33.06 31.52 30.59 29.28 28.56 27.94 27.63 26.83 27.15 27.27 27.73 30.37 31.34 31.28 31.13 31.40 31.58 31.59 31.29 30.61 30.06 28.87 26.95 26.18 24.57 20.84 20.10 22.34 21.68
45.65 46.69 45.90 47.15 47.52 47.41 47.56 45.28 43.58 41.29 39.81 35.93 34.43 32.13 29.98 28.08 26.81 26.62 27.48 27.05 26.40 25.26 24.78 24.83 24.60 25.41 27.99 28.85 28.99 29.34 29.98 29.74 30.13 30.13 30.42 29.67 28.83 27.86 26.95 25.63 23.11 21.99 22.17 21.49
44.07 44.37 44.78 45.16 44.88 45.97 45.77 44.53 42.66 40.93 38.88 35.14 31.09 28.63 27.15 24.90 23.51 22.96 23.91 24.86 23.37 21.67 23.14 23.60 23.79 25.26 26.99 27.26 27.05 26.56 26.60 26.63 26.92 27.22 26.84 26.00 25.78 24.82 24.15 22.65 20.35 18.36 16.71 17.35
39.72 39.78 40.44 40.16 40.69 41.18 41.99 43.77 42.14 41.33 38.78 34.26 28.44 26.09 24.22 22.64 21.56 20.63 20.82 21.74 21.83 22.24 22.92 23.23 23.59 26.11 27.44 27.57 26.38 25.52 25.39 25.29 24.70 24.91 24.23 23.57 23.33 22.39 21.67 20.72 19.12 16.51 14.98 14.99
38.86 39.14 39.73 39.08 37.87 37.63 38.43 40.95 39.35 37.73 34.87 30.75 26.52 24.33 22.30 20.60 18.68 18.44 19.03 20.33 20.45 20.82 22.15 24.04 24.55 24.57 25.09 25.22 25.09 25.20 24.54 23.60 22.88 22.35 22.51 22.12 21.67 21.32 20.48 19.64 18.87 17.53 15.88 14.43
35.97 34.41 34.07 33.62 33.81 34.70 33.91 31.43 30.63 28.90 27.15 25.88 23.03 20.96 20.49 20.12 20.07 19.69 20.41 19.86 19.71 19.36 20.52 22.18 22.42 23.10 23.31 23.55 23.39 22.85 21.67 20.66 20.14 19.58 19.36 18.76 19.00 18.62 18.40 17.92 16.99 16.77 16.41 15.43
30.76 31.12 30.23 28.60 28.86 29.01 26.76 26.62 26.35 24.84 23.99 22.42 20.70 19.70 19.17 17.99 18.19 17.95 18.17 17.39 18.84 19.31 20.95 20.99 21.17 20.51 20.92 21.33 21.35 21.02 20.62 20.18 19.30 19.09 18.51 17.51 16.64 15.46 14.96 14.59 15.90 15.96 15.69 15.06
26.38 26.44 25.87 25.22 23.97 24.28 23.59 23.46 22.43 21.13 21.51 20.58 17.67 16.62 16.58 17.07 17.77 18.32 16.15 14.63 17.25 19.33 20.01 19.71 20.20 19.95 20.16 20.51 20.33 20.05 19.51 18.52 17.71 16.94 16.46 16.51 16.28 15.85 15.69 15.51 14.98 14.54 14.04 14.17
25.38 24.20 23.06 22.47 21.64 20.77 20.82 20.50 19.23 18.13 17.01 15.66 15.66 15.65 14.57 13.99 14.10 14.80 17.05 16.12 17.45 17.61 17.88 17.60 17.30 16.94 17.86 18.35 18.87 18.44 17.66 17.18 16.96 16.95 16.09 15.94 15.29 14.33 13.80 13.68 12.92 13.06 12.98 12.67
24.72 23.72 22.53 20.98 20.18 20.09 19.97 19.31 18.97 18.65 17.97 18.32 18.02 18.15 18.17 17.33 15.97 13.71 11.07 14.79 15.46 14.39 14.80 14.48 14.22 14.75 15.83 17.40 17.14 16.43 15.78 15.22 14.82 14.53 14.47 14.20 13.82 13.30 12.74 10.75 12.00 11.61 10.98 9.96
22.76 22.18 21.50 21.53 21.02 19.34 17.22 17.67 17.62 17.06 16.85 16.84 16.71 16.37 14.68 12.99 12.66 13.82 13.67 13.10 12.47 13.08 13.14 13.41 13.26 13.49 14.42 15.76 15.59 15.05 14.77 14.13 13.30 12.51 11.81 11.32 12.47 11.48 10.97 9.49 9.33 10.74 9.56 8.47
21.99 21.57 21.21 20.27 18.76 17.49 17.38 17.53 16.27 15.79 15.49 14.58 14.26 14.87 14.86 15.24 12.33 12.98 12.73 11.98 11.65 11.53 11.52 10.72 11.65 12.47 14.50 14.37 14.00 13.51 13.55 13.42 13.35 12.92 11.86 11.21 10.68 10.15 10.43 9.53 8.39 7.81 7.32 8.09
22.72 21.69 21.25 20.96 19.75 19.19 18.97 17.85 15.74 15.47 14.23 12.03 12.23 12.60 12.65 12.69 12.21 12.23 11.92 11.72 11.80 11.95 12.58 12.50 12.74 13.06 12.58 12.14 12.02 11.94 11.88 11.51 10.86 9.23 9.79 9.86 8.79 9.24 8.15 7.27 7.20 7.72 7.47 6.81
19.96 19.71 18.93 18.42 19.21 19.10 18.27 17.27 15.49 13.93 14.07 13.11 11.49 12.22 11.79 11.59 11.37 11.20 11.21 11.68 11.60 11.71 12.10 11.97 11.25 11.12 11.68 11.62 11.00 11.10 10.98 9.17 5.84 8.61 9.18 9.04 8.85 8.94 7.09 6.60 6.79 6.47 5.62 4.97

GFSNGP_sfc_wetblb_096.txt.gz
Wetbulb
36.27 37.76 37.83 37.11 37.94 39.30 38.42 40.08 36.06 39.47 40.62 44.44 46.58 47.24 48.32 49.79 51.59 51.49 51.71 53.02 54.95 57.17 58.80 60.21 61.18 61.43 60.93 60.00 59.68 59.74 58.94 59.16 59.38 59.77 60.27 60.26 59.70 59.71 59.84 59.82 59.25 59.35 58.75 58.59
32.61 36.30 36.19 34.50 37.13 38.01 38.57 38.91 38.98 40.27 40.25 46.62 47.95 48.44 48.42 49.25 49.86 50.18 50.93 51.91 53.02 55.10 57.90 59.51 60.38 61.26 61.44 60.88 59.94 59.42 58.73 58.43 59.76 60.05 60.09 59.81 59.82 59.73 59.55 59.47 59.47 59.55 59.19 57.63
28.98 35.59 35.19 31.27 35.55 36.64 37.49 39.01 38.79 35.58 41.13 45.76 45.97 46.93 48.20 49.02 50.41 50.61 51.49 52.25 52.66 54.84 56.76 59.10 60.61 61.66 61.28 61.45 61.37 59.68 58.95 59.16 59.41 59.93 59.56 59.41 59.77 59.56 59.06 58.65 57.78 53.65 45.70 42.50
29.13 32.14 23.77 36.33 41.49 40.95 39.34 40.43 41.54 44.42 43.61 43.73 46.17 49.57 50.31 51.40 51.17 51.89 53.80 54.47 55.10 55.99 56.17 57.07 58.38 61.32 61.99 62.42 61.97 60.75 59.70 59.65 59.60 59.24 58.87 59.02 58.74 57.99 51.83 47.05 43.23 39.86 37.69 36.74
27.06 27.63 32.70 35.80 39.28 39.96 39.99 39.88 45.59 45.01 46.41 47.92 48.53 49.18 48.57 51.70 51.81 51.43 52.81 54.69 54.79 55.45 56.01 56.87 56.58 56.89 60.97 61.51 61.25 61.19 60.26 59.81 59.70 59.15 58.13 57.39 51.29 44.62 41.91 38.96 36.76 35.23 34.80 33.89
31.06 24.97 24.26 37.36 42.01 43.99 43.47 35.22 44.32 44.94 44.36 44.32 45.71 41.03 44.76 49.96 50.89 51.47 53.17 53.39 52.93 54.07 55.35 56.48 56.82 57.98 58.29 59.91 60.33 59.21 59.35 58.48 57.42 54.70 48.60 43.72 40.78 38.13 36.21 34.62 33.04 32.64 31.99 32.23
29.39 28.18 32.55 40.72 42.64 44.34 32.10 35.94 44.73 45.33 45.28 45.04 42.64 44.97 48.09 50.60 51.34 51.74 52.69 51.32 52.11 53.64 54.34 56.36 57.24 57.49 55.99 51.87 49.44 49.08 47.20 45.67 45.16 43.75 40.39 37.77 35.51 34.32 32.97 31.88 31.44 30.76 30.73 31.37
30.71 27.77 25.76 43.34 42.38 37.62 42.07 45.56 45.71 46.20 46.42 45.99 47.07 47.79 48.15 48.65 50.37 50.44 49.66 48.98 49.95 50.73 51.03 51.01 50.89 49.41 45.94 43.69 43.76 42.96 41.18 39.41 38.36 37.55 36.68 35.02 33.42 32.65 31.93 30.86 29.42 28.87 28.40 28.52
34.25 33.46 42.90 44.67 45.19 47.41 47.10 45.04 45.70 46.60 46.68 47.04 46.40 46.41 47.77 49.42 49.50 47.83 46.98 45.80 45.97 45.92 46.24 45.27 45.55 44.67 39.91 39.23 39.49 39.25 37.67 35.81 35.11 34.74 34.16 33.73 32.33 31.53 30.81 30.49 29.05 28.43 27.93 27.10
36.83 40.12 42.51 44.93 46.76 47.33 46.71 46.06 47.19 47.79 47.11 45.78 44.90 47.89 48.54 48.53 45.67 42.39 41.88 40.74 41.86 42.41 41.46 39.71 40.22 39.71 38.57 38.10 37.69 35.99 34.23 33.36 33.47 32.44 32.18 32.49 32.40 31.85 30.72 29.74 28.94 28.65 28.39 27.59
38.20 42.05 43.40 45.04 45.92 46.66 46.85 47.71 47.34 47.97 46.57 45.56 47.68 46.86 45.00 42.22 40.27 38.76 37.02 38.01 38.71 38.46 38.35 37.56 37.76 36.91 37.04 36.43 35.16 32.80 31.72 30.96 29.99 29.41 29.07 28.42 28.79 29.49 29.16 30.35 30.88 28.18 26.74 26.01
35.70 42.88 42.54 43.74 46.15 47.24 46.43 46.61 46.81 45.36 44.65 46.87 44.89 42.74 40.40 36.67 35.33 34.04 32.09 30.99 30.00 29.74 32.29 36.36 37.50 36.79 35.84 35.66 33.94 31.44 29.51 28.90 28.46 27.69 27.05 26.17 24.94 24.49 28.41 27.64 27.85 27.48 27.02 25.30
42.01 45.56 45.23 46.21 46.72 47.49 46.28 46.77 45.35 44.21 43.77 42.65 39.83 38.35 35.95 33.32 32.00 31.24 30.10 28.34 27.29 27.01 27.78 28.31 30.02 31.04 33.15 33.67 32.52 30.67 28.36 27.92 27.24 26.56 25.08 23.87 23.14 21.78 20.02 23.54 25.60 25.44 24.83 24.33
45.48 45.56 43.78 45.40 43.93 46.77 47.46 46.64 44.96 43.41 40.80 38.98 36.25 34.89 32.16 30.78 30.14 28.75 28.07 28.65 29.11 28.07 27.32 27.60 27.55 27.98 30.81 31.82 31.71 31.02 30.38 29.39 28.25 26.81 25.49 24.33 23.54 23.04 21.77 19.53 17.77 18.28 21.67 21.31
44.31 45.56 45.07 45.55 46.59 45.65 46.66 46.47 44.32 43.41 40.83 36.03 33.78 31.41 29.50 27.20 25.52 25.26 25.41 26.07 26.03 25.26 25.34 26.31 26.00 26.53 29.15 29.19 28.77 28.70 28.15 28.00 28.94 29.22 28.47 27.38 25.74 23.55 22.26 20.53 19.22 18.91 19.47 20.56
41.97 43.31 43.80 42.53 42.27 42.56 42.48 42.79 42.63 42.68 40.48 34.52 30.33 26.87 25.07 24.54 23.76 23.65 24.33 25.00 23.63 22.68 24.25 24.93 25.09 26.72 27.53 27.39 26.69 26.51 26.78 26.89 26.57 25.94 25.45 24.88 23.41 21.49 19.97 18.51 16.78 16.00 15.99 16.86
36.66 36.13 37.24 37.66 38.29 38.63 39.02 40.08 40.75 41.08 37.56 31.77 27.55 25.75 24.30 22.76 21.69 21.45 21.98 23.08 23.28 23.24 24.17 23.94 23.90 25.84 26.37 26.51 25.66 24.98 24.87 24.72 24.31 23.81 22.91 22.59 21.25 19.64 18.26 15.79 13.71 12.91 13.05 14.53
36.69 36.73 36.21 34.59 33.83 34.08 35.28 35.16 34.73 34.47 31.24 28.36 25.39 23.28 21.41 19.57 18.56 19.09 20.37 21.61 21.71 21.71 23.05 23.83 24.85 25.29 25.48 25.35 24.73 23.66 22.99 22.60 22.25 21.48 21.43 20.33 19.91 19.63 18.50 16.25 14.34 12.83 13.15 14.05
33.06 32.11 31.38 30.74 30.36 31.27 29.93 29.21 28.14 27.23 25.41 24.04 21.54 19.84 19.94 19.90 20.25 20.50 20.81 19.65 18.62 17.79 19.98 22.74 23.75 22.98 22.56 23.04 22.49 21.48 20.37 19.45 19.00 18.71 18.80 18.39 18.03 17.56 16.42 15.66 14.76 14.26 13.78 13.13
28.21 28.44 28.13 26.62 26.63 27.40 26.52 26.26 25.30 23.45 22.86 21.26 20.61 18.83 17.15 17.39 17.79 17.46 17.39 16.30 18.13 19.06 20.56 21.06 21.56 21.02 21.17 21.71 21.69 20.98 20.27 18.91 17.82 17.11 16.13 15.05 14.05 13.42 13.88 13.72 14.08 13.50 12.95 11.93
25.64 25.26 24.36 23.98 23.39 23.49 23.57 23.90 22.57 21.15 20.65 19.56 17.42 16.72 16.59 17.23 17.17 16.68 14.94 13.30 16.49 18.57 19.29 19.71 19.93 20.00 20.55 20.12 19.79 19.18 18.15 17.08 16.44 15.60 15.29 14.89 14.50 14.04 13.49 13.00 12.69 11.94 11.85 10.93
24.68 23.12 21.48 21.43 20.62 19.80 20.29 20.36 19.11 18.14 16.92 16.01 16.01 15.90 15.38 15.03 15.34 15.32 15.96 14.69 16.67 16.99 16.86 16.86 17.56 18.25 18.63 18.81 18.60 17.91 17.47 16.76 16.17 15.79 14.90 14.37 13.37 12.37 11.56 11.20 10.59 11.14 10.47 10.03
23.95 23.03 21.51 20.53 19.35 18.92 19.39 19.13 18.92 18.64 18.05 18.29 18.08 17.71 17.01 16.61 16.30 12.86 9.84 14.73 15.42 15.18 15.12 15.71 16.28 16.74 16.99 17.17 16.67 15.94 15.48 14.62 14.09 13.83 13.25 12.64 12.12 11.08 8.85 9.63 9.74 8.90 7.90 5.56
21.69 21.25 20.98 20.78 20.05 18.01 15.76 16.52 17.12 17.09 16.36 15.98 15.30 15.14 14.10 11.97 11.43 13.10 12.95 12.43 12.72 13.23 13.14 14.12 15.12 16.00 16.01 15.73 15.44 14.54 13.60 12.63 11.97 11.85 11.39 9.71 10.38 9.06 7.78 5.70 6.05 8.19 5.67 3.53
21.26 21.09 20.36 19.32 17.21 16.20 16.29 16.19 15.50 14.85 14.13 13.65 13.87 14.64 14.93 15.00 11.84 11.95 12.42 12.29 13.11 11.85 11.94 13.19 13.84 14.03 14.24 14.02 13.49 12.92 12.14 11.85 12.24 11.32 10.48 9.57 8.42 7.72 8.51 6.29 4.77 2.97 2.48 3.55
21.45 20.53 20.42 20.29 19.61 19.22 18.63 16.95 14.36 14.08 13.04 11.48 11.87 12.51 13.02 13.81 13.37 12.56 12.65 12.83 12.95 12.62 12.53 12.88 12.87 12.61 12.63 12.50 12.16 11.49 11.10 9.73 8.57 8.83 8.08 7.77 6.75 6.77 4.41 3.25 2.92 3.18 3.31 1.72
19.87 19.86 19.34 18.69 19.21 18.98 17.93 16.51 14.38 13.31 13.45 12.32 11.17 12.76 12.69 12.91 12.92 12.83 12.24 12.30 12.54 12.11 11.46 11.13 11.19 11.80 11.88 11.75 11.69 10.77 8.31 5.50 1.60 7.54 7.48 6.44 6.15 5.71 2.52 2.33 2.59 1.67 0.57 -0.48

GFSNGP_sfc_wetblb_099.txt.gz
Wetbulb
34.25 35.35 34.95 34.17 34.08 36.67 34.21 37.01 34.57 37.13 37.68 42.19 44.61 44.96 46.16 46.54 49.89 50.65 51.32 51.99 51.20 51.04 56.64 58.16 56.71 56.94 57.49 57.30 57.56 57.09 57.28 57.17 56.53 56.79 57.61 57.36 56.80 57.27 56.86 57.72 58.12 57.96 57.40 57.02
31.32 35.60 35.65 32.65 34.91 35.20 35.78 36.25 35.69 36.79 36.13 42.21 44.84 46.01 44.89 49.21 49.67 50.03 51.22 52.57 53.09 53.09 53.33 54.57 58.14 57.23 57.33 57.24 57.26 57.80 56.98 56.86 57.60 57.32 57.57 57.04 56.73 56.86 56.69 56.78 57.72 57.32 57.25 57.21
27.64 34.10 33.12 27.19 33.15 35.13 35.71 36.94 35.58 31.75 37.38 41.76 41.04 45.45 46.53 46.42 47.42 48.03 49.85 51.15 51.71 51.75 52.30 53.11 54.11 58.89 57.67 57.55 57.87 57.38 56.86 57.34 57.68 57.81 57.56 57.62 57.55 57.03 56.69 55.41 55.72 46.86 43.27 41.77
27.74 30.24 20.94 33.79 40.56 39.22 36.94 39.07 39.75 41.54 43.11 43.59 44.62 46.46 47.02 47.71 47.11 48.11 49.52 50.78 50.74 50.81 51.24 52.65 53.87 54.19 58.29 58.86 57.95 57.10 56.74 56.79 57.25 58.00 57.64 57.85 57.43 57.27 53.93 46.66 43.15 39.87 37.69 36.81
25.82 24.77 30.83 34.33 38.35 38.85 37.88 37.43 42.06 41.23 42.46 43.24 45.03 45.70 44.60 47.68 48.45 48.80 49.61 49.93 50.13 50.81 51.60 52.87 52.27 52.82 52.92 57.29 58.09 57.22 56.38 56.33 56.78 57.07 57.13 56.73 50.88 43.15 41.34 38.69 36.68 35.24 35.03 34.27
27.53 22.94 20.53 35.24 40.37 42.31 41.11 33.29 42.92 42.67 42.00 41.82 42.32 35.60 40.07 46.21 47.39 48.62 49.09 49.09 48.76 49.74 51.52 50.21 49.06 50.74 51.32 51.69 54.37 55.38 56.18 56.04 55.66 56.01 54.65 44.98 41.36 38.61 36.74 35.34 33.47 33.07 32.15 32.73
26.23 26.68 30.60 39.29 41.29 42.97 30.06 33.05 43.02 43.45 42.32 41.73 39.48 41.28 44.25 46.44 48.49 49.38 47.78 47.62 48.04 48.24 48.84 47.18 47.06 45.88 43.28 44.01 43.84 45.08 43.50 44.83 44.10 43.01 41.29 38.73 36.29 35.55 34.34 32.89 31.98 31.32 31.09 31.60
27.89 23.74 22.90 42.17 41.33 36.36 40.33 41.28 41.64 42.54 42.22 42.04 42.42 43.57 44.49 47.33 47.27 45.89 43.68 43.86 44.47 44.65 45.29 44.31 44.07 42.44 39.90 39.05 40.54 42.31 41.86 41.24 39.40 39.48 38.06 37.29 34.77 32.91 32.38 31.58 30.29 29.73 29.27 29.28
31.03 29.78 39.20 42.87 42.80 44.61 43.75 41.89 41.25 41.96 42.01 42.32 41.29 42.11 45.84 45.92 43.04 40.92 39.33 39.48 40.82 41.53 42.49 41.32 40.97 40.46 38.62 38.23 38.66 38.15 37.60 36.80 36.34 36.58 35.47 34.95 33.34 31.50 30.80 30.79 29.52 28.49 27.63 26.86
34.69 38.14 40.02 41.99 44.10 44.86 45.01 44.13 44.35 43.69 42.79 43.88 44.11 44.93 44.31 42.08 39.37 37.04 36.18 36.68 37.42 38.92 38.55 37.24 37.85 37.79 37.41 37.18 36.75 35.80 34.60 34.22 33.54 32.88 32.57 32.52 32.34 31.96 31.15 30.29 29.26 28.11 27.36 26.67
37.01 39.39 40.29 42.52 43.77 44.40 44.47 45.27 44.49 43.74 44.23 43.93 43.84 40.73 39.83 37.14 36.48 35.24 33.12 32.62 32.52 31.96 35.98 36.17 36.12 35.29 35.47 34.94 34.25 31.92 31.06 30.38 29.39 28.86 28.13 27.30 27.61 29.62 28.96 29.06 28.31 25.60 24.70 24.42
34.05 40.76 40.03 40.79 43.89 45.69 44.69 43.06 42.94 42.42 42.10 39.36 39.05 37.69 37.10 34.57 33.79 32.07 30.31 29.72 29.64 29.73 30.77 32.37 34.81 34.04 33.38 33.23 32.16 30.25 28.47 27.79 26.82 26.16 25.61 25.19 24.52 24.41 28.31 27.43 28.01 27.79 27.11 25.20
39.09 42.94 42.16 43.76 44.39 43.98 42.42 41.59 41.54 40.08 39.59 36.73 36.63 35.39 34.10 32.38 31.10 30.10 28.83 28.61 28.21 28.25 29.09 30.24 30.91 30.75 31.40 30.91 29.95 28.03 25.97 25.69 25.12 24.34 23.52 22.57 21.90 20.90 18.96 23.28 26.07 26.27 26.57 26.74
44.11 43.65 41.54 42.22 40.19 42.40 43.11 42.48 41.34 38.63 37.14 34.81 33.33 32.52 30.79 27.56 26.58 25.80 24.57 26.10 26.48 26.90 27.85 29.37 29.93 30.03 31.10 30.60 29.08 27.67 26.78 26.12 24.94 23.84 22.51 21.66 20.81 19.94 19.52 17.98 17.11 19.07 23.57 23.99
40.72 41.17 40.51 41.17 41.21 40.32 40.74 40.67 40.03 36.85 33.53 30.83 30.13 28.52 27.47 25.89 24.69 24.74 25.67 25.95 25.52 25.46 24.85 25.81 25.72 26.59 29.97 30.45 29.65 28.60 27.08 26.43 26.41 25.28 23.60 22.28 21.20 20.16 19.50 18.97 18.56 18.67 19.43 19.82
38.31 37.60 37.35 36.77 36.40 36.70 37.08 37.29 36.45 37.19 31.46 28.04 25.68 25.33 24.70 24.37 23.59 23.63 24.64 25.21 23.47 22.42 23.94 24.17 24.26 25.87 27.66 27.96 27.09 26.50 26.40 26.65 26.11 24.86 23.60 22.18 20.93 19.62 18.81 17.61 16.01 15.37 16.68 16.15
32.20 31.62 32.31 31.83 32.19 32.94 33.34 33.39 33.03 33.23 29.34 25.83 24.69 24.42 23.44 22.28 21.85 21.23 21.92 22.68 22.76 22.81 23.74 23.96 24.00 25.42 25.75 25.93 25.48 24.83 24.33 24.06 23.49 22.20 20.87 19.41 17.58 15.83 15.03 14.26 13.53 13.76 13.98 15.00
31.53 31.22 30.67 30.22 29.08 30.46 31.04 30.80 29.73 29.05 26.79 25.58 24.08 22.01 20.36 19.88 19.06 19.64 20.02 20.80 21.03 21.21 22.58 23.37 24.06 24.38 24.73 25.04 24.56 23.72 22.80 22.17 21.45 20.48 20.08 18.03 15.95 14.69 13.45 13.09 13.23 12.65 12.69 12.37
28.89 28.00 27.72 26.64 26.21 27.93 27.40 26.43 25.60 24.88 23.41 22.20 20.74 19.41 20.06 20.08 19.66 19.22 19.46 18.48 17.90 17.46 19.25 22.14 23.50 22.71 22.38 22.34 21.45 20.59 19.50 18.78 18.39 18.01 17.34 16.63 15.72 15.40 14.33 13.25 12.28 11.51 11.48 10.93
26.10 25.70 25.30 24.55 23.52 23.37 23.22 23.96 23.32 22.03 21.89 20.82 19.45 17.80 16.48 16.75 17.54 17.01 17.24 16.17 17.68 19.04 20.86 20.84 20.85 20.58 20.75 20.71 20.66 19.05 17.93 16.44 15.41 14.10 13.58 13.12 12.63 12.22 12.15 11.16 10.76 8.95 6.96 6.55
23.41 21.98 21.83 21.57 19.75 19.26 19.38 19.76 19.81 18.88 18.60 18.05 16.94 15.90 15.41 15.85 16.17 16.12 14.50 13.40 16.98 19.75 20.20 20.17 20.04 19.45 19.43 18.90 18.55 17.88 16.84 15.58 14.50 13.82 12.74 11.29 10.37 10.00 8.68 8.16 7.70 5.78 3.96 3.93
19.20 15.21 14.60 15.78 15.59 14.32 16.33 16.76 16.61 15.28 15.23 15.22 16.32 15.77 13.91 12.79 13.05 13.07 14.61 13.70 16.01 17.04 17.61 17.92 18.21 18.23 18.11 18.19 17.38 16.47 15.60 14.58 13.52 12.80 11.38 10.03 7.96 6.44 4.48 4.50 4.18 2.07 0.45 -0.03
17.93 15.17 14.67 14.05 13.92 14.09 15.23 15.49 14.80 15.09 14.91 14.37 14.38 13.67 13.25 13.46 13.24 10.86 9.42 14.52 15.57 15.79 16.09 16.28 16.52 16.18 15.97 15.63 15.13 14.24 13.17 12.38 11.49 10.49 9.35 7.67 4.95 2.25 1.66 2.00 0.61 -1.35 -4.78 -2.20
12.29 14.30 14.90 13.73 13.87 13.77 11.73 13.39 14.11 13.98 13.41 13.62 13.09 12.57 11.46 9.46 9.76 12.06 12.60 12.88 13.47 14.03 14.50 15.34 15.49 15.74 14.77 13.89 12.73 11.79 11.09 10.45 10.15 9.49 8.56 7.37 5.13 3.80 0.95 -0.55 1.00 -8.60 -10.05 -6.81
15.61 14.39 15.10 13.65 13.37 12.52 12.82 13.27 12.62 11.97 11.70 11.61 11.83 12.52 12.65 12.82 10.00 11.20 11.87 12.15 13.83 12.68 12.63 13.27 12.87 11.80 10.61 9.94 9.38 9.07 9.69 10.26 9.73 8.35 5.93 5.41 5.33 1.88 -3.60 -3.09 -8.50 -9.02 -7.69 -4.97
17.86 17.17 17.56 16.94 17.05 16.59 15.06 13.76 11.46 11.25 10.50 9.33 10.46 11.39 11.55 12.03 12.20 12.36 12.25 12.23 11.98 11.63 11.27 10.90 10.90 11.55 11.18 10.64 10.00 8.23 7.47 7.31 6.80 6.22 4.23 2.77 1.64 -1.34 -6.20 -6.30 -6.97 -6.97 -11.14 -13.67
18.62 17.94 16.14 15.71 16.89 16.35 15.32 13.73 11.77 10.63 11.30 10.49 9.74 11.41 11.83 11.75 11.34 10.92 11.15 11.16 9.94 9.03 9.04 9.77 10.20 10.03 9.67 9.01 6.79 5.31 3.99 2.91 2.26 2.65 0.28 -0.18 -0.61 -6.89 -8.84 -11.50 -12.77 -13.67 -13.67 -12.77

GFSNGP_sfc_wetblb_102.txt.gz
Wetbulb
32.37 34.46 35.43 33.04 33.09 33.30 34.03 33.75 29.87 34.91 37.04 41.28 44.18 46.12 46.87 47.56 49.57 48.90 50.77 50.75 50.84 51.34 52.72 53.27 55.86 56.08 56.26 56.11 56.35 56.17 55.53 54.98 55.35 56.46 56.86 56.35 55.68 55.19 55.12 55.13 54.99 54.59 54.55 54.43
28.53 33.67 34.50 32.92 34.47 34.41 35.05 34.76 34.14 34.67 33.99 41.82 45.92 46.40 45.56 46.59 47.51 47.80 49.24 49.65 50.03 50.48 51.12 51.99 53.29 55.60 56.52 56.56 56.55 56.55 55.89 55.27 55.71 55.93 56.51 56.13 55.54 55.18 55.12 55.09 55.44 54.99 54.47 53.97
25.89 32.23 32.67 26.12 31.69 34.04 35.04 36.70 36.08 31.33 38.70 43.17 44.13 44.12 44.41 44.02 45.89 47.54 48.49 49.01 49.28 49.30 50.45 51.59 51.76 52.83 52.96 56.65 56.91 56.40 55.96 56.45 56.32 56.14 56.01 56.00 55.70 55.25 55.00 54.97 55.49 56.08 53.59 49.42
25.18 28.10 20.41 33.39 38.89 37.81 38.26 39.17 39.53 39.64 40.43 42.72 43.57 44.38 45.14 45.46 45.19 47.22 48.48 48.44 48.27 48.61 50.00 49.67 48.95 49.34 51.47 56.11 57.06 56.63 56.09 56.34 56.81 56.36 55.71 56.05 55.81 55.40 55.03 51.69 47.38 42.77 40.03 38.67
21.97 22.67 28.89 32.94 37.19 36.33 36.29 36.15 41.02 39.68 40.77 42.01 43.50 43.52 42.00 45.66 47.99 48.18 47.91 47.62 47.31 47.58 49.21 47.66 46.58 47.29 47.33 47.96 50.92 56.72 56.12 56.03 56.65 56.79 56.17 55.98 55.11 54.12 43.42 41.23 39.84 37.69 36.38 35.22
24.20 21.05 18.33 32.90 38.58 41.13 39.61 32.21 41.60 41.81 41.10 40.75 41.47 34.04 37.69 45.38 48.01 46.71 46.38 45.22 44.93 45.64 46.57 45.08 44.62 45.47 44.27 44.50 44.82 45.24 48.23 54.99 55.46 56.15 55.67 53.88 45.97 41.71 39.12 37.76 35.08 34.31 32.87 33.21
22.77 21.19 28.55 37.15 40.26 41.41 28.61 30.99 41.33 41.90 40.61 40.84 38.83 40.15 42.56 47.38 45.15 44.02 42.86 42.05 42.80 43.41 43.51 42.67 42.76 43.20 41.65 41.69 40.78 42.66 43.78 47.31 46.60 47.25 45.30 42.47 39.36 37.05 34.94 33.40 32.46 31.71 31.22 31.66
23.50 20.94 20.95 39.62 40.23 34.04 38.20 39.85 40.59 40.88 40.92 40.26 40.78 43.32 45.54 43.49 40.98 39.33 38.72 38.94 40.41 40.45 41.48 39.94 39.88 41.21 39.83 38.82 39.83 40.00 40.18 40.21 41.23 41.93 39.79 37.33 35.64 34.51 33.61 32.69 31.46 30.60 30.24 30.20
28.42 28.22 37.70 40.41 40.80 44.65 43.52 40.52 39.46 39.78 40.70 42.09 43.10 44.06 43.60 40.25 38.34 36.66 36.04 36.22 37.18 38.39 38.86 38.00 38.31 38.09 37.56 37.33 38.35 37.83 36.63 35.72 35.82 36.04 35.87 34.95 33.33 32.11 31.48 32.30 30.91 29.46 28.49 27.46
32.51 36.70 38.63 40.53 42.62 44.75 44.14 41.54 41.55 42.39 43.94 44.29 42.02 41.10 39.03 37.51 35.28 33.47 32.35 32.08 33.40 34.63 36.72 35.86 36.11 35.90 35.51 35.83 35.78 35.16 33.95 33.52 33.51 32.79 32.69 32.95 32.50 31.79 30.65 30.07 28.64 27.52 26.71 25.86
36.30 39.03 40.22 42.07 42.52 42.78 43.05 43.55 43.56 41.75 40.77 40.47 39.17 37.15 36.39 34.01 32.96 31.11 30.20 30.85 31.47 31.52 32.49 34.80 34.70 33.84 34.16 33.69 32.74 30.28 29.43 28.80 28.05 27.54 27.59 27.37 28.06 28.02 27.67 28.77 28.03 25.94 25.59 25.91
33.04 39.41 38.48 40.89 43.97 44.45 42.24 41.80 42.40 39.88 36.70 37.07 37.16 36.37 35.16 32.33 31.24 29.37 27.97 29.06 29.49 29.89 30.89 31.73 32.81 32.35 32.45 32.48 31.22 29.15 27.49 27.07 26.74 26.42 26.66 26.58 26.45 26.02 28.71 27.81 28.14 27.92 27.65 26.84
37.58 41.87 41.43 41.65 41.37 43.03 40.94 40.16 39.64 38.30 36.96 34.41 33.95 31.95 31.05 29.41 28.20 28.07 26.98 27.06 26.97 27.54 29.20 30.27 30.00 29.32 30.08 30.11 28.92 26.84 25.06 25.16 24.54 24.23 23.96 23.79 23.95 23.91 22.56 26.46 27.81 27.78 28.08 28.05
39.86 41.93 38.24 38.15 36.62 39.39 40.24 38.75 37.17 34.47 33.62 32.14 30.49 28.98 27.37 24.89 25.92 24.96 24.73 25.82 26.13 25.85 24.99 25.70 25.89 27.68 29.16 29.01 27.64 26.45 25.96 25.67 24.78 23.92 23.01 22.17 21.50 21.38 21.27 20.39 20.11 22.27 26.54 25.41
37.26 37.82 36.96 37.23 36.58 35.84 36.82 37.30 36.49 32.34 30.05 27.52 27.36 26.54 26.25 25.47 24.67 24.84 25.77 26.01 25.89 24.89 24.62 24.74 24.44 25.77 28.30 28.66 26.85 25.81 24.85 23.40 22.79 21.85 21.29 20.86 20.44 19.93 19.70 19.31 18.57 18.39 19.37 20.55
34.97 33.66 33.63 32.30 32.28 32.89 33.74 32.45 32.51 30.78 28.09 26.29 24.71 24.21 24.25 24.31 23.74 23.65 24.05 24.66 22.94 21.75 22.23 23.17 23.21 25.54 27.16 27.25 26.27 25.22 24.49 24.07 23.11 21.82 21.13 20.32 20.00 19.42 18.88 18.29 17.12 16.00 14.60 13.84
29.53 28.08 28.81 28.26 28.58 30.14 31.39 31.68 31.84 30.36 27.44 26.72 25.19 24.44 23.44 22.28 21.69 21.41 21.78 22.56 22.15 21.71 21.75 22.53 22.76 24.87 25.25 25.53 24.80 24.06 23.22 22.46 21.57 20.44 19.00 17.92 17.56 16.62 16.66 16.10 15.49 14.21 13.63 13.59
28.27 27.76 26.76 25.90 25.60 27.92 28.37 28.45 28.33 27.39 25.93 25.16 23.79 22.45 21.36 20.32 18.99 19.04 19.59 20.10 19.87 19.65 20.70 21.58 22.61 22.93 23.19 24.04 23.79 23.11 22.44 21.45 20.07 18.12 17.30 16.13 15.64 15.68 15.02 14.12 13.37 12.40 11.79 11.57
26.76 25.60 25.11 23.64 23.38 25.03 24.45 24.61 24.26 23.94 22.76 21.96 20.78 19.42 20.02 19.42 19.02 18.98 19.46 18.58 18.00 17.50 19.12 22.34 23.44 22.35 21.72 22.05 21.57 20.99 19.89 18.84 18.12 16.56 15.51 14.73 14.04 13.91 13.05 12.29 11.81 11.11 10.48 9.40
23.15 23.13 23.40 22.01 20.99 21.07 21.00 21.90 22.61 21.65 21.66 20.51 18.67 16.85 16.23 16.83 17.26 17.07 17.34 16.23 17.77 19.14 21.37 21.39 21.16 20.50 20.31 20.30 19.82 18.60 17.24 16.24 15.68 15.19 14.85 13.79 12.92 11.12 10.51 9.20 8.93 7.24 5.70 5.06
19.36 20.11 19.45 18.80 17.17 17.16 16.79 17.85 17.51 18.01 18.12 18.00 16.29 13.71 13.56 15.21 16.42 16.34 14.58 13.17 16.49 19.68 20.23 20.25 19.74 19.21 19.25 18.62 18.27 17.13 16.11 14.94 14.18 13.35 12.23 10.97 9.74 8.33 7.27 6.51 5.17 4.16 4.73 4.55
14.12 12.91 12.23 12.95 13.20 12.73 14.95 15.26 15.48 14.13 14.10 13.54 12.64 12.19 11.58 11.41 12.23 12.58 14.13 13.82 16.66 17.65 17.79 17.63 17.82 17.96 17.63 17.77 16.92 15.76 15.18 14.11 12.99 12.15 11.05 10.50 9.28 7.27 5.23 4.49 3.31 1.55 0.63 -3.12
12.34 13.31 11.07 9.49 9.18 9.20 10.93 11.62 11.10 11.23 10.22 10.55 11.42 11.77 11.34 12.11 13.15 11.12 9.67 15.14 16.37 16.35 16.21 15.80 15.54 15.35 15.31 14.77 14.09 13.36 12.41 11.51 10.52 9.64 8.29 7.08 6.05 5.69 3.55 1.79 -2.32 -1.53 -4.37 -6.30
11.28 12.40 11.76 12.66 12.84 11.22 8.38 10.45 11.91 11.94 11.00 11.21 11.06 11.99 11.44 9.74 10.55 13.07 13.77 14.18 14.57 14.75 14.28 14.29 14.52 14.30 13.46 12.88 12.17 11.28 11.03 10.32 9.45 8.37 7.11 5.78 4.64 3.53 1.75 -1.95 -3.93 -7.48 -6.94 -6.57
12.29 9.32 9.50 9.61 9.79 10.18 11.04 11.41 11.05 10.78 10.40 10.29 10.85 11.71 12.18 12.70 10.50 11.65 12.67 13.00 14.06 12.38 11.94 11.89 11.51 11.19 10.70 10.41 9.78 10.11 9.75 9.20 8.35 7.27 6.18 4.37 1.98 0.36 -2.29 -2.28 -6.93 -6.93 -8.93 -12.01
16.51 15.78 12.98 11.41 13.58 12.20 12.23 11.67 9.43 10.26 10.15 8.70 9.62 10.37 11.09 11.93 12.26 11.88 11.56 11.54 11.32 10.98 10.57 11.03 11.10 11.02 10.21 8.55 7.69 7.39 7.72 7.33 6.40 5.44 3.63 1.58 0.29 -1.74 -3.41 -5.51 -6.21 -8.57 -13.28 -15.45
13.84 12.53 12.93 13.65 14.57 14.01 13.06 11.92 10.38 9.45 10.44 9.60 8.87 10.92 10.59 10.88 11.09 11.19 10.15 9.28 9.23 9.43 9.44 9.60 10.07 9.57 7.95 6.58 5.82 5.34 5.01 4.17 2.92 2.34 0.11 -2.61 -5.94 -9.48 -9.30 -11.29 -11.29 -12.92 -14.91 -14.00

GFSNGP_sfc_wetblb_105.txt.gz
Wetbulb
31.67 33.86 34.71 33.85 31.99 32.68 33.43 32.83 28.86 32.02 33.09 39.01 42.67 42.70 45.67 47.71 47.99 48.56 48.62 48.90 48.86 48.73 51.72 52.80 53.58 56.09 55.85 55.61 55.59 54.62 54.18 54.24 54.75 55.37 55.38 55.65 54.30 53.31 53.40 53.99 53.38 53.01 52.95 52.94
28.86 33.25 33.77 32.54 33.56 34.40 34.85 35.70 35.37 36.06 33.28 41.68 44.09 45.10 44.88 46.26 48.32 47.59 47.95 48.34 48.90 48.90 50.24 50.73 50.71 51.59 52.74 56.14 55.95 56.08 54.95 54.16 54.75 55.73 55.31 55.03 54.95 54.16 53.25 53.45 53.59 53.44 52.89 52.74
23.68 31.08 30.04 26.55 31.72 33.58 34.19 36.34 36.99 32.72 37.38 42.59 41.94 42.85 43.81 44.91 46.67 46.73 47.35 48.10 47.63 47.86 48.74 48.29 48.06 49.22 49.54 51.16 56.04 56.18 55.65 55.83 55.31 55.02 55.54 55.24 55.53 55.16 54.20 52.81 53.09 52.21 51.89 51.35
26.28 27.75 18.45 32.22 38.47 38.84 37.32 37.83 38.49 39.31 41.54 42.42 41.70 42.94 43.77 45.94 46.75 46.65 46.79 46.55 46.28 47.09 48.22 47.11 46.59 46.66 47.80 49.27 52.13 56.50 55.93 56.03 56.10 55.53 55.20 55.82 55.01 54.56 54.36 53.95 52.50 49.93 44.94 42.27
24.21 24.22 27.34 31.56 36.45 34.40 35.74 35.70 40.54 38.84 40.68 41.68 42.42 42.90 42.60 47.57 47.24 46.25 45.61 45.04 45.43 45.99 46.87 44.35 43.80 44.37 45.12 46.01 47.53 48.42 55.41 55.73 56.04 56.13 55.86 55.46 54.63 53.94 51.75 46.93 43.69 40.43 39.13 37.49
24.97 20.24 14.96 28.74 36.99 39.63 40.18 31.37 41.54 41.50 40.68 40.89 41.85 35.29 38.46 46.25 45.42 43.60 42.84 42.01 41.90 42.76 43.88 41.26 40.85 42.79 43.19 43.26 43.66 43.90 45.33 48.99 55.14 56.35 55.66 54.59 54.65 46.44 41.16 40.91 36.54 35.18 33.40 34.06
22.21 19.33 25.83 34.41 38.68 39.81 28.76 32.18 41.51 41.54 40.79 39.98 36.79 37.58 43.14 43.72 40.85 40.46 39.60 38.96 39.91 40.97 40.22 38.75 40.30 41.88 41.44 41.04 39.49 41.06 42.91 44.11 45.16 52.68 54.81 50.70 44.82 42.34 38.48 35.00 33.51 32.27 31.30 31.72
21.63 19.53 19.30 37.25 38.64 32.12 36.87 40.17 41.52 40.45 40.10 39.38 42.13 43.22 41.29 39.63 37.27 36.08 35.17 35.11 36.05 37.98 37.76 37.57 38.23 38.71 38.47 37.05 38.56 38.93 39.03 38.57 38.87 40.23 41.99 43.53 40.05 36.44 34.97 33.45 31.45 30.59 29.83 29.48
26.36 25.54 34.09 38.44 38.84 42.16 41.36 38.94 39.22 39.26 41.22 43.27 42.16 39.36 38.98 35.97 35.12 33.38 32.52 33.51 34.82 35.21 36.83 36.80 36.29 36.00 35.17 35.51 36.81 36.59 35.78 35.05 35.02 35.19 35.75 36.56 36.38 35.18 33.49 32.88 31.61 29.91 28.69 27.57
29.52 32.63 36.21 39.27 41.50 42.57 42.45 40.90 42.75 43.34 43.11 40.89 38.21 37.94 35.70 34.55 32.69 31.29 31.45 31.82 32.79 32.87 33.26 34.16 34.47 34.27 34.15 34.13 34.28 33.46 32.35 32.58 33.17 32.33 31.95 32.29 32.63 33.11 32.04 30.67 29.31 28.32 27.08 26.24
34.15 37.77 39.06 40.67 41.68 42.14 43.00 42.05 39.75 38.85 38.80 38.03 37.28 36.11 34.68 33.01 31.16 29.81 29.66 30.16 30.72 30.84 31.47 31.68 32.89 32.83 33.10 32.45 31.70 29.65 29.20 28.59 28.03 28.26 27.87 27.49 28.33 28.88 28.70 29.02 29.25 27.06 26.98 26.99
30.86 36.83 38.42 39.82 40.50 43.70 42.03 40.69 39.03 37.07 35.34 35.04 35.05 33.19 32.00 30.28 29.48 28.61 27.63 28.49 28.73 29.40 30.06 30.01 29.90 29.69 30.82 31.34 30.44 28.88 27.55 27.37 27.45 27.29 27.14 27.02 26.58 26.57 29.42 29.10 29.68 29.93 29.46 28.28
33.95 39.79 38.86 38.38 39.28 40.61 38.47 37.19 36.61 35.22 34.59 31.69 30.70 29.51 28.68 27.23 24.11 24.56 23.97 25.42 25.98 25.36 25.41 26.70 27.21 26.84 27.86 28.34 27.96 26.70 25.26 25.41 25.71 26.22 26.35 26.38 25.63 24.79 23.32 27.49 29.74 29.87 30.25 30.43
39.13 37.47 34.71 35.10 33.15 36.43 37.30 35.33 34.14 31.93 30.98 29.69 28.28 27.66 26.22 23.24 21.56 24.76 23.91 25.26 24.23 21.40 20.10 23.97 26.18 25.54 25.44 26.11 25.57 25.49 24.41 24.29 23.73 23.70 23.73 23.98 23.86 23.64 23.40 22.26 21.38 22.44 26.88 27.10
34.39 35.21 35.08 34.70 33.94 34.24 34.12 34.59 32.73 29.81 28.32 26.56 26.35 25.88 24.88 23.93 24.34 23.89 21.81 17.57 17.22 18.90 18.42 19.84 21.72 24.91 24.96 25.08 22.74 22.65 21.80 21.14 21.12 21.20 21.36 21.51 21.79 21.40 20.81 20.08 19.87 19.51 20.04 21.17
33.61 31.57 31.09 29.20 29.48 31.25 31.61 30.83 30.93 28.95 26.95 25.48 24.53 23.95 23.21 22.84 23.22 22.88 23.09 22.48 19.66 19.16 19.57 19.82 20.78 23.91 23.94 25.21 23.50 22.71 22.27 22.41 21.90 21.30 20.72 20.35 19.98 19.01 18.24 16.96 15.70 14.98 13.93 13.47
27.59 26.04 25.81 25.27 25.79 27.68 28.93 29.88 29.92 29.20 27.49 25.59 24.61 23.78 22.30 21.16 20.17 19.55 19.74 20.20 19.13 19.28 20.72 19.53 19.77 22.94 23.38 23.69 22.88 21.73 20.94 19.91 19.61 19.17 18.56 18.45 18.48 17.72 16.79 15.54 13.81 12.51 11.55 12.39
26.73 26.53 24.67 23.56 23.63 25.17 25.68 26.11 26.40 26.18 25.22 24.42 22.71 16.90 12.81 11.98 14.05 18.03 19.10 19.98 19.77 18.92 20.04 21.25 22.33 22.31 22.56 23.37 22.90 21.55 20.18 19.07 18.31 17.26 17.45 16.85 16.44 16.22 14.77 13.69 12.56 11.18 10.08 10.01
23.47 22.92 23.71 22.25 21.25 22.79 22.36 21.98 22.66 23.38 22.58 22.25 20.92 18.53 17.11 15.02 16.86 17.61 18.99 18.21 17.39 16.70 18.24 21.80 23.37 22.05 21.71 22.13 21.48 20.56 18.81 17.15 16.45 16.07 15.82 15.08 14.48 14.06 13.01 11.82 10.78 10.09 9.62 8.28
20.64 20.98 20.73 19.41 18.62 18.54 17.48 18.74 19.28 18.38 20.54 19.53 18.34 16.87 15.55 14.04 14.90 15.15 15.21 14.08 16.82 18.28 20.39 20.30 20.22 19.60 19.25 19.67 19.57 18.39 17.52 16.54 15.59 14.88 14.19 13.22 11.81 10.54 10.41 9.65 8.47 6.69 5.82 4.09
17.60 18.07 16.90 16.49 15.14 15.19 14.28 15.92 14.43 15.12 15.02 16.42 15.22 14.11 13.27 12.58 12.61 12.19 12.69 12.51 16.03 18.91 19.30 19.06 18.93 18.34 18.43 18.13 17.64 16.48 15.48 14.52 13.51 12.66 11.78 10.45 9.72 8.95 7.77 6.86 6.37 5.83 4.83 3.22
10.86 11.28 9.68 10.62 11.15 10.33 12.26 13.15 14.07 12.70 11.80 11.42 10.91 10.72 10.40 10.93 11.53 12.07 13.30 13.41 16.16 16.35 16.48 16.33 16.48 16.82 16.87 16.91 15.88 14.68 13.96 12.98 12.25 11.90 10.73 9.84 8.60 7.25 6.07 5.34 4.16 2.93 0.82 -1.46
10.19 10.88 9.11 7.88 7.77 7.11 9.32 9.69 9.72 8.95 8.81 8.46 8.80 9.48 10.17 11.29 12.72 10.92 9.78 15.40 15.89 15.30 15.14 14.41 14.30 14.15 14.07 13.77 12.70 11.98 11.20 10.49 9.52 8.84 8.34 7.82 7.26 6.04 4.81 2.91 2.38 0.69 -2.75 -3.41
7.78 8.65 7.72 8.68 8.79 8.51 5.66 7.84 9.51 9.52 9.15 9.99 9.50 10.27 11.36 9.79 10.91 13.64 13.99 13.30 12.96 13.17 13.04 13.23 13.12 13.09 12.80 12.22 11.33 10.44 10.07 9.19 8.34 7.48 6.72 5.90 5.00 3.88 1.82 -0.28 -2.10 -3.31 -4.32 -5.23
9.56 7.01 6.36 7.33 7.95 7.66 7.77 8.04 8.57 8.92 8.67 9.27 9.82 11.36 12.04 12.74 10.84 11.85 12.51 12.50 13.52 11.43 10.85 11.55 11.31 10.63 10.07 9.96 9.94 9.07 8.38 7.84 7.48 6.55 5.50 4.43 3.38 2.12 0.96 -0.60 -3.59 -4.50 -6.63 -6.71
14.85 11.28 7.31 8.07 8.20 7.86 8.56 8.11 6.71 6.58 8.43 7.51 8.64 9.91 10.76 11.58 11.73 11.53 11.20 11.01 10.99 10.90 10.19 10.53 9.95 8.83 7.80 7.59 7.79 7.77 7.61 7.15 6.27 5.42 4.02 2.29 0.29 -1.23 -2.19 -2.70 -3.41 -4.85 -8.97 -12.57
10.94 11.49 11.31 11.39 12.29 10.47 7.46 5.78 4.15 6.70 8.52 7.15 8.23 10.24 10.67 10.92 10.39 10.13 9.61 9.48 9.31 9.31 9.13 9.32 8.81 7.91 7.30 6.69 6.32 6.10 5.81 5.33 5.00 3.57 2.21 1.05 -0.28 -1.48 -2.02 -4.83 -7.52 -9.69 -13.29 -13.11

GFSNGP_sfc_wetblb_108.txt.gz
Wetbulb
30.22 32.18 33.31 33.44 33.23 31.66 31.86 30.60 28.12 30.05 30.00 34.54 42.39 42.65 43.26 46.41 47.55 48.13 47.65 48.48 48.14 48.40 48.29 49.39 50.63 53.49 55.48 54.53 54.25 54.18 53.95 54.58 55.46 55.48 55.10 54.77 53.94 53.02 53.26 54.12 54.99 55.26 54.85 54.63
26.98 30.94 30.28 30.52 32.73 32.31 33.30 33.93 33.66 32.78 33.10 40.71 42.88 44.52 45.14 46.86 47.08 46.83 47.54 47.98 47.90 48.62 47.47 47.44 47.36 48.45 49.77 51.63 54.74 54.57 53.61 53.60 54.53 55.22 55.00 55.05 54.35 53.32 53.04 52.94 52.63 52.58 53.54 53.92
23.29 28.91 28.14 24.88 30.68 32.75 33.87 35.88 34.60 29.49 35.79 41.51 40.95 43.31 44.14 44.77 45.73 46.04 46.92 46.62 46.17 46.91 47.53 45.61 45.30 45.94 46.65 48.52 50.82 54.45 54.33 54.14 54.12 54.85 55.04 54.31 54.37 53.72 52.99 52.95 53.19 52.14 51.49 50.52
25.71 27.66 17.46 30.48 37.29 35.83 35.25 37.24 36.74 38.26 40.28 41.23 41.60 43.00 44.38 46.44 45.89 45.37 45.08 44.49 44.21 44.26 45.30 43.30 42.95 43.08 44.68 46.85 48.00 49.06 54.69 55.40 54.91 54.45 54.41 54.78 54.29 54.11 53.29 53.00 52.52 51.96 50.52 48.86
23.16 23.82 26.83 29.91 36.09 34.65 33.57 35.02 39.29 39.69 40.02 41.72 44.42 44.88 43.97 45.27 44.93 42.86 41.74 41.40 41.60 42.65 42.16 40.49 40.49 42.19 44.01 44.34 44.55 45.65 45.87 50.46 55.44 55.40 54.63 54.77 54.09 53.87 53.45 52.56 49.83 46.70 44.87 42.72
24.91 21.16 17.52 28.47 35.10 38.21 38.70 30.22 41.31 41.50 41.08 41.83 42.08 35.84 40.60 42.27 41.71 39.94 39.31 38.69 39.02 40.85 40.25 38.78 39.36 40.49 42.06 41.62 41.07 40.68 41.65 43.24 45.95 49.77 54.79 53.76 53.83 52.91 45.98 47.44 39.99 37.21 34.68 35.01
23.02 21.71 26.54 32.69 36.62 38.62 28.11 29.89 41.04 42.20 41.54 41.39 37.37 38.27 42.00 39.90 37.47 37.30 36.13 35.58 37.13 39.28 37.45 36.95 37.60 38.51 38.38 37.63 37.07 38.90 39.56 40.29 40.92 42.33 50.16 54.57 52.49 44.47 41.91 37.34 34.16 32.37 31.61 32.21
21.16 18.31 18.41 35.26 36.92 31.91 36.04 39.37 41.89 40.72 39.97 41.74 41.81 40.05 38.53 36.96 34.90 33.17 33.05 34.79 35.68 36.47 36.60 36.05 35.30 35.71 35.20 34.23 35.84 37.43 37.15 36.58 36.43 36.95 38.51 42.38 43.50 39.89 36.96 35.06 32.51 30.87 29.98 29.62
26.08 24.41 32.52 36.46 37.30 40.53 41.52 38.88 39.31 39.53 43.28 42.93 41.00 38.85 36.76 34.98 33.72 32.69 32.81 32.65 32.74 33.01 34.42 34.00 34.13 33.87 32.76 32.94 34.02 34.49 34.01 33.69 33.74 34.18 34.51 35.80 35.64 35.37 34.40 34.12 32.55 30.51 29.53 28.40
29.84 32.22 34.97 38.56 40.29 41.37 42.43 41.16 41.81 41.51 41.12 39.42 36.76 35.83 34.97 33.94 32.18 31.25 30.72 29.83 30.73 31.75 31.51 31.34 32.41 32.32 32.30 32.36 32.13 30.91 29.70 29.24 29.69 30.03 30.52 31.53 32.16 32.51 32.39 32.42 31.55 29.90 28.39 27.18
32.03 35.53 37.55 38.87 38.88 41.37 40.74 39.75 38.11 37.93 37.91 36.72 35.23 33.67 33.52 31.80 30.47 29.37 28.41 29.82 30.56 30.23 29.81 28.60 29.33 29.59 30.78 31.13 30.88 29.22 28.70 28.66 28.32 28.35 28.44 28.32 28.76 28.72 28.90 29.87 31.39 28.77 27.92 27.39
30.99 36.48 37.48 36.66 38.65 41.26 38.62 37.56 37.50 35.33 32.72 33.27 33.16 32.19 31.17 28.76 28.48 27.61 27.19 27.73 27.43 27.18 27.13 27.66 27.15 26.83 27.80 28.61 28.96 28.17 27.18 27.61 27.73 27.70 27.80 27.64 27.33 27.56 30.82 30.22 30.73 30.57 30.14 28.54
32.64 36.39 35.34 36.06 35.76 37.64 35.87 35.32 34.59 33.25 32.35 29.22 28.79 28.73 28.21 25.94 25.42 26.28 26.19 26.14 24.88 24.05 25.09 26.57 25.99 25.43 25.86 26.50 26.82 26.28 25.37 26.11 26.44 26.66 26.36 26.04 26.06 26.00 25.04 28.69 30.44 30.24 29.74 29.03
34.71 34.39 32.64 32.25 30.91 33.74 35.44 33.84 32.54 30.13 29.20 28.25 27.53 27.00 25.54 23.82 25.80 24.62 23.80 24.39 23.13 19.41 21.55 24.16 24.64 21.65 21.79 20.07 21.10 20.98 22.05 23.03 23.35 24.00 24.18 23.98 23.86 23.73 23.86 22.86 21.96 23.07 27.18 27.07
33.60 33.33 31.66 32.02 31.82 32.13 32.66 34.03 30.87 28.47 27.47 25.72 25.59 24.91 25.00 24.00 23.83 23.76 24.03 21.91 19.75 19.86 18.82 23.08 22.63 20.37 19.38 18.27 19.58 19.82 19.69 20.58 21.58 21.63 21.73 21.68 21.91 21.68 20.89 20.08 19.16 18.74 18.89 19.61
31.82 28.66 28.17 26.59 26.66 28.87 29.91 29.93 30.37 28.99 27.79 25.78 23.91 22.93 22.30 22.18 21.71 21.75 21.58 21.06 19.81 18.06 16.89 19.42 21.15 20.21 18.93 17.13 19.82 20.55 20.50 21.41 21.14 20.91 20.48 19.35 18.76 17.58 16.86 15.96 14.87 14.22 13.34 13.39
25.71 24.72 23.60 22.73 23.15 24.87 25.92 26.86 27.44 27.66 26.92 25.39 24.05 23.01 21.48 19.50 18.53 18.16 18.86 17.93 16.18 14.79 14.96 15.51 19.27 19.98 17.95 19.14 18.45 18.14 18.61 18.92 19.00 18.82 18.48 18.12 17.50 16.09 14.86 13.49 12.08 10.85 10.60 11.81
24.14 24.04 23.88 22.31 20.98 22.50 22.87 23.48 24.26 24.26 23.43 22.94 21.53 19.95 17.94 15.13 13.09 13.06 13.40 18.73 16.78 15.45 17.57 18.74 20.08 20.61 20.73 20.63 20.08 19.23 18.41 18.18 18.45 17.78 17.52 16.50 15.69 15.17 13.91 12.54 11.14 9.69 9.25 9.59
21.83 21.32 21.09 20.39 19.57 20.64 19.46 19.31 19.88 22.20 22.13 21.84 19.67 17.73 17.69 17.32 16.26 14.57 13.89 12.23 9.83 12.43 16.87 20.11 22.23 20.80 20.35 20.76 19.59 18.42 17.36 16.51 16.07 15.71 15.34 14.61 13.74 13.23 11.87 10.87 10.04 9.37 8.83 7.84
19.51 19.10 18.41 17.75 16.53 16.28 15.15 16.40 17.37 16.27 18.32 19.15 17.94 16.82 15.30 15.19 14.80 12.51 13.45 12.76 14.45 16.83 19.21 19.09 18.73 18.33 18.18 18.78 19.08 17.96 17.06 16.06 14.92 13.96 13.56 12.30 11.21 9.90 9.38 8.75 7.77 6.14 5.19 4.65
14.55 15.37 14.38 14.38 12.63 12.45 11.82 13.97 13.70 13.44 12.03 12.32 13.32 13.20 12.48 12.51 12.50 12.00 12.37 11.73 14.33 17.64 17.79 17.69 17.32 16.93 17.04 16.74 16.39 15.48 14.41 12.99 12.07 11.18 10.46 9.14 8.74 8.29 7.27 6.69 5.80 4.58 3.27 2.74
8.54 7.96 6.27 7.33 8.77 7.25 9.86 10.55 10.99 9.65 9.28 8.75 9.28 9.62 9.77 10.01 11.05 12.05 13.21 12.54 15.24 15.05 15.34 15.21 15.23 15.04 15.63 15.57 14.41 13.09 12.25 11.41 10.62 10.08 8.75 8.00 6.92 5.89 5.95 5.68 4.32 3.62 2.74 1.70
9.19 10.50 8.28 5.96 4.98 6.24 7.68 8.18 7.86 7.83 7.84 8.55 8.20 8.73 9.58 10.69 11.60 10.27 9.55 14.59 15.07 13.90 13.69 13.06 13.22 13.04 11.90 11.26 10.74 9.81 8.88 8.53 7.90 7.52 7.00 6.47 6.28 5.54 4.31 3.97 3.47 2.36 0.82 0.29
7.27 8.27 5.26 6.98 7.86 7.74 4.70 5.86 7.06 7.40 6.52 8.58 8.41 8.97 9.98 8.90 10.16 12.93 12.89 11.82 11.27 11.45 11.52 11.38 12.19 12.06 10.87 9.86 9.14 8.41 7.55 7.04 6.69 6.15 5.78 4.76 4.19 3.61 2.74 2.18 0.63 -0.72 -1.23 -0.99
8.11 5.24 5.03 5.55 6.52 5.13 4.86 4.81 4.61 3.92 5.23 6.66 8.24 10.48 11.48 12.17 9.11 10.59 10.84 11.18 12.72 10.17 9.71 10.19 10.40 9.75 8.97 8.26 7.89 7.38 7.25 6.72 6.36 6.11 5.40 4.32 2.96 2.42 2.06 1.77 0.39 -0.62 -1.35 -1.24
11.13 8.09 5.62 6.49 7.01 7.02 6.29 5.67 4.38 3.26 3.88 3.41 6.18 5.52 8.14 10.32 10.25 10.53 10.58 10.55 10.35 9.95 9.34 8.51 8.14 7.55 7.37 7.01 6.66 6.65 6.65 6.37 5.88 5.18 4.57 3.55 2.83 1.84 1.52 0.83 -0.40 -2.00 -3.83 -4.94
8.76 10.20 9.06 7.51 8.25 7.22 5.21 3.36 2.81 4.54 5.15 2.99 4.45 7.81 7.90 8.74 8.73 9.16 9.16 8.85 8.86 8.69 8.34 7.81 7.55 7.05 6.40 6.10 5.75 5.42 5.20 4.99 4.86 4.00 3.21 2.37 1.67 0.69 -0.01 -0.91 -1.64 -2.90 -5.20 -7.85

GFSNGP_sfc_wetblb_111.txt.gz
Wetbulb
30.63 32.13 33.34 33.05 32.54 33.33 32.05 33.67 30.68 33.95 34.99 41.59 43.91 45.56 46.51 48.37 48.76 48.71 49.01 49.41 49.50 48.84 47.70 47.24 46.97 48.06 50.17 53.69 55.99 57.39 57.89 57.24 56.29 57.01 57.22 56.24 55.58 55.93 56.15 56.22 56.17 55.95 55.70 55.74
27.74 31.55 31.23 29.50 33.58 34.03 33.42 35.72 35.45 35.98 36.86 43.02 45.44 47.39 47.36 47.50 47.78 47.77 47.72 47.59 48.01 48.59 46.55 44.93 44.56 44.68 46.87 48.25 49.84 54.26 56.42 56.81 57.00 56.46 56.72 56.53 55.75 55.05 55.32 55.76 55.74 55.50 55.00 54.85
23.98 30.27 29.29 26.94 31.66 33.24 33.69 35.48 36.10 33.25 39.12 44.44 44.22 45.61 45.99 46.49 46.98 46.09 45.50 45.37 44.84 45.26 43.92 43.07 42.25 43.17 44.14 47.36 49.44 50.67 55.02 55.57 56.53 56.54 56.60 56.46 56.32 55.38 54.71 54.73 55.30 54.67 54.54 54.51
25.82 28.56 19.14 31.54 38.64 37.77 34.32 35.43 39.42 40.49 42.09 43.87 44.30 45.73 46.15 47.30 45.46 43.80 43.18 42.74 42.34 43.04 41.02 41.06 41.58 42.12 44.47 46.04 46.26 47.86 47.32 51.63 55.21 56.21 56.40 56.57 56.75 55.53 55.60 55.54 54.42 53.63 52.94 52.83
23.69 24.02 28.03 32.77 34.96 34.78 33.35 35.29 40.24 40.75 42.41 44.67 44.94 44.81 42.78 43.85 42.60 41.17 40.84 40.69 41.34 41.95 39.99 39.91 39.34 41.28 43.33 42.19 42.66 43.13 42.23 43.76 45.27 48.00 55.03 56.09 55.66 55.34 55.65 54.16 54.04 54.04 52.52 51.12
25.31 21.36 18.79 30.05 35.95 39.13 39.32 32.40 42.29 42.74 42.93 42.21 42.70 37.62 41.70 40.48 40.48 39.16 38.55 38.85 39.59 39.68 39.27 38.09 37.88 39.78 39.49 38.56 38.95 38.87 39.23 40.67 41.97 43.26 45.34 53.59 55.08 55.18 54.09 53.41 50.89 44.61 41.61 44.24
24.13 22.42 27.17 34.81 36.74 40.65 29.72 32.58 42.86 43.41 43.13 42.51 39.47 39.93 40.12 39.47 37.36 37.45 37.39 37.42 38.16 38.82 37.28 36.26 36.80 38.32 36.89 35.83 34.96 36.69 37.65 38.24 38.11 38.86 40.94 43.40 53.26 51.02 48.56 41.85 38.18 35.86 34.73 35.98
25.54 22.67 19.40 36.78 38.12 33.92 38.11 42.02 43.04 43.32 42.66 42.37 40.55 38.81 37.87 36.78 35.51 35.44 35.29 34.71 35.21 35.86 35.39 35.51 35.19 35.57 34.33 33.24 33.96 34.98 35.12 35.17 35.34 35.30 36.22 38.59 40.97 40.00 38.92 37.18 34.28 32.53 31.39 31.19
27.62 27.72 34.35 40.27 39.68 42.07 42.24 41.45 41.77 43.35 43.78 42.45 39.74 37.60 36.72 35.27 34.27 33.27 32.97 32.66 33.88 33.94 33.14 33.26 33.15 33.15 31.56 32.03 32.79 32.73 32.18 31.55 31.74 32.42 32.88 33.88 35.39 35.39 34.08 33.83 32.73 31.43 29.85 28.61
30.75 34.40 36.67 38.64 41.95 41.12 41.58 40.86 42.38 43.25 41.41 39.89 36.61 36.20 34.99 33.86 32.74 31.58 31.59 31.54 32.21 32.28 31.11 29.93 30.62 30.78 30.78 31.76 32.15 31.13 29.99 29.96 30.20 30.41 30.39 31.07 31.61 32.63 32.99 32.28 31.08 29.73 28.55 27.86
31.72 35.03 37.11 35.92 38.74 40.03 38.77 38.36 37.67 37.34 37.52 36.61 35.88 34.50 33.59 31.96 30.66 30.06 30.01 30.29 30.02 28.64 28.74 28.15 28.95 28.54 29.27 30.24 30.95 29.78 29.56 29.31 29.05 29.19 29.36 29.24 29.63 29.94 30.05 31.19 31.40 28.84 28.29 27.99
28.49 33.13 34.81 31.81 34.62 37.74 36.68 37.06 36.53 34.91 33.58 34.23 34.23 32.05 31.28 29.43 29.34 28.95 28.52 28.59 27.82 27.19 27.29 27.26 27.15 26.87 27.30 29.00 29.84 29.27 28.25 28.12 28.08 28.21 28.48 28.66 28.35 28.35 31.06 30.64 30.93 30.43 29.53 27.33
30.73 34.61 32.92 35.11 33.79 34.94 34.16 33.65 32.89 31.95 31.12 30.08 30.03 30.14 29.33 28.26 28.02 27.41 27.05 26.14 25.29 24.88 25.94 26.41 25.22 24.35 24.69 25.91 27.00 27.50 27.70 27.49 27.11 27.46 27.55 27.71 27.13 26.01 24.69 27.71 29.67 29.53 28.98 28.23
33.13 32.42 30.43 30.58 30.00 32.23 34.43 32.22 31.90 29.82 29.30 28.95 28.64 28.66 27.76 27.18 26.50 25.15 23.92 23.56 22.61 22.51 24.14 24.75 22.38 21.57 22.44 23.45 23.27 23.67 25.27 25.21 26.47 25.39 24.93 24.79 25.33 24.87 24.56 23.29 22.45 23.53 27.49 27.36
31.06 31.05 29.95 30.21 30.62 31.10 32.55 33.91 30.26 28.31 27.61 26.40 26.79 26.38 26.41 25.14 24.29 23.97 24.18 21.95 22.63 20.18 21.87 22.32 21.09 21.57 22.03 22.33 23.05 23.98 24.92 25.06 25.69 25.13 24.59 23.24 22.60 21.61 20.67 19.39 18.83 19.81 19.84 21.14
29.16 27.60 26.89 25.15 26.04 27.44 27.61 28.29 28.53 27.86 27.09 25.69 24.57 23.66 23.25 22.94 22.37 22.30 22.31 22.01 21.43 19.50 18.13 20.04 20.78 21.31 21.30 21.55 22.94 24.00 23.60 22.88 23.94 24.09 23.49 23.03 22.50 21.16 20.37 19.05 17.87 16.68 16.22 16.57
24.36 23.22 23.31 22.32 22.48 24.05 24.08 25.02 25.81 25.79 25.97 25.11 24.03 23.13 21.70 20.63 20.02 19.51 19.95 20.48 19.72 19.44 20.46 20.89 21.06 21.51 21.41 21.12 22.87 23.23 23.46 23.14 22.17 23.30 22.32 21.57 20.85 19.41 18.63 17.29 15.52 14.55 13.89 14.96
23.38 22.85 22.64 21.07 20.65 21.70 21.44 22.05 22.80 23.81 23.34 22.99 21.93 20.74 19.45 18.66 18.06 17.39 17.98 18.21 18.28 18.76 20.42 22.22 22.63 22.73 22.29 22.60 23.11 23.29 23.18 22.60 22.46 21.55 21.05 20.44 19.57 18.93 17.98 16.24 14.70 13.12 12.58 12.11
21.03 20.08 20.12 19.20 19.00 19.66 18.69 18.55 18.95 20.25 21.36 21.60 20.11 18.88 19.00 18.65 18.36 17.63 17.86 17.18 17.34 18.05 19.02 21.39 22.15 22.49 21.83 21.53 22.04 22.40 22.08 21.37 20.43 19.20 18.52 17.28 17.56 17.00 16.37 15.78 14.24 13.27 12.44 11.45
18.40 18.34 17.97 16.68 15.49 15.45 14.88 16.06 17.72 16.23 17.33 19.53 18.69 17.57 16.52 16.04 16.51 16.36 17.05 15.87 17.73 19.24 20.63 20.46 20.65 20.38 20.32 20.67 21.09 21.23 20.40 19.74 18.38 18.03 17.91 17.14 16.15 15.06 13.81 12.45 12.31 11.41 10.84 9.91
14.34 14.70 13.44 13.34 12.45 12.20 11.78 13.81 13.18 13.40 12.90 13.18 14.82 13.64 13.75 14.50 15.02 15.74 16.06 15.66 16.95 18.62 18.91 18.85 19.55 19.49 19.42 19.32 19.46 19.41 18.63 17.86 17.16 16.46 15.56 14.70 14.24 13.56 12.77 12.08 11.41 10.60 9.63 8.52
12.12 10.43 9.08 9.68 10.07 9.08 9.96 10.93 11.55 10.45 10.66 10.92 11.11 11.74 12.54 13.34 13.67 14.30 14.67 15.46 17.15 16.34 17.52 17.58 17.43 16.39 17.08 17.33 17.68 17.61 16.76 16.18 15.51 14.95 13.99 13.89 13.01 12.16 11.66 10.87 10.08 9.59 9.21 8.67
12.07 12.22 10.19 7.70 7.76 8.28 8.32 8.74 8.50 9.53 8.99 9.82 10.49 12.08 13.09 14.12 15.34 14.72 13.09 15.62 16.80 15.40 16.38 15.82 14.36 13.81 14.23 15.73 15.61 15.28 14.45 14.19 13.70 13.29 13.14 12.64 12.19 11.64 10.86 9.84 9.37 9.01 8.22 7.64
10.94 10.99 9.81 10.22 10.25 9.88 8.23 8.95 9.63 9.88 9.68 11.52 10.99 11.89 13.46 13.17 13.37 14.82 14.85 13.40 13.02 14.07 14.46 14.50 13.88 13.07 13.42 14.46 13.88 13.34 13.40 13.07 12.56 12.40 11.25 10.45 10.97 10.50 9.76 8.60 7.75 7.94 6.74 6.20
11.95 10.42 10.15 9.93 9.87 10.12 9.39 9.86 9.87 9.82 9.85 10.92 11.00 12.51 13.22 14.20 13.10 13.39 14.31 13.99 13.68 13.21 12.87 11.56 11.62 11.95 13.35 13.22 12.85 12.16 12.31 12.59 12.42 12.11 11.24 10.59 9.89 9.36 9.32 8.39 7.70 7.18 6.29 6.16
14.02 12.56 11.84 10.97 11.51 11.65 11.53 11.41 9.69 10.01 10.36 9.78 10.70 11.79 12.63 13.01 13.11 13.22 12.89 12.40 12.47 11.64 11.77 11.80 11.63 11.92 11.82 11.41 11.05 10.84 10.76 10.68 10.95 10.10 9.62 9.65 9.11 8.36 7.71 6.98 6.30 6.40 5.74 4.83
12.75 11.80 12.32 11.22 11.83 11.85 11.58 10.63 10.03 9.12 9.42 10.12 9.91 11.65 11.80 12.16 11.72 11.65 11.21 11.93 11.41 10.96 10.85 10.83 10.76 10.14 10.35 10.04 9.47 9.28 9.11 8.78 8.29 8.62 8.55 8.08 8.02 7.43 6.74 6.54 6.19 5.32 4.23 3.51

GFSNGP_sfc_wetblb_114.txt.gz
Wetbulb
31.70 33.01 34.67 34.50 34.98 34.38 34.64 36.28 33.63 36.63 37.47 42.58 46.38 48.33 50.17 51.81 52.18 51.75 51.51 51.87 51.37 50.48 48.85 46.70 45.81 46.30 46.71 48.70 50.82 56.17 57.01 57.64 57.72 59.10 59.78 59.26 59.59 60.26 59.79 59.09 58.32 57.74 57.46 56.53
28.45 31.69 34.87 32.06 35.67 36.30 36.58 36.84 38.04 38.51 38.08 44.76 49.15 50.74 50.13 50.39 50.70 50.24 49.64 49.95 50.18 49.43 48.52 45.71 43.72 45.01 45.67 46.83 48.75 51.26 53.66 57.50 58.27 57.51 57.64 58.38 59.02 58.58 58.89 59.42 59.47 59.40 58.24 56.23
25.80 32.49 31.81 29.71 34.77 35.88 36.69 38.96 39.20 36.34 41.58 46.71 46.66 47.60 48.60 49.52 49.66 48.85 47.80 47.58 47.54 46.83 45.97 46.24 44.06 43.41 44.98 45.21 46.82 48.30 48.94 55.04 57.35 56.59 56.45 56.79 58.27 57.86 57.70 57.57 58.36 57.91 57.24 56.85
26.70 30.40 20.68 33.08 40.05 39.72 37.34 38.83 41.52 41.73 44.33 45.23 45.11 44.88 45.57 48.08 47.72 46.67 46.37 46.41 46.32 46.02 45.47 45.44 46.18 44.16 44.71 43.62 43.94 43.92 44.55 45.36 46.85 52.03 56.61 57.02 56.82 56.69 57.55 57.69 57.18 56.85 57.00 57.11
24.58 26.14 29.81 32.67 35.41 36.12 35.45 36.88 42.20 42.23 44.54 44.23 45.29 45.87 42.67 45.53 45.68 44.69 44.67 45.28 45.29 45.30 44.10 44.04 43.67 44.48 43.16 41.41 41.54 40.62 39.98 41.99 42.63 44.06 46.66 50.99 56.59 56.68 57.43 57.12 56.79 56.41 55.80 55.51
27.76 21.57 21.03 31.65 37.74 41.02 40.78 33.31 43.41 44.66 44.65 43.79 45.17 40.10 41.05 42.68 44.25 43.79 44.09 43.76 44.06 44.05 43.28 41.95 42.21 43.47 39.16 38.67 38.25 37.76 38.28 39.21 40.82 40.84 41.94 44.55 46.41 56.12 56.61 57.82 57.10 54.84 52.90 51.25
27.65 24.53 28.70 36.16 39.51 43.28 31.52 34.07 43.26 44.97 42.40 42.72 41.18 40.47 40.84 41.57 42.10 42.97 42.09 41.26 43.10 42.56 40.98 39.72 40.32 40.97 39.03 36.87 34.79 36.32 37.70 37.65 38.72 38.64 38.52 40.69 42.35 47.61 53.43 49.73 44.50 40.56 36.01 35.85
28.99 24.82 22.17 39.23 39.86 34.15 39.07 43.67 43.29 43.45 43.50 43.36 42.22 40.62 39.56 40.40 39.45 39.36 40.05 40.05 40.60 40.27 38.66 38.29 38.05 37.61 36.73 35.45 34.74 35.18 35.35 35.39 35.98 36.28 36.44 37.30 39.37 39.36 40.22 39.45 36.00 34.12 32.97 32.13
30.28 31.36 39.06 41.32 39.33 42.28 43.74 42.33 43.45 44.14 45.22 44.60 41.94 39.89 38.97 36.93 36.91 36.42 37.90 38.01 38.59 38.53 37.43 36.41 35.88 34.57 33.70 33.66 34.67 33.96 34.01 33.49 33.81 34.71 34.63 34.33 35.23 35.43 34.64 34.40 33.33 31.92 31.18 30.09
32.39 35.95 35.92 35.54 39.01 41.30 41.07 41.68 43.40 44.64 43.67 43.07 39.93 38.88 38.48 37.94 37.19 36.45 35.54 35.33 35.84 35.88 34.64 33.79 34.29 33.12 32.68 33.47 34.77 33.58 32.57 31.63 31.99 31.75 32.04 32.26 32.68 33.45 33.45 32.45 31.15 30.53 29.31 27.98
32.13 33.61 33.94 33.14 34.41 37.58 38.44 38.30 37.57 40.01 40.03 39.71 39.08 37.33 36.52 35.47 35.18 34.70 34.32 34.50 33.96 32.53 32.07 31.69 32.49 31.17 31.70 33.01 33.68 31.65 30.85 30.82 30.68 31.14 30.82 30.38 30.36 31.22 30.94 31.66 31.76 29.38 28.46 27.60
27.97 32.23 32.64 31.21 34.08 35.73 33.80 33.66 36.05 36.63 35.51 36.03 36.98 35.14 35.02 33.67 33.97 33.54 32.60 32.55 31.43 30.69 30.41 29.97 30.24 29.61 30.16 31.32 32.34 31.15 29.52 29.32 29.80 29.96 29.76 29.25 28.45 27.82 30.25 30.07 29.83 29.50 28.39 26.32
30.06 34.39 32.87 33.85 33.87 35.83 33.23 32.28 32.28 31.95 33.57 32.84 33.69 34.19 33.78 32.03 29.98 28.76 29.11 27.78 27.21 26.83 27.75 27.41 27.06 26.71 27.69 29.02 29.93 30.18 29.56 28.99 28.90 29.16 28.83 27.99 27.29 26.31 24.68 27.40 28.79 28.35 27.92 27.57
33.08 32.65 31.69 30.61 30.11 32.62 35.35 34.45 33.89 33.43 32.79 31.87 33.18 33.17 31.80 30.18 29.10 27.34 25.50 25.69 25.42 25.86 25.44 25.32 25.27 24.42 26.42 28.29 28.72 28.57 29.18 28.59 29.41 28.52 27.96 27.45 26.68 26.26 25.91 24.75 23.88 24.79 27.79 27.38
31.39 31.22 29.82 31.08 32.14 31.26 33.07 34.78 31.98 30.99 30.45 29.50 30.74 31.30 31.23 29.32 27.92 26.81 26.81 25.60 26.05 24.14 23.82 24.18 23.97 23.74 26.01 27.25 27.60 28.43 28.52 28.13 28.35 28.13 27.43 26.56 26.50 25.99 25.44 24.30 22.81 22.90 23.83 24.51
30.55 29.45 29.08 27.34 28.40 28.96 29.09 29.92 30.15 29.86 28.86 27.67 27.37 26.65 26.89 27.92 27.80 27.17 26.49 25.18 24.78 23.65 23.33 23.65 23.19 23.73 25.52 27.33 27.53 27.57 27.44 26.91 27.69 27.99 27.41 26.90 26.76 26.08 25.27 25.32 25.32 24.35 23.79 23.72
26.06 24.47 24.43 23.85 25.02 25.47 25.36 26.07 27.34 27.60 27.69 27.24 26.23 25.48 25.04 24.22 24.52 23.57 23.08 23.73 23.81 24.27 24.75 24.39 23.65 24.39 25.26 26.96 27.99 27.94 27.52 27.21 26.94 27.41 26.70 26.62 26.34 25.56 25.35 24.85 23.59 22.57 21.29 22.03
25.75 24.81 24.87 23.23 22.98 23.93 24.28 24.46 24.46 25.26 25.10 24.79 24.17 23.58 22.73 22.68 22.09 21.38 21.86 22.69 23.37 22.95 23.86 24.35 24.93 25.64 25.58 26.62 27.64 28.06 27.54 26.83 26.34 25.83 25.99 25.98 25.36 24.88 24.04 22.93 21.95 20.32 19.01 18.33
23.77 22.50 22.55 21.00 21.35 21.96 21.43 20.97 21.34 21.66 22.80 23.37 22.85 21.90 21.80 21.75 21.80 21.57 22.58 22.43 23.03 23.97 22.57 24.29 23.75 25.15 25.06 24.44 26.78 27.09 26.80 26.24 25.51 24.47 23.77 23.41 23.87 23.06 22.91 22.92 21.90 21.31 20.27 19.08
21.31 21.06 20.28 18.82 18.08 17.99 17.78 18.56 20.07 19.68 20.17 21.98 21.03 20.53 20.04 19.40 19.93 20.35 21.12 19.98 20.71 21.73 23.22 23.26 24.24 24.01 23.99 24.20 24.95 25.94 25.91 25.46 24.26 24.45 24.29 23.01 22.56 21.93 21.23 19.30 19.43 19.29 18.77 17.68
17.34 17.20 16.24 16.14 15.54 15.48 15.40 17.25 16.90 17.01 17.06 17.80 18.98 17.62 17.92 18.89 19.06 20.24 21.85 21.44 20.57 21.30 21.91 22.26 23.22 23.84 23.70 24.09 24.89 25.25 24.92 24.52 24.08 23.55 22.42 21.56 21.07 20.18 19.69 19.25 18.74 17.99 17.21 16.42
16.74 14.87 13.41 13.83 14.24 13.79 14.45 15.61 15.91 15.19 15.88 16.08 15.94 16.87 17.80 18.55 18.56 18.54 18.06 19.84 20.91 20.15 21.72 22.13 21.37 19.45 21.44 22.54 23.79 24.00 23.15 22.91 22.76 22.40 21.64 21.19 20.36 19.40 18.71 18.24 17.29 17.13 16.74 16.20
17.12 16.39 14.59 12.84 12.90 13.62 13.97 14.07 14.27 14.73 14.58 14.89 15.59 17.19 18.20 18.59 19.37 20.06 18.94 19.45 20.53 19.39 20.64 19.81 17.70 18.06 19.88 22.86 22.69 22.50 21.85 21.35 20.97 20.54 20.28 20.19 19.62 18.77 17.83 16.97 16.49 15.95 15.19 14.90
16.31 15.72 15.14 15.34 15.35 15.36 14.34 14.63 15.58 15.21 14.84 15.96 15.05 15.58 18.68 19.17 18.75 19.61 19.38 17.35 16.47 17.65 17.75 17.91 17.28 17.66 19.44 20.77 20.76 20.50 20.54 20.17 19.96 19.66 18.55 17.31 18.08 17.06 16.28 15.44 15.19 15.14 13.42 13.04
15.68 15.39 15.39 15.32 16.15 16.71 15.18 15.36 15.95 15.81 15.75 16.64 16.52 17.45 17.65 19.00 18.57 18.25 18.81 18.12 16.63 18.32 17.90 15.22 16.06 17.47 19.68 19.60 19.14 18.88 19.01 19.32 18.94 18.67 17.92 17.29 16.41 15.87 15.69 14.86 14.19 13.87 12.83 12.36
18.61 18.60 17.82 15.36 16.62 17.78 17.89 18.38 17.56 17.82 18.20 16.86 16.91 17.66 17.84 18.02 18.02 18.15 17.31 16.45 16.91 16.41 17.14 17.01 17.00 17.50 17.46 17.27 17.12 16.85 16.93 16.60 16.80 16.25 15.93 15.78 15.22 14.37 13.36 12.49 12.48 12.25 12.12 11.61
17.98 15.58 18.30 18.11 18.18 18.19 17.81 17.30 17.84 16.40 16.68 17.17 15.95 17.06 17.29 17.33 16.74 16.57 15.98 16.97 16.71 16.23 16.35 16.27 16.35 15.39 15.93 16.09 15.36 14.89 14.76 14.27 13.84 14.49 14.31 13.99 13.57 12.96 12.02 11.81 11.64 11.18 10.00 8.79